     2              OBSERVATION DATA    G (GPS)             RINEX VERSION / TYPE
ASRINEXO V2.9.7 UX USGS/MENLO_PARK 23-JUL-01 17:13          PGM / RUN BY / DATE
                                                            COMMENT
National Earthquake Hazard Reduction Program                COMMENT
Crustal Strain Project                                      COMMENT
345 Middlefield Road, MS/977                                COMMENT
U.S. Geological Survey, Menlo Park, California 94025        COMMENT
Contact: kwendt@usgs.gov (Ph: 650-329-4866)                 COMMENT
HI's are vertical to base of antenna                        COMMENT
BIT 2 OF LLI (+4) FLAGS DATA COLLECTED UNDER "AS" CONDITION COMMENT
pier Pierce_1923_USC&GS                                     MARKER NAME
CHS                                                         OBSERVER / AGENCY
lp019992804 ASHTECH Z-XII3 CD00                             REC # / TYPE / VERS
CR14329 ASH700936D_M NONE                                   ANT # / TYPE
 -2728122.0000 -4026306.0000  4113976.0000                  APPROX POSITION XYZ
        1.4639        0.0000        0.0000                  ANTENNA: DELTA H/E/N
     1     1                                                WAVELENGTH FACT L1/2
     5    C1    L1    L2    P1    P2                        # / TYPES OF OBSERV
    30                                                      INTERVAL
  2001     7    12    16    36    0.000000                  TIME OF FIRST OBS
                                                            END OF HEADER
 01  7 12 16 36  0.0000000  0  4 06 17 15 18
  20592846.814      437390.482 9    276677.02547  20592846.719    20592849.9904
  20620929.578      111708.299 9     91332.81147  20620928.908    20620932.1894
  21188617.063       67998.665 9     58951.11247  21188615.837    21188619.2734
  21813369.452      -30507.125 9     -2973.18247  21813369.189    21813371.9324
 01  7 12 16 36 30.0000000  0  5 06 17 15 10 18
  20600021.908      475094.724 9    306056.92147  20600021.811    20600024.8054
  20616751.437       89752.674 9     74224.52147  20616750.860    20616754.0804
  21178877.261       16818.160 9     19070.19447  21178876.509    21178879.8534
  23983891.766    -1014224.45018   -811809.43855  23983889.589    23983896.0794
  21797218.152     -115385.158 9    -69111.86447  21797217.430    21797220.1454
 01  7 12 16 37  0.0000000  0  5 06 17 15 10 18
  20607280.686      513239.498 9    335780.09047  20607280.547    20607283.4784
  20612620.993       68046.319 9     57310.46347  20612620.380    20612623.5664
  21169185.204      -34114.688 8    -20617.73447  21169184.329    21169187.6344
  24003738.021     -909929.613 8   -730540.87345  24003737.258    24003742.9504
  21781133.692     -199909.412 8   -134974.89147  21781132.986    21781135.7374
 01  7 12 16 37 30.0000000  0  4 06 17 10 18
  20614628.470      551852.445 9    365868.06747  20614628.350    20614631.2184
  20608543.196       46616.895 9     40612.18547  20608542.573    20608545.7004
  24023615.515     -805473.967 8   -649146.99945  24023614.997    24023620.0734
  21765121.995     -284050.634 9   -200539.44947  21765121.370    21765124.0804
 01  7 12 16 38  0.0000000  0  3 06 10 18
  20622059.396      590901.376 9    396295.76947  20622059.225    20622062.0314
  24043517.377     -700891.965 8   -567654.63045  24043516.400    24043521.3464
  21749177.652     -367838.596 9   -265828.72647  21749177.008    21749179.7284
 01  7 12 16 38 30.0000000  0  4 06 10 17 18
  20629573.750      630389.392 9    427065.61648  20629573.534    20629576.5104
  24063443.025     -596182.822 7   -486063.14945  24063441.946    24063446.9904
  20600527.373                                    20600529.400    20600530.6084
  21733301.419     -451268.764 9   -330839.20047  21733300.799    21733303.4854
 01  7 12 16 39  0.0000000  0  4 06 10 17 18
  20637172.384      670320.613 9    458180.82947  20637172.183    20637175.1924
  24083392.435     -491344.942 8   -404371.34445  24083391.765    24083397.0574
  20596591.945     -998331.83657                  20596591.087    20596594.2524
  21717494.273     -534335.201 9   -395566.25347  21717493.752    21717496.4834
 01  7 12 16 39 30.0000000  0  4 06 10 17 18
  20644855.665      710695.784 9    489641.98947  20644855.424    20644858.3254
  24103366.595     -386380.132 8   -322580.69245  24103365.937    24103371.1854
  20592703.439    -1309740.65919  -1014253.06147  20592703.028    20592706.2244
  21701756.932     -617035.232 9   -460007.77047  21701756.407    21701759.1544
 01  7 12 16 40  0.0000000  0  4 06 10 17 18
  20652623.341      751514.630 9    521448.85247  20652623.076    20652626.0274
  24123364.924     -281290.760 8   -240693.00045  24123363.942    24123368.9454
  20588863.321    -1329920.431 9  -1029977.56247  20588862.937    20588866.1054
  21686089.549     -699367.179 9   -524162.50847  21686089.173    21686091.9724
 01  7 12 16 40 30.0000000  0  4 06 10 17 18
  20660475.173      792776.233 9    553600.71347  20660474.891    20660477.8904
  24143385.704     -176079.992 7   -158710.67645  24143384.892    24143389.8364
  20585071.042    -1349848.613 9  -1045506.02747  20585070.562    20585074.0134
  21670492.584     -781330.208 9   -588029.75647  21670492.180    21670494.8674
 01  7 12 16 41  0.0000000  0  4 06 10 17 18
  20668411.755      834483.351 9    586099.73647  20668411.487    20668414.4444
  24163429.744      -70747.235 8    -76633.30145  24163428.936    24163433.9924
  20581327.361    -1369522.098 9  -1060836.02847  20581326.904    20581330.2214
  21654966.773     -862919.240 8   -651605.57147  21654966.229    21654968.9974
 01  7 12 16 41 30.0000000  0  4 06 10 17 18
  20676433.144      876635.856 9    618945.81947  20676432.893    20676435.8184
  24183496.966       34704.948 8      5537.11545  24183495.943    24183500.9634
  20577632.283    -1388940.927 9  -1075967.60447  20577631.752    20577634.9274
  21639512.303     -944132.569 9   -714888.63847  21639511.867    21639514.5574
 01  7 12 16 42  0.0000000  0  4 06 10 17 18
  20684539.136      919232.649 9    652138.09347  20684538.901    20684541.8154
  24203586.208      140273.462 8     87798.19345  24203585.186    24203590.0844
  20573985.331    -1408106.269 9  -1090901.64847  20573984.797    20573987.9104
  21624129.693    -1024969.465 9   -777878.38747  21624129.177    21624131.6754
 01  7 12 16 42 30.0000000  0  5 15 06 10 17 18
  21065767.201                                    21065768.652    21065843.1324
  20692729.906      962275.057 9    685677.60047  20692729.621    20692732.6054
  24223697.783      245957.340 8    170149.12545  24223696.533    24223701.1984
  20570386.769    -1427016.666 9  -1105637.03047  20570386.228    20570389.4314
  21608819.161    -1105426.869 9   -840572.43547  21608818.636    21608821.0564
 01  7 12 16 43  0.0000000  0  5 15 06 10 17 18
  21056652.979                                    21056656.580    21056705.7414
  20701004.650     1005759.735 9    719561.73847  20701004.463    20701007.5184
  24243829.628      351750.993 7    252585.63545  24243828.587    24243833.3794
  20566836.224    -1445675.041 9  -1120176.02947  20566835.676    20566838.9544
  21593580.686    -1185506.023 9   -902971.72047  21593580.106    21593582.4344
 01  7 12 16 43 30.0000000  0  5 15 06 10 17 18
  21047591.064                                    21047593.854    21047663.9584
  20709364.789     1049692.022 9    753794.65947  20709364.545    20709367.6124
  24263982.516      457657.619 7    335110.19445  24263981.835    24263987.1754
  20563334.641    -1464076.049 9  -1134514.49347  20563334.100    20563337.3354
  21578415.433    -1265199.631 9   -965070.59847  21578414.884    21578417.2214
 01  7 12 16 44  0.0000000  0  8 23 15 06 21 22 10 17 18
  20821921.276                                    20821922.803    20821910.9244
  21038577.196    -1031062.20956                  21038577.086    21038580.5294
  20717809.425     1094068.901 9    788374.02147  20717809.229    20717812.3324
  24663193.359    -1377101.36217  -1055098.72055  24663192.248    24663199.1604
  22843641.186                                    22843644.054    22843643.9604
  24284156.060      563672.291 7    417718.95945  24284155.489    24284161.4064
  20559881.516    -1482222.474 9  -1148654.57347  20559880.961    20559884.2504
  21563323.396    -1344508.981 8  -1026870.02247  21563322.803    21563325.1574
 01  7 12 16 44 30.0000000  0  8 23 15 06 21 22 10 17 18
  20814937.402     -872273.52457                  20814936.529    20814939.8484
  21029612.380    -1383108.93819  -1067773.11047  21029611.233    21029615.1904
  20726338.539     1138889.090 9    823298.80847  20726338.304    20726341.4294
  24644535.601    -1475149.165 7  -1131499.49645  24644534.064    24644541.4884
  22840827.040                                    22840827.594    22840827.7654
  24304349.784      669791.280 7    500408.98245  24304349.188    24304355.2894
  20556476.542    -1500115.411 9  -1162597.13247  20556476.038    20556479.2814
  21548304.297    -1423433.299 9  -1088369.44947  21548303.909    21548306.3784
 01  7 12 16 45  0.0000000  0  8 23 15 06 21 22 10 17 18
  20808042.616    -1319406.06319   -900504.62047  20808041.622    20808045.4424
  21020694.899    -1429970.016 9  -1104288.24047  21020694.036    21020697.8254
  20734950.983     1184147.596 9    858565.13447  20734950.802    20734953.8374
  24625899.862    -1573079.951 7  -1207809.14245  24625898.256    24625905.8034
  22838118.042     -872949.24255                  22838116.571    22838120.4674
  24324562.602      776007.608 8    583174.80845  24324561.826    24324567.5214
  20553119.063    -1517759.674 9  -1176345.92747  20553118.522    20553121.7384
  21533358.335    -1501975.833 9  -1149571.37047  21533357.767    21533360.1424
 01  7 12 16 45 30.0000000  0  9 23 15 06 21 26 22 10 17 18
  20801238.457    -1355161.103 9   -928365.66747  20801237.812    20801241.4634
  21011826.035    -1476576.987 9  -1140605.36247  21011825.285    21011828.6004
  20743647.243     1229846.478 9    894174.62347  20743647.032    20743650.0244
  24607286.309    -1670889.739 7  -1284024.48945  24607285.103    24607293.1924
  22310376.264    -1200259.159 8   -927060.32746  22310377.917    22310380.8384
  22835516.848    -1228000.06518   -883600.78846  22835515.552    22835519.6334
  24344793.668      882321.432 7    666016.64145  24344792.820    24344798.3894
  20549809.266    -1535152.929 9  -1189899.12447  20549808.743    20549811.9204
  21518485.533    -1580132.405 9  -1210472.54847  21518485.003    21518487.5014
 01  7 12 16 46  0.0000000  0  9 23 15 06 21 26 22 10 17 18
  20794526.311    -1390434.413 9   -955851.36347  20794525.739    20794529.2034
  21003006.789    -1522923.296 9  -1176719.37447  21003005.982    21003009.1924
  20752428.408     1275992.123 9    930132.23847  20752428.243    20752431.2694
  24588697.726    -1768570.457 7  -1360139.28845  24588696.840    24588705.1094
  22303309.973    -1237376.599 8   -955982.93246  22303313.388    22303317.8854
  22833023.994    -1241098.883 8   -893807.68146  22833022.727    22833026.7144
  24365043.512      988737.278 7    748937.99845  24365042.932    24365048.8354
  20546548.494    -1552288.557 9  -1203251.56747  20546547.971    20546551.1304
  21503687.750    -1657894.816 9  -1271066.59447  21503687.277    21503689.7134
 01  7 12 16 46 30.0000000  0  9 23 15 06 21 26 22 10 17 18
  20787906.119    -1425223.589 9   -982959.77547  20787905.543    20787909.0504
  20994237.343    -1569006.738 9  -1212628.54547  20994236.583    20994239.9154
  20761295.132     1322586.259 9    966439.32847  20761294.974    20761297.9114
  24570134.750    -1866118.509 7  -1436150.69745  24570134.090    24570142.3024
  22296356.450    -1273928.921 8   -984465.25846  22296357.912    22296361.9984
  22830640.260    -1253625.103 8   -903568.38346  22830639.077    22830643.0604
  24385313.063     1095254.481 7    831938.32145  24385312.340    24385318.5704
  20543337.200    -1569164.560 9  -1216401.71147  20543336.634    20543339.7664
  21488965.756    -1735259.242 9  -1331350.51947  21488965.299    21488967.7824
 01  7 12 16 47  0.0000000  0  9 23 15 06 21 26 22 10 17 18
  20781377.028    -1459533.262 9  -1009694.57447  20781376.572    20781380.0894
  20985516.909    -1614831.819 9  -1248336.39447  20985516.229    20985519.8404
  20770246.167     1369623.719 9   1003091.87047  20770245.958    20770248.9204
  24551596.712    -1963537.204 7  -1512061.28545  24551595.983    24551603.9024
  22289508.918    -1309918.783 8  -1012509.27246  22289509.334    22289513.2014
  22828364.622    -1265584.013 8   -912887.02946  22828363.393    22828367.4194
  24405600.031     1201866.086 7    915012.23545  24405599.556    24405606.3454
  20540174.345    -1585785.805 9  -1229353.33947  20540173.793    20540176.8694
  21474318.746    -1812229.036 9  -1391326.94447  21474318.409    21474320.8354
 01  7 12 16 47 30.0000000  0  9 23 15 06 21 26 22 10 17 18
  20774939.639    -1493362.184 9  -1036054.76347  20774939.259    20774942.6944
  20976846.147    -1660397.150 9  -1283841.84647  20976845.482    20976849.0774
  20779281.455     1417105.164 9   1040090.36247  20779281.303    20779284.4064
  24533083.735    -2060824.083 7  -1587869.15045  24533082.980    24533090.5014
  22282767.793    -1345343.045 8  -1040112.53846  22282768.210    22282772.3654
  22826196.878    -1276974.542 8   -921762.77846  22826195.913    22826199.8284
  24425905.288     1308570.650 7    998158.53145  24425904.797    24425911.5624
  20537060.018    -1602151.433 9  -1242105.77747  20537059.490    20537062.6734
  21459747.607    -1888801.434 9  -1450993.70447  21459747.206    21459749.6344
 01  7 12 16 48  0.0000000  0  9 23 15 06 21 26 22 10 17 18
  20768593.175    -1526712.891 9  -1062042.30747  20768592.792    20768596.2984
  20968224.354    -1705705.492 9  -1319147.04347  20968223.651    20968227.1454
  20788400.825     1465027.377 9   1077432.31047  20788400.689    20788403.7674
  24514596.084    -2157980.362 7  -1663575.23545  24514594.779    24514602.1254
  22276134.480    -1380202.671 8  -1067275.88646  22276134.842    22276138.9014
  22824137.009    -1287799.114 8   -930197.50746  22824136.010    22824139.9674
  24446227.613     1415363.114 7   1081373.29845  24446227.059    24446233.5304
  20533993.815    -1618264.227 9  -1254661.20747  20533993.272    20533996.5194
  21445251.701    -1964977.896 8  -1510351.92647  21445251.252    21445253.7294
 01  7 12 16 48 30.0000000  0  9 23 15 06 21 26 22 10 17 18
  20762337.784    -1559585.187 9  -1087657.06547  20762337.443    20762340.8644
  20959651.301    -1750756.755 9  -1354251.92847  20959650.616    20959654.0904
  20797604.070     1513389.953 9   1115117.41447  20797603.819    20797606.8984
  24496133.379    -2255004.152 7  -1739178.08645  24496131.990    24496139.1394
  22269608.867    -1414495.657 8  -1093997.66746  22269609.091    22269612.9714
  22822184.398    -1298057.452 8   -938191.04746  22822183.761    22822187.8464
  24466566.115     1522241.081 8   1164654.71845  24466565.479    24466571.8434
  20530975.760    -1634124.326 9  -1267019.72447  20530975.221    20530978.4394
  21430831.328    -2040757.003 8  -1569400.52647  21430830.904    21430833.5084
 01  7 12 16 49  0.0000000  0  9 23 15 06 21 26 22 10 17 18
  20756173.901    -1591977.448 9  -1112897.77647  20756173.480    20756176.8504
  20951127.700    -1795549.366 9  -1389155.24647  20951126.977    20951130.3234
  20806891.085     1562193.812 9   1153146.36047  20806890.869    20806893.9534
  24477695.996    -2351892.959 7  -1814675.74245  24477694.685    24477701.6154
  22263191.581    -1448218.400 8  -1120275.07946  22263191.813    22263195.6094
  22820340.625    -1307748.671 8   -945742.65946  22820339.837    22820343.5864
  24486921.457     1629203.684 8   1248002.04645  24486920.317    24486926.5234
  20528006.139    -1649730.206 9  -1279180.15847  20528005.607    20528008.7604
  21416487.359    -2116135.471 9  -1628136.94247  21416486.905    21416489.4114
 01  7 12 16 49 30.0000000  0  9 23 15 06 21 26 22 10 17 18
  20750101.034    -1623890.514 9  -1137765.08047  20750100.594    20750104.0184
  20942652.949    -1840084.193 9  -1423857.71647  20942652.343    20942655.5834
  20816261.941     1611437.651 9   1191518.15047  20816261.722    20816264.7284
  24459283.973    -2448646.281 7  -1890067.84245  24459282.991    24459289.9264
  22256883.100    -1481370.087 8  -1146107.51546  22256883.241    22256887.2694
  22818604.215    -1316874.106 8   -952853.39946  22818603.299    22818606.9994
  24507291.559     1736247.865 7   1331413.03945  24507290.386    24507296.5554
  20525084.682    -1665082.914 9  -1291143.30647  20525084.130    20525087.2804
  21402219.516    -2191112.845 9  -1686560.83347  21402219.122    21402221.6364
 01  7 12 16 50  0.0000000  0  9 23 15 06 21 26 22 10 17 18
  20744119.834    -1655322.272 9  -1162257.35247  20744119.355    20744122.6954
  20934227.856    -1884358.992 9  -1458357.55947  20934227.146    20934230.4404
  20825716.847     1661122.873 9   1230233.87347  20825716.616    20825719.6154
  24440898.833    -2545260.217 7  -1965351.33845  24440897.929    24440904.8894
  22250684.000    -1513946.855 8  -1171492.00846  22250684.132    22250688.0774
  22816975.595    -1325431.711 8   -959521.69146  22816974.838    22816978.7234
  24527676.443     1843373.133 7   1414887.17745  24527675.564    24527681.9374
  20522211.602    -1680180.810 9  -1302907.90447  20522211.059    20522214.3434
  21388028.883    -2265685.717 9  -1744669.51947  21388028.396    21388030.8384
 01  7 12 16 50 30.0000000  0  9 23 15 06 21 26 22 10 17 18
  20738229.932    -1686273.875 9  -1186375.46147  20738229.443    20738232.8404
  20925851.980    -1928374.785 9  -1492655.56847  20925851.245    20925854.5934
  20835255.335     1711247.887 9   1269292.29247  20835255.123    20835258.2124
  24422540.320    -2641734.751 7  -2040526.20245  24422539.298    24422546.4354
  22244594.051    -1545948.245 8  -1196428.12946  22244594.308    22244598.3024
  22815455.008    -1333422.475 8   -965748.26746  22815454.239    22815458.1204
  24548076.224     1950575.938 7   1498421.72845  24548075.541    24548081.8834
  20519386.880    -1695024.948 9  -1314474.76347  20519386.344    20519389.6214
  21373915.156    -2339853.919 9  -1802462.87747  21373914.687    21373917.0454
 01  7 12 16 51  0.0000000  0  9 23 15 06 21 26 22 10 17 18
  20732431.568    -1716744.913 9  -1210119.11547  20732431.056    20732434.3684
  20917525.136    -1972131.383 9  -1526751.61847  20917524.529    20917527.9754
  20844877.412     1761812.356 9   1308693.13747  20844877.222    20844880.2704
  24404208.168    -2738068.464 8  -2115591.38045  24404207.499    24404214.5914
  22238614.320    -1577371.984 8  -1220914.12346  22238614.597    22238618.7304
  22814042.728    -1340846.416 8   -971533.16646  22814041.698    22814045.4814
  24568490.625     2057854.150 7   1582015.04945  24568490.068    24568496.1824
  20516610.532    -1709615.288 9  -1325843.86347  20516609.996    20516613.1134
  21359878.800    -2413615.640 9  -1859939.50547  21359878.234    21359880.6634
 01  7 12 16 51 30.0000000  0  9 23 15 06 21 26 22 10 17 18
  20726724.342    -1746736.329 9  -1233489.03647  20726723.848    20726727.1714
  20909247.804    -2015629.496 9  -1560646.24047  20909247.090    20909250.5604
  20854582.943     1812814.678 9   1348435.16247  20854582.723    20854585.7094
  24385903.579    -2834260.478 8  -2190546.12145  24385902.881    24385909.7034
  22232745.016    -1608217.243 8  -1244949.37946  22232745.061    22232748.8624
  22812737.575    -1347705.213 8   -976877.70346  22812736.441    22812740.5304
  24588919.364     2165204.368 7   1665664.44845  24588918.465    24588924.4584
  20513882.291    -1723952.886 9  -1337016.02547  20513881.705    20513884.7374
  21345919.696    -2486970.563 9  -1917099.13147  21345919.178    21345921.6014
 01  7 12 16 52  0.0000000  0  9 23 15 06 21 26 22 10 17 18
  20721108.521    -1776247.788 9  -1256484.96047  20721108.025    20721111.2954
  20901019.697    -2058868.478 9  -1594338.95247  20901019.065    20901022.4944
  20864371.691     1864254.740 9   1388518.29947  20864371.456    20864374.5474
  24367626.109    -2930309.362 8  -2265389.33145  24367625.464    24367631.9384
  22226985.615    -1638481.851 8  -1268532.14446  22226985.728    22226989.6284
  22811539.683    -1353998.792 8   -981781.80646  22811538.731    22811542.8254
  24609360.851     2272624.738 7   1749368.55645  24609359.825    24609365.9024
  20511202.059    -1738037.360 9  -1347990.94047  20511201.501    20511204.5724
  21332038.365    -2559916.725 9  -1973940.26147  21332037.987    21332040.4154
 01  7 12 16 52 30.0000000  0  9 23 15 06 21 26 22 10 17 18
  20715584.390    -1805277.648 9  -1279105.61947  20715583.850    20715587.0554
  20892841.290    -2101846.704 9  -1627828.49147  20892840.637    20892844.0554
  20874243.869     1916133.411 9   1428943.19947  20874243.652    20874246.8434
  24349376.202    -3026212.078 7  -2340118.65545  24349375.718    24349382.1144
  22221337.517    -1668162.597 8  -1291659.97446  22221337.658    22221341.5834
  22810450.331    -1359725.467 8   -986244.16246  22810449.194    22810453.0494
  24629815.385     2380114.790 7   1833126.97645  24629814.274    24629820.7804
  20508570.267    -1751867.366 9  -1358767.56247  20508569.733    20508572.8814
  21318235.493    -2632451.286 9  -2030460.65647  21318235.113    21318237.5544
 01  7 12 16 53  0.0000000  0  9 23 15 06 21 26 22 10 17 18
  20710151.593    -1833827.218 9  -1301352.02147  20710151.071    20710154.2834
  20884712.325    -2144565.463 9  -1661115.82947  20884711.595    20884714.9244
  20884199.223     1968448.876 9   1469708.44847  20884199.040    20884202.1734
  24331154.282    -3121968.119 7  -2414733.67845  24331153.902    24331160.3114
  22215800.696    -1697259.101 8  -1314332.53046  22215800.711    22215804.6724
  22809468.075    -1364886.526 8   -990265.78846  22809467.054    22809471.0774
  24650282.585     2487670.774 7   1916936.73445  24650281.625    24650288.1334
  20505986.628    -1765444.330 9  -1369347.01947  20505986.081    20505989.3364
  21304510.958    -2704574.079 9  -2086660.18747  21304510.534    21304513.0334
 01  7 12 16 53 30.0000000  0  9 23 15 06 21 26 22 10 17 18
  20704810.225    -1861895.732 9  -1323223.57947  20704809.789    20704813.0314
  20876632.754    -2187023.456 9  -1694199.98147  20876632.079    20876635.3894
  20894237.766     2021201.498 9   1510814.34147  20894237.600    20894240.7514
  24312960.631    -3217575.754 7  -2489233.05845  24312960.269    24312966.8514
  22210375.329    -1725768.776 8  -1336547.81546  22210375.457    22210379.4834
  22808593.539    -1369481.824 8   -993846.54646  22808592.690    22808596.5544
  24670762.163     2595291.462 7   2000796.92545  24670761.257    24670767.7574
  20503451.417    -1778767.364 9  -1379728.60647  20503450.826    20503454.0604
  21290865.175    -2776282.882 9  -2142537.12447  21290864.771    21290867.1994
 01  7 12 16 54  0.0000000  0  9 23 15 06 21 26 22 10 17 18
  20699560.431    -1889483.706 9  -1344720.68147  20699560.013    20699563.1694
  20868602.568    -2229221.078 9  -1727081.24347  20868602.017    20868605.4124
  20904359.242     2074390.184 9   1552260.03247  20904359.063    20904362.2854
  24294795.282    -3313033.844 7  -2563615.90945  24294794.954    24294801.8814
  22205062.130    -1753690.364 8  -1358304.87046  22205062.314    22205066.1394
  22807826.436    -1373512.616 8   -996987.43846  22807825.651    22807829.5454
  24691253.308     2702973.853 7   2084705.18445  24691252.563    24691259.1424
  20500964.370    -1791836.954 9  -1389912.70847  20500963.838    20500966.9684
  21277298.331    -2847576.841 9  -2198090.82847  21277298.003    21277300.4064
 01  7 12 16 54 30.0000000  0  9 23 15 06 21 26 22 10 17 18
  20694402.290    -1916590.094 9  -1365842.53647  20694401.864    20694404.9504
  20860622.473    -2271157.558 9  -1759759.01947  20860621.822    20860625.2184
  20914563.857     2128015.427 9   1594045.90047  20914563.679    20914566.7934
  24276658.827    -3408339.964 7  -2637880.37345  24276658.779    24276665.7374
  22199861.410    -1781021.195 8  -1379601.60246  22199861.546    22199865.1634
  22807166.901    -1376977.967 8   -999687.73846  22807166.267    22807170.1454
  24711755.618     2810716.877 7   2168660.69845  24711755.098    24711762.1584
  20498525.697    -1804652.337 9  -1399898.72147  20498525.156    20498528.2564
  21263810.971    -2918453.464 9  -2253319.32047  21263810.580    21263813.0044
 01  7 12 16 55  0.0000000  0  9 23 15 06 21 26 22 10 17 18
  20689335.500    -1943216.100 9  -1386590.05447  20689335.081    20689338.1544
  20852691.938    -2312833.560 9  -1792233.82947  20852691.282    20852694.4914
  20924851.305     2182075.595 9   1636170.66747  20924851.067    20924854.1294
  24258551.329    -3503493.317 7  -2712025.78645  24258551.534    24258558.5194
  22194773.069    -1807760.735 8  -1400437.58546  22194773.168    22194776.7344
  22806614.647    -1379878.897 8  -1001948.21146  22806614.170    22806618.0034
  24732269.723     2918517.127 7   2252660.80345  24732269.206    24732276.1424
  20496135.178    -1817214.456 9  -1409687.38447  20496134.641    20496137.7804
  21250403.049    -2988912.665 9  -2308222.55347  21250402.662    21250405.0494
 01  7 12 16 55 30.0000000  0  8 23 15 06 21 26 22 17 18
  20684360.689    -1969359.428 9  -1406961.46947  20684360.235    20684363.2804
  20844811.329    -2354246.421 9  -1824503.59647  20844810.658    20844813.9814
  20935221.644     2236572.189 9   1678635.50447  20935221.428    20935224.5514
  24240473.967    -3598490.372 7  -2786049.40745  24240474.109    24240480.9394
  22189797.788    -1833905.092 8  -1420809.76546  22189797.863    22189801.6914
  22806170.400    -1382213.429 8  -1003767.34846  22806169.967    22806173.7774
  20493793.263    -1829521.094 9  -1419276.96747  20493792.723    20493795.9354
  21237075.246    -3058950.677 9  -2362797.58047  21237074.839    21237077.1944
 01  7 12 16 56  0.0000000  0  8 23 15 06 21 26 22 17 18
  20679476.914    -1995023.678 9  -1426959.56747  20679476.446    20679479.5414
  20836980.152    -2395399.643 9  -1856571.03247  20836979.469    20836982.8114
  20945674.291     2291500.962 9   1721437.10847  20945674.081    20945677.2644
  24222426.275    -3693333.067 8  -2859952.71445  24222426.193    24222432.6174
  22184935.549    -1859456.106 8  -1440719.60746  22184935.678    22184939.4764
  22805833.430    -1383986.066 8  -1005148.65746  22805832.800    22805836.5444
  20491499.332    -1841575.912 9  -1428670.32947  20491498.820    20491502.0164
  21223827.162    -3128569.690 9  -2417046.12047  21223826.770    21223829.1044
 01  7 12 16 56 30.0000000  0  8 23 15 06 21 26 22 17 18
  20674684.279    -2020209.188 9  -1446584.63647  20674683.834    20674686.8824
  20829198.445    -2436293.313 9  -1888436.24447  20829197.776    20829201.0684
  20956208.980     2346861.166 9   1764574.88447  20956208.799    20956212.0154
  24204408.270    -3788020.194 8  -2933734.74845  24204408.037    24204414.1444
  22180186.764    -1884412.531 8  -1460166.15146  22180186.836    22180190.4454
  22805602.923    -1385197.646 8  -1006092.75946  22805602.270    22805605.8864
  20489253.407    -1853379.097 9  -1437867.62347  20489252.855    20489255.9274
  21210659.184    -3197768.629 9  -2470967.33747  21210658.647    21210660.9364
 01  7 12 16 57  0.0000000  0  8 23 15 06 21 26 22 17 18
  20669983.143    -2044914.204 9  -1465835.27547  20669982.649    20669985.6874
  20821466.440    -2476925.346 9  -1920097.56547  20821465.729    20821469.0094
  20966825.950     2402654.005 9   1808049.78847  20966825.769    20966829.0004
  24186419.961    -3882549.064 8  -3007393.45845  24186419.720    24186425.8344
  22175551.367    -1908770.837 8  -1479146.61546  22175551.495    22175555.2904
  22805479.456    -1385846.308 8  -1006598.22346  22805478.676    22805482.5254
  20487055.660    -1864928.893 9  -1446867.46547  20487055.087    20487058.0604
  21197571.571    -3266544.363 9  -2524558.79247  21197571.107    21197573.3704
 01  7 12 16 57 30.0000000  0  8 23 15 06 21 26 22 17 18
  20665373.394    -2069138.981 9  -1484711.71947  20665372.840    20665375.8554
  20813784.237    -2517295.808 9  -1951555.06747  20813783.508    20813786.8194
  20977525.251     2458878.751 9   1851861.23447  20977525.081    20977528.2844
  24168462.274    -3976918.185 8  -3080927.70045  24168461.992    24168468.1524
  22171030.468    -1932529.593 8  -1497659.93146  22171030.564    22171034.1304
  22805463.503    -1385932.363 8  -1006665.31946  22805462.616    22805466.3114
  20484905.974    -1876225.464 9  -1455669.98947  20484905.385    20484908.4354
  21184564.655    -3334895.644 9  -2577819.49347  21184564.222    21184566.4864
 01  7 12 16 58  0.0000000  0  8 23 15 06 21 26 22 17 18
  20660854.490    -2092885.411 9  -1503215.42147  20660853.998    20660856.9974
  20806151.285    -2557406.104 9  -1982809.85047  20806150.691    20806154.0854
  20988306.218     2515532.780 9   1896007.18347  20988306.028    20988309.2324
  24150535.021    -4071127.784 8  -3154337.67545  24150534.483    24150540.6004
  22166623.088    -1955689.322 8  -1515706.43746  22166623.206    22166626.8934
  22805554.029    -1385458.274 8  -1006295.90246  22805552.855    22805556.5584
  20482804.066    -1887270.457 9  -1464276.47247  20482803.520    20482806.6364
  21171638.423    -3402822.981 9  -2630749.84947  21171638.100    21171640.2134
 01  7 12 16 58 30.0000000  0  8 23 15 06 21 26 22 17 18
  20656427.392    -2116150.138 9  -1521343.76047  20656426.873    20656429.8654
  20798569.032    -2597252.369 9  -2013858.89747  20798568.251    20798571.6954
  20999169.433     2572618.928 9   1940489.84247  20999169.247    20999172.4314
  24132638.820    -4165172.441 8  -3227619.16945  24132638.322    24132644.2364
  22162331.015    -1978244.698 8  -1533282.03346  22162331.147    22162334.6114
  22805750.831    -1384421.523 8  -1005488.07846  22805750.077    22805753.9194
  20480750.707    -1898060.445 9  -1472684.26147  20480750.202    20480753.3604
  21158793.977    -3470321.235 9  -2683345.86347  21158793.632    21158795.7324
 01  7 12 16 59  0.0000000  0  8 23 15 06 21 26 22 17 18
  20652091.438    -2138935.502 9  -1539098.58647  20652090.945    20652093.9474
  20791036.392    -2636836.621 9  -2044703.77247  20791035.725    20791038.9614
  21010114.344     2630134.439 9   1985307.08147  21010114.141    21010117.3144
  24114773.506    -4259053.527 7  -3300773.20045  24114773.280    24114778.9914
  22158153.801    -2000196.577 8  -1550387.35746  22158153.770    22158157.3564
  22806054.864    -1382824.735 8  -1004243.85546  22806053.788    22806057.6624
  20478745.627    -1908597.590 9  -1480895.02947  20478745.089    20478748.1954
  21146030.862    -3537391.729 9  -2735608.54447  21146030.538    21146032.6944
 01  7 12 16 59 30.0000000  0  8 23 15 06 21 26 22 17 18
  20647847.114    -2161239.835 9  -1556478.57547  20647846.633    20647849.6134
  20783553.917    -2676157.055 9  -2075343.08947  20783553.245    20783556.5674
  21021141.085     2688080.374 9   2030459.70847  21021140.897    21021144.1074
  24096940.295    -4352767.884 7  -3373797.28645  24096939.866    24096945.6384
  22154091.599    -2021541.813 8  -1567019.97746  22154091.731    22154095.5344
  22806465.351    -1380666.096 8  -1002561.83246  22806464.702    22806468.4094
  20476789.064    -1918880.085 9  -1488907.37147  20476788.504    20476791.5614
  21133349.682    -3604031.439 9  -2787535.54747  21133349.387    21133351.5564
 01  7 12 17  0  0.0000000  0  8 23 15 06 21 26 22 17 18
  20643693.743    -2183065.704 9  -1573485.73247  20643693.259    20643696.2764
  20776121.320    -2715215.753 9  -2105778.43647  20776120.561    20776123.8754
  21032249.218     2746453.845 9   2075945.48447  21032249.027    21032252.2644
  24079138.317    -4446316.317 7  -3446692.13145  24079137.960    24079143.9114
  22150145.285    -2042281.092 8  -1583180.47046  22150145.413    22150148.8444
  22806983.046    -1377948.519 8  -1000444.23046  22806981.976    22806985.6524
  20474880.465    -1928910.230 9  -1496723.07747  20474879.906    20474882.9104
  21120750.303    -3670241.266 9  -2839127.59547  21120750.039    21120752.2484
 01  7 12 17  0 30.0000000  0  8 23 15 06 21 26 22 17 18
  20639631.664    -2204412.298 9  -1590119.43147  20639631.151    20639634.1794
  20768738.701    -2754011.547 9  -2136008.93247  20768737.982    20768741.3614
  21043438.703     2805254.831 9   2121764.40647  21043438.500    21043441.7664
  24061368.931    -4539696.786 8  -3519456.05445  24061368.312    24061374.2924
  22146314.478    -2062412.296 8  -1598867.09446  22146314.406    22146318.0854
  22807605.771    -1374671.964 8   -997891.15446  22807605.283    22807608.9644
  20473019.940    -1938687.150 9  -1504341.45447  20473019.374    20473022.4544
  21108233.326    -3736018.777 9  -2890382.78147  21108233.014    21108235.1364
 01  7 12 17  1  0.0000000  0  8 23 15 06 21 26 22 17 18
  20635660.631    -2225279.557 9  -1606379.61647  20635660.170    20635663.2914
  20761406.274    -2792543.756 9  -2166034.03047  20761405.578    20761408.8854
  21054709.642     2864482.862 9   2167916.07047  21054709.417    21054712.5374
  24043631.383    -4632907.138 7  -3592087.41945  24043630.821    24043636.9184
  22142599.415    -2081933.647 8  -1614078.56946  22142599.617    22142603.3194
  22808336.127    -1370837.207 8   -994903.02446  22808335.179    22808338.5914
  20471207.638    -1948210.398 9  -1511762.17447  20471207.118    20471210.3114
  21095798.841    -3801362.796 9  -2941300.15847  21095798.433    21095800.5284
 01  7 12 17  1 30.0000000  0  8 23 15 06 21 26 22 17 18
  20631780.811    -2245668.243 9  -1622266.90047  20631780.346    20631783.4254
  20754124.115    -2830812.564 9  -2195853.88947  20754123.369    20754126.7014
  21066061.369     2924136.862 9   2214399.65747  21066061.160    21066064.4584
  24025926.364    -4725947.060 8  -3664585.96445  24025925.937    24025931.8554
  22139001.056    -2100844.427 8  -1628814.25946  22139001.079    22139004.6474
  22809171.576    -1366444.719 8   -991480.37046  22809170.859    22809174.8034
  20469443.587    -1957480.511 9  -1518985.63947  20469443.039    20469446.2504
  21083446.978    -3866272.479 9  -2991879.08947  21083446.524    21083448.6574
 01  7 12 17  2  0.0000000  0  8 23 15 06 21 26 22 17 18
  20627992.891    -2265573.568 9  -1637777.52747  20627992.438    20627995.5554
  20746892.899    -2868812.884 9  -2225464.52947  20746892.165    20746895.4294
  21077494.889     2984220.930 9   2261218.36547  21077494.744    21077498.2294
  24008255.194    -4818809.321 8  -3736946.09245  24008254.851    24008260.6804
  22135519.786    -2119138.209 8  -1643069.13846  22135519.848    22135523.4504
  22810114.788    -1361490.074 8   -987619.60146  22810113.847    22810117.8694
  20467728.705    -1966492.440 9  -1526007.92847  20467728.157    20467731.3774
  21071178.892    -3930741.576 9  -3042114.72047  21071178.487    21071180.6174
 01  7 12 17  2 30.0000000  0  8 23 15 06 21 26 22 17 18
  20624295.604    -2285003.095 9  -1652917.40447  20624295.177    20624298.2404
  20739711.263    -2906551.698 9  -2254871.40047  20739710.587    20739713.9444
  21089008.939     3044726.930 9   2308365.85047  21089008.763    21089012.1474
  23990616.892    -4911500.315 8  -3809172.74445  23990616.422    23990622.2474
  22132155.084    -2136820.943 8  -1656847.88046  22132155.048    22132158.4994
  22811162.844    -1355981.272 8   -983327.06846  22811161.932    22811166.1774
  20466061.585    -1975253.499 9  -1532834.73147  20466061.051    20466064.1664
  21058993.490    -3994776.092 9  -3092011.72647  21058993.062    21058995.1844
 01  7 12 17  3  0.0000000  0  8 23 15 06 21 26 22 17 18
  20620689.133    -2303955.294 9  -1667685.34347  20620688.634    20620691.7534
  20732579.830    -2944027.388 9  -2284073.23347  20732579.174    20732582.5244
  21100603.399     3105655.743 9   2355842.80647  21100603.136    21100606.5194
  23973011.512    -5004016.690 8  -3881263.34245  23973011.010    23973016.9314
  22128906.672    -2153889.634 8  -1670148.14046  22128906.797    22128910.4334
  22812316.737    -1349917.890 8   -978602.38046  22812315.832    22812319.9754
  20464442.484    -1983761.857 9  -1539464.62747  20464441.982    20464445.0224
  21046891.359    -4058373.240 9  -3141567.92747  21046890.921    21046893.1044
 01  7 12 17  3 30.0000000  0  8 23 15 06 21 26 22 17 18
  20617173.374    -2322430.871 9  -1682081.87747  20617172.868    20617175.9914
  20725498.565    -2981239.833 9  -2313069.94547  20725497.926    20725501.2824
  21112278.040     3167006.280 9   2403648.37447  21112277.814    21112281.1514
  23955439.200    -5096357.535 8  -3953217.16145  23955438.945    23955445.0374
  22125775.900    -2170343.510 8  -1682969.37346  22125775.894    22125779.2724
  22813576.193    -1343300.911 8   -973446.32546  22813575.071    22813579.0434
  20462871.446    -1992017.957 9  -1545897.95347  20462870.919    20462873.9884
  21034872.566    -4121532.393 9  -3190782.82247  21034872.111    21034874.2924
 01  7 12 17  4  0.0000000  0  8 23 15 06 21 26 22 17 18
  20613748.512    -2340428.773 9  -1696106.21347  20613747.989    20613751.1164
  20718467.801    -3018187.369 9  -2341860.24247  20718467.104    20718470.4834
  21124033.020     3228779.244 9   2451783.10647  21124032.846    21124036.1954
  23937900.685    -5188520.561 8  -4025032.45345  23937900.876    23937906.9854
  22122762.055    -2186180.096 8  -1695309.57546  22122762.041    22122765.6184
  22814940.633    -1336129.218 8   -967858.02246  22814939.637    22814943.7194
  20461348.597    -2000020.399 9  -1552133.63047  20461348.054    20461351.2024
  21022937.572    -4184251.017 9  -3239654.45947  21022937.104    21022939.3184
 01  7 12 17  4 30.0000000  0  8 23 15 06 21 26 22 17 18
  20610414.377    -2357949.359 9  -1709758.59947  20610413.897    20610417.0564
  20711487.463    -3054869.919 9  -2370444.03747  20711486.776    20711490.0674
  21135868.219     3290973.587 9   2500246.18947  21135868.103    21135871.4874
  23920397.050    -5280503.787 7  -4096707.59145  23920396.914    23920403.0944
  22119866.091    -2201398.095 8  -1707167.75446  22119866.205    22119869.8334
  22816410.853    -1328403.647 8   -961838.13146  22816409.898    22816413.8344
  20459873.986    -2007769.092 9  -1558171.56947  20459873.465    20459876.7034
  21011086.648    -4246527.709 9  -3288181.74647  21011086.218    21011088.3544
 01  7 12 17  5  0.0000000  0  9 23 15 03 06 21 26 22 17 18
  20607170.181    -2374998.303 9  -1723043.48447  20607169.673    20607172.7274
  20704556.406    -3091292.516 9  -2398825.28647  20704555.774    20704559.0524
  24621277.629    -2127698.86317  -1645327.19455  24621277.813    24621282.7234
  21147782.504     3353583.001 9   2549032.68947  21147782.335    21147785.6564
  23902926.650    -5372310.826 8  -4168245.47245  23902926.539    23902932.7804
  22117087.350    -2216001.725 8  -1718547.20446  22117087.419    22117090.8054
  22817985.379    -1320130.609 8   -955391.65446  22817984.378    22817988.3324
  20458446.629    -2015269.390 9  -1564015.96547  20458446.152    20458449.4464
  20999318.992    -4308366.942 9  -3336368.15847  20999318.614    20999320.6744
 01  7 12 17  5 30.0000000  0  9 23 15 03 06 21 26 22 17 18
  20604016.629    -2391570.058 9  -1735956.52947  20604016.117    20604019.1914
  20697676.000    -3127448.990 9  -2426999.16347  20697675.298    20697678.6894
  24601662.450    -2230778.166 7  -1725648.65845  24601662.464    24601667.4654
  21159776.739     3416612.600 9   2598146.60447  21159776.501    21159779.8194
  23885491.307    -5463935.185 8  -4239640.98045  23885490.899    23885497.2754
  22114426.502    -2229983.930 8  -1729442.43246  22114426.611    22114429.9524
  22819664.695    -1311305.299 8   -948514.80746  22819663.925    22819667.9164
  20457067.855    -2022515.194 9  -1569662.05147  20457067.387    20457070.6214
  20987635.919    -4369761.465 9  -3384208.01547  20987635.572    20987637.7604
 01  7 12 17  6  0.0000000  0  9 23 15 03 06 21 26 22 17 18
  20600953.837    -2407664.927 9  -1748497.97747  20600953.377    20600956.4714
  20690846.198    -3163339.161 9  -2454965.52447  20690845.586    20690848.9504
  24582060.599    -2333785.016 7  -1805913.70845  24582060.554    24582065.9694
  21171850.603     3480061.643 8   2647587.36747  21171850.403    21171853.7864
  23868090.753    -5555375.149 8  -4310892.85245  23868090.485    23868096.8174
  22111884.429    -2243343.595 8  -1739852.57946  22111884.520    22111887.7304
  22821449.152    -1301928.104 8   -941207.92046  22821448.301    22821452.4884
  20455737.531    -2029506.499 9  -1575109.83047  20455737.018    20455740.1884
  20976037.736    -4430710.060 9  -3431700.39947  20976037.451    20976039.6664
 01  7 12 17  6 30.0000000  0  9 23 15 03 06 21 26 22 17 18
  20597981.718    -2423283.669 9  -1760668.41747  20597981.234    20597984.3194
  20684067.115    -3198963.169 9  -2482724.49847  20684066.479    20684069.9654
  24562472.793    -2436717.643 7  -1886120.92345  24562473.074    24562478.7084
  21184004.223     3543929.049 9   2697354.12947  21184004.029    21184007.4264
  23850725.510    -5646629.567 8  -4382000.11345  23850725.307    23850731.5694
  22109460.845    -2256079.870 8  -1749776.94346  22109460.889    22109464.1624
  22823338.443    -1291999.816 8   -933471.65046  22823337.612    22823341.7874
  20454455.612    -2036243.405 9  -1580359.37347  20454455.105    20454458.1924
  20964524.637    -4491212.104 9  -3478844.84047  20964524.302    20964526.4494
 01  7 12 17  7  0.0000000  0  9 23 15 03 06 21 26 22 17 18
  20595100.104    -2438426.984 9  -1772468.39647  20595099.589    20595102.6034
  20677338.949    -3234320.750 9  -2510275.85447  20677338.247    20677341.6414
  24542900.274    -2539574.220 7  -1966268.87145  24542900.313    24542905.8304
  21196237.183     3608213.477 9   2747445.84547  21196237.011    21196240.3684
  23833395.793    -5737697.957 8  -4452962.42945  23833395.673    23833401.7864
  22107155.865    -2268192.009 8  -1759214.98446  22107155.924    22107159.4014
  22825332.267    -1281521.916 8   -925307.05646  22825331.423    22825335.5244
  20453221.952    -2042726.198 9  -1585410.91147  20453221.429    20453224.5844
  20953096.496    -4551266.940 9  -3525640.80647  20953096.213    20953098.3494
 01  7 12 17  7 30.0000000  0  9 23 15 03 06 21 26 22 17 18
  20592308.608    -2453096.624 9  -1783899.27247  20592308.042    20592311.0624
  20670661.216    -3269413.025 9  -2537620.48147  20670660.539    20670663.8984
  24523342.592    -2642354.079 7  -2046357.00745  24523341.874    24523347.4374
  21208548.985     3672912.825 9   2797860.86347  21208548.877    21208552.3324
  23816101.838    -5828579.930 8  -4523779.48145  23816101.466    23816107.4804
  22104969.836    -2279680.439 8  -1768167.03646  22104969.778    22104973.3054
  22827429.948    -1270496.894 8   -916716.17646  22827429.289    22827433.6624
  20452036.343    -2048956.244 9  -1590265.49947  20452035.830    20452039.0314
  20941753.508    -4610874.520 9  -3572088.25147  20941753.266    20941755.4474
 01  7 12 17  8  0.0000000  0  9 23 15 03 06 21 26 22 17 18
  20589607.355    -2467291.941 9  -1794960.55047  20589606.772    20589609.8114
  20664034.134    -3304238.632 9  -2564757.32547  20664033.467    20664036.7044
  24503799.052    -2745054.411 7  -2126383.20845  24503798.692    24503804.1754
  21220939.819     3738027.120 9   2848599.22047  21220939.699    21220943.3364
  23798843.664    -5919273.094 8  -4594449.41145  23798843.094    23798848.9344
  22102902.488    -2290543.152 8  -1776631.49446  22102902.479    22102906.3144
  22829632.660    -1258924.810 8   -907698.99646  22829631.754    22829635.8974
  20450899.104    -2054932.454 9  -1594922.29847  20450898.568    20450901.7924
  20930496.032    -4670032.865 9  -3618185.64247  20930495.769    20930497.9814
 01  7 12 17  8 30.0000000  0  9 23 15 03 06 21 26 22 17 18
  20586996.146    -2481013.490 9  -1805652.66047  20586995.619    20586998.6544
  20657457.933    -3338797.612 9  -2591686.39647  20657457.190    20657460.3324
  24484271.421    -2847673.322 7  -2206345.94845  24484271.102    24484276.5764
  21233409.548     3803555.259 9   2899660.04947  21233409.376    21233413.0124
  23781621.199    -6009776.510 8  -4664971.48745  23781620.707    23781626.5254
  22100954.589    -2300779.368 8  -1784607.79946  22100954.597    22100958.4054
  22831938.341    -1246806.374 8   -898256.11346  22831937.609    22831941.9014
  20449810.217    -2060654.944 9  -1599381.39447  20449809.701    20449812.8604
  20919324.211    -4728741.323 9  -3663932.47347  20919323.913    20919326.1324
 01  7 12 17  9  0.0000000  0  9 23 15 03 06 21 26 22 17 18
  20584475.197    -2494261.140 9  -1815975.48947  20584474.675    20584477.7034
  20650932.256    -3373089.212 9  -2618407.12447  20650931.657    20650934.7944
  24464759.283    -2950208.194 7  -2286243.20845  24464759.180    24464764.7864
  21245958.027     3869496.845 9   2951043.05147  21245957.809    21245961.2544
  23764435.430    -6100088.017 8  -4735344.01845  23764434.924    23764440.7494
  22099126.308    -2310387.546 8  -1792094.70846  22099126.273    22099129.9904
  22834348.295    -1234141.695 8   -888387.56646  22834347.679    22834351.7934
  20448769.836    -2066122.961 9  -1603642.20447  20448769.291    20448772.4404
  20908238.317    -4786998.273 9  -3709327.46747  20908237.978    20908240.1974
 01  7 12 17  9 30.0000000  0  9 23 15 03 06 21 26 22 17 18
  20582044.005    -2507036.794 9  -1825930.53747  20582043.498    20582046.6064
  20644457.366    -3407114.654 9  -2644920.45047  20644456.690    20644460.0154
  24445264.078    -3052658.194 7  -2366074.30545  24445263.386    24445269.0554
  21258584.582     3935849.362 9   3002746.27247  21258584.328    21258587.7244
  23747286.340    -6190207.669 8  -4805567.03245  23747285.756    23747291.3934
  22097417.314    -2319368.212 8  -1799092.62446  22097417.346    22097421.1544
  22836862.113    -1220933.644 8   -878095.61546  22836861.150    22836865.2334
  20447777.578    -2071337.962 9  -1607705.85447  20447777.008    20447780.0814
  20897238.286    -4844804.044 9  -3754370.90147  20897237.923    20897240.1424
 01  7 12 17 10  0.0000000  0  9 23 15 03 06 21 26 22 17 18
  20579702.744    -2519340.495 9  -1835517.82947  20579702.239    20579705.3124
  20638033.296    -3440873.038 9  -2671225.68847  20638032.658    20638036.0574
  24425784.682    -3155020.616 7  -2445837.20045  24425784.222    24425790.1104
  21271289.126     4002612.394 9   3054769.36247  21271288.933    21271292.2994
  23730174.027    -6280134.276 8  -4875639.63545  23730173.253    23730178.9154
  22095828.213    -2327720.100 8  -1805600.59346  22095828.137    22095831.7894
  22839478.742    -1207183.074 8   -867380.89746  22839477.998    22839482.1424
  20446833.472    -2076299.248 9  -1611571.80847  20446832.882    20446836.0004
  20886324.351    -4902157.276 9  -3799061.70347  20886323.959    20886326.1684
 01  7 12 17 10 30.0000000  0  9 23 15 03 06 21 26 22 17 18
  20577451.213    -2531171.959 9  -1844737.14447  20577450.737    20577453.7734
  20631660.192    -3474363.388 9  -2697322.06147  20631659.599    20631663.0864
  24406322.643    -3257292.872 7  -2525529.82145  24406322.286    24406328.2774
  21284071.888     4069785.782 8   3107112.20947  21284071.684    21284075.0634
  23713098.497    -6369865.357 8  -4945559.87245  23713097.984    23713103.6764
  22094358.799    -2335441.333 8  -1811617.15646  22094358.803    22094362.4604
  22842198.488    -1192889.884 8   -856243.39546  22842197.716    22842202.1694
  20445937.717    -2081006.039 9  -1615239.44247  20445937.182    20445940.3574
  20875496.806    -4959056.277 9  -3843398.55647  20875496.395    20875498.5874
 01  7 12 17 11  0.0000000  0  9 23 15 03 06 21 26 22 17 18
  20575289.506    -2542531.934 9  -1853589.06847  20575289.034    20575292.0744
  20625338.478    -3507585.666 9  -2723209.56047  20625337.786    20625341.2284
  24386878.044    -3359472.849 7  -2605150.52145  24386877.895    24386884.2934
  21296932.399     4137368.251 8   3159773.82347  21296932.151    21296935.6584
  23696060.684    -6459399.737 8  -5015326.82745  23696060.089    23696065.8224
  22093009.723    -2342531.411 8  -1817141.92646  22093009.717    22093013.3814
  22845021.446    -1178054.973 8   -844683.78046  22845020.870    22845025.2054
  20445090.447    -2085458.433 9  -1618708.85247  20445089.899    20445093.0734
  20864755.907    -5015500.168 9  -3887380.79447  20864755.490    20864757.6914
 01  7 12 17 11 30.0000000  0  9 23 15 03 06 21 26 22 17 18
  20573217.254    -2553421.688 9  -1862074.58447  20573216.768    20573219.8514
  20619067.637    -3540540.053 9  -2748888.30547  20619066.937    20619070.1254
  24367451.527    -3461559.058 7  -2684698.18545  24367451.734    24367457.9904
  21309870.534     4205358.198 8   3212752.95147  21309870.314    21309873.8174
  23679060.234    -6548737.160 8  -5084940.32545  23679059.668    23679065.4634
  22091780.482    -2348990.308 8  -1822174.84446  22091780.559    22091784.0974
  22847947.297    -1162680.065 8   -832703.34946  22847946.616    22847951.0224
  20444291.443    -2089657.025 9  -1621980.50447  20444290.942    20444294.1444
  20854101.722    -5071488.352 9  -3931007.92947  20854101.286    20854103.4794
 01  7 12 17 12  0.0000000  0  9 23 15 03 06 21 26 22 17 18
  20571234.467    -2563841.606 9  -1870193.99647  20571233.961    20571236.9744
  20612847.611    -3573226.166 9  -2774358.01247  20612846.913    20612850.1794
  24348043.567    -3563549.214 7  -2764170.99545  24348043.720    24348049.6504
  21322886.089     4273754.781 8   3266048.93647  21322885.783    21322889.3124
  23662097.822    -6637876.003 8  -5154399.08646  23662097.121    23662102.9944
  22090671.638    -2354816.992 8  -1826715.11046  22090671.806    22090675.3654
  22850975.232    -1146766.661 8   -820303.33446  22850974.899    22850979.3544
  20443540.961    -2093601.418 9  -1625054.07047  20443540.392    20443543.5714
  20843534.343    -5127020.110 9  -3974279.40847  20843533.932    20843536.1224
 01  7 12 17 12 30.0000000  0  9 23 15 03 06 21 26 22 17 18
  20569340.806    -2573793.229 9  -1877948.50047  20569340.232    20569343.2844
  20606678.448    -3605644.942 9  -2799619.39447  20606677.724    20606681.0684
  24328654.212    -3665442.235 7  -2843568.09245  24328654.214    24328659.8984
  21335978.465     4342555.816 8   3319660.07347  21335978.250    21335981.6104
  23645173.036    -6726815.956 8  -5223702.89446  23645172.467    23645178.3954
  22089683.347    -2360011.685 8  -1830762.92446  22089683.350    22089687.0854
  22854106.004    -1130316.995 8   -807485.47046  22854105.262    22854109.6654
  20442838.553    -2097292.512 9  -1627930.26747  20442838.038    20442841.1484
  20833053.775    -5182095.505 9  -4017195.28047  20833053.377    20833055.6124
 01  7 12 17 13  0.0000000  0  9 23 15 03 06 21 26 22 17 18
  20567536.197    -2583276.184 9  -1885337.81147  20567535.651    20567538.7544
  20600560.366    -3637795.143 9  -2824671.49947  20600559.699    20600563.1124
  24309283.729    -3767235.226 7  -2922887.27545  24309283.773    24309289.3634
  21349147.734     4411761.115 9   3373586.24947  21349147.582    21349151.0384
  23628286.600    -6815554.694 8  -5292849.89646  23628286.138    23628291.9304
  22088815.296    -2364572.838 8  -1834317.08346  22088815.292    22088819.0544
  22857338.343    -1113330.788 8   -794249.51646  22857337.714    22857341.8054
  20442184.630    -2100729.419 9  -1630608.39647  20442184.090    20442187.2054
  20822660.442    -5236712.796 9  -4059754.19447  20822660.092    20822662.2454
 01  7 12 17 13 30.0000000  0  9 23 15 03 06 21 26 22 17 18
  20565820.589    -2592291.663 9  -1892362.86447  20565820.109    20565823.1214
  20594493.439    -3669676.805 9  -2849514.35247  20594492.809    20594496.2064
  24289932.776    -3868926.490 7  -3002127.14445  24289932.530    24289938.1244
  21362393.977     4481369.270 9   3427826.30847  21362393.782    21362397.1614
  23611438.597    -6904091.247 8  -5361839.34646  23611438.112    23611443.9864
  22088067.809    -2368500.252 8  -1837377.43346  22088067.849    22088071.6674
  22860672.748    -1095809.564 8   -780596.61746  22860671.777    22860676.0304
  20441578.837    -2103912.569 9  -1633088.79647  20441578.350    20441581.4134
  20812354.343    -5290871.361 9  -4101955.66147  20812354.027    20812356.1564
 01  7 12 17 14  0.0000000  0  9 23 15 03 06 21 26 22 17 18
  20564193.959    -2600839.649 9  -1899023.62747  20564193.485    20564196.5324
  20588477.953    -3701289.266 9  -2874147.44547  20588477.224    20588480.5924
  24270601.484    -3970513.265 7  -3081285.64345  24270601.232    24270606.6474
  21375716.565     4551379.717 9   3482379.86647  21375716.399    21375719.7834
  23594629.329    -6992424.403 8  -5430670.29845  23594628.669    23594634.6094
  22087441.373    -2371792.786 8  -1839943.07546  22087441.362    22087445.2834
  22864108.223    -1077754.151 8   -766527.54446  22864107.577    22864112.0894
  20441021.648    -2106841.171 9  -1635370.83547  20441021.096    20441024.1724
  20802135.818    -5344569.778 9  -4143798.57547  20802135.581    20802137.7144
 01  7 12 17 14 30.0000000  0  9 23 15 03 06 21 26 22 17 18
  20562656.174    -2608921.111 9  -1905320.87347  20562655.660    20562658.6984
  20582513.515    -3732632.558 9  -2898570.78647  20582512.893    20582516.1704
  24251290.189    -4071993.791 7  -3160361.37945  24251290.012    24251295.1924
  21389115.469     4621790.997 8   3537245.74847  21389115.304    21389118.5784
  23577858.731    -7080552.723 8  -5499341.66445  23577858.168    23577864.1784
  22086935.767    -2374450.271 8  -1842013.84346  22086935.762    22086939.6144
  22867645.836    -1059166.678 8   -752043.81446  22867644.939    22867649.0784
  20440512.678    -2109515.550 9  -1637454.79247  20440512.138    20440515.2984
  20792005.058    -5397807.694 9  -4185282.64447  20792004.715    20792006.8304
 01  7 12 17 15  0.0000000  0  9 23 15 03 06 21 26 22 17 18
  20561207.100    -2616535.868 9  -1911254.45147  20561206.593    20561209.6404
  20576600.546    -3763705.817 9  -2922783.72447  20576599.866    20576603.1784
  24231999.836    -4173365.152 7  -3239352.02145  24231999.665    24232004.6044
  21402590.499     4692602.596 8   3592423.56947  21402590.235    21402593.5414
  23561127.816    -7168474.718 8  -5567852.24045  23561127.101    23561133.1114
  22086551.263    -2376471.348 8  -1843588.71646  22086551.248    22086554.9354
  22871283.842    -1040047.348 8   -737145.68946  22871283.120    22871287.4114
  20440052.265    -2111934.959 9  -1639340.06247  20440051.727    20440054.9074
  20781962.097    -5450583.761 9  -4226406.84147  20781961.767    20781963.8564
 01  7 12 17 15 30.0000000  0  9 23 15 03 06 21 26 22 17 18
  20559846.472    -2623686.084 9  -1916826.04547  20559845.935    20559848.9624
  20570738.861    -3794509.656 9  -2946786.70647  20570738.125    20570741.3514
  24212730.554    -4274626.401 7  -3318256.82745  24212730.395    24212735.6464
  21416141.251     4763812.345 8   3647911.62747  21416141.004    21416144.4094
  23544436.056    -7256190.566 8  -5636202.19745  23544435.327    23544441.3034
  22086287.724    -2377856.517 8  -1844668.09146  22086287.741    22086291.3654
  22875023.373    -1020398.132 8   -721834.64846  22875022.531    22875026.7114
  20439640.144    -2114100.183 9  -1641027.27047  20439639.632    20439642.9244
  20772007.165    -5502897.975 9  -4267171.14047  20772006.719    20772008.8014
 01  7 12 17 16  0.0000000  0  9 23 15 03 06 21 26 22 17 18
  20558574.234    -2630372.004 9  -1922035.85647  20558573.656    20558576.6744
  20564928.361    -3825043.645 9  -2970579.42547  20564927.697    20564930.9684
  24193482.859    -4375774.969 7  -3397073.83945  24193482.391    24193487.7794
  21429767.612     4835419.418 8   3703709.28847  21429767.411    21429770.8834
  23527783.773    -7343698.224 8  -5704389.90546  23527783.145    23527789.0214
  22086145.296    -2378604.972 8  -1845251.30246  22086145.270    22086148.9084
  22878862.934    -1000219.884 8   -706111.37846  22878862.074    22878866.4194
  20439276.520    -2116010.975 9  -1642516.21947  20439276.044    20439279.3524
  20762140.229    -5554749.226 9  -4307574.69747  20762139.750    20762141.8094
 01  7 12 17 16 30.0000000  0  9 23 15 03 06 21 26 22 17 18
  20557390.308    -2636593.413 9  -1926883.69847  20557389.775    20557392.7904
  20559169.442    -3855306.704 9  -2994161.02947  20559168.754    20559172.0464
  24174257.034    -4476807.836 7  -3475800.69745  24174256.391    24174261.8144
  21443469.565     4907423.512 8   3759816.32247  21443469.355    21443472.8684
  23511171.390    -7430995.690 8  -5772413.82346  23511170.965    23511176.7144
  22086124.139    -2378715.430 8  -1845337.34346  22086124.185    22086127.7954
  22882803.004     -979513.655 8   -689976.69346  22882802.435    22882806.7754
  20438961.595    -2117666.397 9  -1643806.17747  20438961.081    20438964.4234
  20752361.572    -5606136.075 9  -4347616.39747  20752361.129    20752363.1824
 01  7 12 17 17  0.0000000  0  9 23 15 03 06 21 26 22 17 18
  20556294.518    -2642352.013 9  -1931370.93047  20556293.974    20556296.9614
  20553462.011    -3885299.602 9  -3017532.11347  20553461.335    20553464.6174
  24155053.364    -4577723.759 7  -3554436.41845  24155052.676    24155058.1384
  21457246.621     4979822.306 9   3816230.92147  21457246.457    21457249.9874
  23494599.209    -7518082.844 8  -5840273.88446  23494598.868    23494604.4314
  22086224.493    -2378188.491 8  -1844926.74646  22086224.545    22086228.2654
  22886843.769     -958282.149 8   -673432.70446  22886842.858    22886847.2814
  20438695.232    -2119067.268 9  -1644897.78447  20438694.676    20438697.9054
  20742671.159    -5657058.866 9  -4387296.47647  20742670.828    20742672.9014
 01  7 12 17 17 30.0000000  0  9 23 15 03 06 21 26 22 17 18
  20555286.644    -2647648.249 9  -1935497.86647  20555286.132    20555289.1064
  20547806.043    -3915021.724 9  -3040692.21047  20547805.380    20547808.6614
  24135872.249    -4678520.406 7  -3632979.21745  24135871.524    24135876.8964
  21471098.743     5052614.828 9   3872952.32547  21471098.537    21471101.8834
  23478067.496    -7604958.145 8  -5907968.86546  23478067.063    23478072.4874
  22086446.105    -2377023.508 8  -1844018.99546  22086446.172    22086449.8754
  22890983.741     -936525.807 8   -656479.77546  22890982.862    22890987.3754
  20438477.316    -2120213.206 9  -1645790.74447  20438476.737    20438479.9094
  20733069.516    -5707516.496 9  -4426614.10447  20733069.175    20733071.1594
 01  7 12 17 18  0.0000000  0  9 23 15 03 06 21 26 22 17 18
  20554366.631    -2652483.144 9  -1939265.32547  20554366.108    20554369.0524
  20542201.683    -3944473.047 9  -3063641.29547  20542200.990    20542204.3404
  24116714.457    -4779195.769 7  -3711427.51245  24116713.986    24116718.9594
  21485025.502     5125799.531 8   3929979.31147  21485025.236    21485028.5284
  23461576.212    -7691620.737 8  -5975498.09346  23461575.690    23461581.0244
  22086789.151    -2375220.393 8  -1842613.99146  22086789.264    22086793.0474
  22895223.539     -914246.054 8   -639118.94446  22895222.697    22895226.9324
  20438307.742    -2121104.592 9  -1646485.35047  20438307.164    20438310.2834
  20723556.411    -5757508.504 9  -4465568.91147  20723555.951    20723557.9924
 01  7 12 17 18 30.0000000  0  9 23 15 03 06 21 26 22 17 18
  20553534.393    -2656857.066 9  -1942673.57347  20553533.815    20553536.7034
  20536648.955    -3973652.939 9  -3086378.86847  20536648.314    20536651.6074
  24097580.291    -4879747.325 7  -3789779.31545  24097579.583    24097584.7934
  21499026.528     5199375.610 8   3987311.27347  21499026.284    21499029.8014
  23445125.367    -7778069.221 8  -6042860.49146  23445125.018    23445130.2684
  22087253.798    -2372778.292 8  -1840711.06946  22087253.982    22087258.0104
  22899562.462     -891444.279 8   -621351.40046  22899561.554    22899566.1094
  20438186.651    -2121740.879 9  -1646981.17547  20438186.048    20438189.1934
  20714132.053    -5807034.087 9  -4504160.25747  20714131.555    20714133.5464
 01  7 12 17 19  0.0000000  0  9 23 15 03 06 21 26 22 17 18
  20552789.748    -2660770.123 9  -1945722.71247  20552789.180    20552792.0754
  20531148.074    -4002560.558 9  -3108904.29247  20531147.382    20531150.7154
  24078469.373    -4980172.279 7  -3868032.52345  24078469.193    24078474.6834
  21513101.987     5273342.425 8   4044947.69047  21513101.750    21513105.3134
  23428715.687    -7864301.781 8  -6110054.62946  23428715.408    23428720.7944
  22087840.380    -2369696.213 8  -1838309.48446  22087840.477    22087844.4334
  22904000.727     -868121.650 8   -603177.97446  22903999.921    22904004.3054
  20438114.206    -2122121.180 9  -1647277.52647  20438113.628    20438116.7814
  20704796.657    -5856091.621 9  -4542386.91147  20704796.238    20704798.1744
 01  7 12 17 19 30.0000000  0  9 23 15 03 06 21 26 22 17 18
  20552132.475    -2664224.087 9  -1948414.12047  20552131.915    20552134.8114
  20525698.915    -4031196.360 9  -3131217.90647  20525698.195    20525701.4404
  24059383.874    -5080469.303 7  -3946186.00545  24059383.375    24059388.6684
  21527251.324     5347698.009 8   4102887.06447  21527251.144    21527254.7794
  23412347.313    -7950318.054 8  -6177080.24046  23412346.960    23412352.4234
  22088548.466    -2365974.828 8  -1835409.69846  22088548.616    22088552.7364
  22908537.730     -844280.243 8   -584600.29646  22908536.761    22908540.9704
  20438090.384    -2122246.216 9  -1647374.97347  20438089.805    20438092.9334
  20695550.373    -5904681.329 9  -4580249.01047  20695549.909    20695551.8654
 01  7 12 17 20  0.0000000  0  9 23 15 03 06 21 26 22 17 18
  20551562.291    -2667220.501 9  -1950748.99647  20551561.760    20551564.6034
  20520301.306    -4059560.911 9  -3153320.15747  20520300.572    20520303.8734
  24040322.952    -5180636.866 7  -4024238.59045  24040321.952    24040327.2934
  21541474.458     5422440.325 8   4161127.77247  21541474.288    21541477.8804
  23396020.297    -8036117.732 8  -6243937.07746  23396019.803    23396025.2764
  22089378.432    -2361614.575 8  -1832012.11946  22089378.491    22089382.4324
  22913172.769     -819921.777 8   -565619.73546  22913172.110    22913176.4354
  20438114.969    -2122116.808 9  -1647274.14947  20438114.408    20438117.5244
  20686393.053    -5952803.095 9  -4617746.46947  20686392.628    20686394.6354
 01  7 12 17 20 30.0000000  0  9 23 15 03 06 21 26 22 17 18
  20551079.166    -2669759.391 9  -1952727.35647  20551078.614    20551081.5104
  20514955.473    -4087653.117 9  -3175210.18847  20514954.763    20514958.0354
  24021286.122    -5280672.003 7  -4102188.03245  24021285.681    24021291.1764
  21555770.872     5497568.651 8   4219669.26347  21555770.681    21555774.3764
  23379734.878    -8121698.781 8  -6310623.56746  23379734.356    23379739.6534
  22090329.817    -2356614.441 8  -1828115.89846  22090329.903    22090333.7674
  22917906.468     -795047.030 8   -546236.85846  22917905.754    22917910.0244
  20438188.221    -2121731.850 9  -1646974.19947  20438187.657    20438190.7574
  20677325.139    -6000455.690 9  -4654878.35247  20677324.666    20677326.5824
 01  7 12 17 21  0.0000000  0  9 23 15 03 06 21 26 22 17 18
  20550683.052    -2671840.928 9  -1954349.33747  20550682.519    20550685.4124
  20509661.604    -4115471.938 9  -3196887.18947  20509660.927    20509664.2824
  24002275.533    -5380571.865 7  -4180032.05045  24002275.290    24002280.8344
  21570140.602     5573082.589 8   4278511.24447  21570140.472    21570144.3364
  23363491.339    -8207059.182 8  -6377138.09846  23363490.831    23363496.0354
  22091403.308    -2350973.627 8  -1823720.44646  22091403.350    22091407.1594
  22922737.626     -769657.279 8   -526452.69146  22922737.119    22922741.2854
  20438310.239    -2121090.622 9  -1646474.55547  20438309.703    20438312.8014
  20668346.603    -6047637.954 9  -4691643.72947  20668346.142    20668348.1234
 01  7 12 17 21 30.0000000  0  9 23 15 03 06 21 26 22 17 18
  20550373.674    -2673466.697 9  -1955616.18147  20550373.143    20550376.0534
  20504419.740    -4143018.087 9  -3218351.72647  20504419.056    20504422.4364
  23983291.676    -5480334.636 8  -4257769.26545  23983291.472    23983296.5044
  21584583.566     5648980.144 8   4337652.13447  21584583.364    21584587.2614
  23347289.699    -8292199.112 8  -6443480.84846  23347289.198    23347294.3254
  22092598.564    -2344692.544 8  -1818826.09646  22092598.692    22092602.3224
  22927666.629     -743755.083 8   -506269.21046  22927666.197    22927670.5644
  20438480.896    -2120193.779 9  -1645775.72747  20438480.365    20438483.5254
  20659457.645    -6094350.019 9  -4728042.72947  20659457.125    20659459.1094
 01  7 12 17 22  0.0000000  0  9 23 15 03 06 21 26 22 17 18
  20550150.621    -2674638.834 9  -1956529.54347  20550150.087    20550153.0114
  20499229.609    -4170292.263 9  -3239604.33547  20499228.949    20499232.3804
  23964334.707    -5579959.485 8  -4335398.95645  23964333.827    23964338.3384
  21599098.968     5725258.717 8   4397089.93247  21599098.705    21599102.4594
  23331129.804    -8377118.315 8  -6509651.60546  23331129.505    23331134.6594
  22093915.788    -2337772.191 8  -1813433.61746  22093915.760    22093919.2444
  22932693.131     -717342.426 8   -485688.00246  22932692.447    22932696.8614
  20438700.057    -2119042.209 9  -1644878.41347  20438699.503    20438702.6584
  20650658.022    -6140592.451 9  -4764075.78447  20650657.477    20650659.4504
 01  7 12 17 22 30.0000000  0  9 23 15 03 06 21 26 22 17 18
  20550013.909    -2675357.165 9  -1957089.29347  20550013.382    20550016.3104
  20494091.609    -4197293.108 9  -3260643.96247  20494090.906    20494094.3774
  23945403.323    -5679443.311 7  -4412918.79745  23945402.533    23945407.1744
  21613686.758     5801918.130 8   4456824.49747  21613686.496    21613690.2824
  23315012.722    -8461814.885 8  -6575648.86946  23315012.233    23315017.3604
  22095354.142    -2330211.610 8  -1807542.24446  22095354.314    22095358.0104
  22937816.452     -690419.769 8   -464709.35546  22937815.701    22937819.8374
  20438967.843    -2117634.782 9  -1643781.73547  20438967.317    20438970.5604
  20641948.107    -6186363.407 9  -4799741.45447  20641947.547    20641949.5414
 01  7 12 17 23  0.0000000  0  9 23 15 03 06 21 26 22 17 18
  20549963.583    -2675621.854 9  -1957295.55047  20549963.057    20549966.0344
  20489005.783    -4224019.575 9  -3281469.78247  20489005.087    20489008.5174
  23926499.133    -5778782.855 7  -4490326.18545  23926498.660    23926503.6314
  21628346.940     5878957.736 8   4516855.30147  21628346.757    21628350.4924
  23298938.498    -8546286.741 8  -6641471.01046  23298937.651    23298942.8924
  22096915.283    -2322009.732 8  -1801151.21246  22096915.293    22096918.7314
  22943036.567     -662988.043 8   -443334.05046  22943035.737    22943040.1854
  20439284.566    -2115970.669 9  -1642485.03347  20439284.028    20439287.2984
  20633328.074    -6231661.725 9  -4835038.84147  20633327.565    20633329.5454
 01  7 12 17 23 30.0000000  0  9 23 15 03 06 21 26 22 17 18
  20549999.200    -2675434.620 9  -1957149.66447  20549998.692    20550001.6664
  20483972.101    -4250472.203 9  -3302082.23247  20483971.382    20483974.8024
  23907622.855    -5877976.658 7  -4567620.01945  23907622.608    23907627.8514
  21643079.196     5956375.319 8   4577180.63047  21643078.898    21643082.6594
  23282906.694    -8630533.204 8  -6707117.54346  23282906.020    23282911.2124
  22098597.757    -2313167.513 8  -1794261.16846  22098597.740    22098601.4714
  22948353.201     -635050.174 8   -421564.38346  22948352.126    22948356.8124
  20439649.930    -2114050.658 9  -1640988.93847  20439649.395    20439652.6434
  20624798.028    -6276487.560 9  -4869968.05647  20624797.480    20624799.4354
 01  7 12 17 24  0.0000000  0  9 23 15 03 06 21 26 22 17 18
  20550120.945    -2674795.166 9  -1956651.39747  20550120.438    20550123.3544
  20478990.737    -4276649.654 9  -3322480.25047  20478990.050    20478993.4324
  23888775.254    -5977021.443 7  -4644797.75245  23888775.015    23888780.0784
  21657883.104     6034170.570 8   4637800.25647  21657882.849    21657886.7514
  23266918.219    -8714552.938 8  -6772587.42446  23266917.658    23266922.6784
  22100402.343    -2303683.712 8  -1786871.23446  22100402.389    22100406.1614
  22953765.826     -606606.825 8   -399400.79946  22953764.859    22953769.1134
  20440064.278    -2111873.394 9  -1639292.38347  20440063.758    20440066.9984
  20616358.122    -6320839.592 9  -4904528.07747  20616357.563    20616359.5054
 01  7 12 17 24 30.0000000  0  9 23 15 03 06 21 26 22 17 18
  20550328.128    -2673706.294 9  -1955802.93947  20550327.614    20550330.5634
  20474061.406    -4302553.462 9  -3342665.04547  20474060.673    20474064.0944
  23869955.913    -6075916.827 7  -4721859.04845  23869955.854    23869960.5124
  21672758.399     6112340.410 8   4698711.75047  21672758.171    21672762.0094
  23250973.089    -8798346.140 8  -6837880.78546  23250972.397    23250977.2194
  22102329.056    -2293560.211 8  -1778982.84246  22102329.016    22102332.4924
  22959274.263     -577660.802 8   -376845.53646  22959273.106    22959277.2884
  20440527.272    -2109440.460 9  -1637396.60347  20440526.738    20440529.9764
  20608008.113    -6364718.922 9  -4938719.74847  20608007.603    20608009.5884
 01  7 12 17 25  0.0000000  0  9 23 15 03 06 21 26 22 17 18
  20550620.911    -2672168.100 9  -1954604.36247  20550620.381    20550623.2794
  20469184.323    -4328182.441 9  -3362635.67847  20469183.629    20469186.9944
  23851166.168    -6174659.587 7  -4798801.40245  23851165.791    23851170.3074
  21687704.804     6190884.260 8   4759914.69847  21687704.585    21687708.4954
  23235071.215    -8881910.797 8  -6902996.05446  23235070.516    23235075.3874
  22104377.057    -2282796.108 8  -1770595.23446  22104377.198    22104381.0194
  22964877.991     -548212.681 8   -353899.02946  22964876.996    22964881.4894
  20441039.110    -2106750.993 9  -1635300.92847  20441038.593    20441041.7794
  20599748.465    -6408124.152 9  -4972541.99547  20599747.881    20599749.8194
 01  7 12 17 25 30.0000000  0  9 23 15 03 06 21 26 22 17 18
  20550999.004    -2670181.570 9  -1953056.42347  20550998.430    20551001.2924
  20464359.569    -4353536.305 9  -3382391.94647  20464358.909    20464362.3564
  23832405.641    -6273247.411 8  -4875623.06245  23832405.209    23832409.7334
  21702722.029     6269800.703 8   4821407.95747  21702721.868    21702725.8164
  23219212.937    -8965245.938 8  -6967932.48046  23219212.274    23219217.2974
  22106547.487    -2271391.472 8  -1761708.51946  22106547.545    22106551.3294
  22970576.923     -518264.601 8   -330562.91446  22970575.961    22970580.4594
  20441599.924    -2103804.720 9  -1633005.14647  20441599.355    20441602.5304
  20591579.042    -6451054.970 9  -5005994.57547  20591578.427    20591580.3064
 01  7 12 17 26  0.0000000  0  9 23 15 03 06 21 26 22 17 18
  20551462.172    -2667747.902 9  -1951160.07047  20551461.589    20551464.4384
  20459587.238    -4378614.866 9  -3401933.67847  20459586.593    20459589.9734
  23813675.225    -6371678.166 7  -4952322.29645  23813674.576    23813678.9274
  21717810.028     6349088.150 8   4883190.32047  21717809.863    21717813.7054
  23203398.463    -9048350.897 8  -7032689.53246  23203397.822    23203403.0184
  22108839.505    -2259346.731 8  -1752322.99946  22108839.579    22108843.3594
  22976370.534     -487818.881 8   -306839.02346  22976369.700    22976374.0484
  20442209.544    -2100601.665 9  -1630509.27747  20442208.963    20442212.1044
  20583499.854    -6493511.016 9  -5039077.20347  20583499.320    20583501.2224
 01  7 12 17 26 30.0000000  0  9 23 15 03 06 21 26 22 17 18
  20552010.255    -2664867.845 9  -1948915.88247  20552009.650    20552012.5074
  20454867.466    -4403417.704 9  -3421260.57247  20454866.820    20454870.1564
  23794974.674    -6469949.646 8  -5028897.42445  23794973.993    23794978.4284
  21732968.363     6428745.302 8   4945260.79047  21732968.119    21732972.0124
  23187627.804    -9131224.548 8  -7097266.34946  23187627.320    23187632.6784
  22111253.471    -2246661.729 8  -1742438.58746  22111253.547    22111257.2824
  22982258.857     -456876.790 8   -282728.33346  22982257.844    22982262.4444
  20442868.064    -2097141.708 9  -1627813.21247  20442867.457    20442870.5224
  20575511.182    -6535491.803 9  -5071789.49547  20575510.670    20575512.5634
 01  7 12 17 27  0.0000000  0  9 23 15 03 06 21 26 22 17 18
  20552643.008    -2661542.547 9  -1946324.75547  20552642.442    20552645.2814
  20450200.254    -4427944.721 9  -3440372.53847  20450199.551    20450202.7764
  23776304.891    -6568059.509 7  -5105346.63345  23776304.097    23776308.8574
  21748196.882     6508770.652 8   5007618.13747  21748196.607    21748200.4114
  23171901.551    -9213866.076 8  -7161662.29646  23171901.017    23171906.4794
  22113789.217    -2233336.900 8  -1732055.60246  22113789.242    22113792.9584
  22988241.125     -425439.662 8   -258231.95446  22988240.202    22988244.7494
  20443575.465    -2093424.733 9  -1624916.89147  20443574.788    20443577.8724
  20567613.037    -6576997.015 9  -5104131.21347  20567612.498    20567614.4024
 01  7 12 17 27 30.0000000  0  9 23 15 03 06 21 26 22 17 18
  20553360.395    -2657772.464 9  -1943387.04047  20553359.865    20553362.6944
  20445585.701    -4452194.767 9  -3459268.68147  20445585.006    20445588.1554
  23757666.307    -6666004.622 8  -5181667.45845  23757665.720    23757670.4624
  21763495.189     6589163.505 8   5070261.84947  21763494.966    21763498.6314
  23156219.737    -9296273.696 8  -7225875.99546  23156219.233    23156224.6444
  22116446.624    -2219371.436 8  -1721173.43846  22116446.792    22116450.4434
  22994317.412     -393508.695 8   -233350.63446  22994316.536    22994320.8724
  20444331.851    -2089449.898 9  -1621819.64047  20444331.184    20444334.3084
  20559805.693    -6618025.496 9  -5136101.44747  20559805.063    20559806.9214
 01  7 12 17 28  0.0000000  0  9 23 15 03 06 21 26 22 17 18
  20554162.226    -2653559.226 9  -1940104.01147  20554161.660    20554164.4994
  20441023.808    -4476168.250 9  -3477949.32847  20441023.074    20441026.0984
  23739059.386    -6763783.213 8  -5257858.54445  23739058.932    23739063.7144
  21778863.006     6669921.637 8   5133190.19847  21778862.787    21778866.3604
  23140582.654    -9378446.839 8  -7289906.98046  23140582.218    23140587.4324
  22119226.079    -2204766.490 8  -1709792.98046  22119226.069    22119229.7014
  23000487.036     -361087.237 8   -208087.30146  23000486.244    23000490.6244
  20445137.146    -2085217.809 9  -1618521.91347  20445136.497    20445139.6054
  20552088.685    -6658577.617 9  -5167700.50347  20552088.195    20552090.0994
 01  7 12 17 28 30.0000000  0  9 23 15 03 06 21 26 22 17 18
  20555048.062    -2648904.268 9  -1936476.77647  20555047.457    20555050.3044
  20436514.460    -4499865.482 9  -3496414.70347  20436513.676    20436516.6384
  23720484.746    -6861393.611 8  -5333918.56145  23720484.370    23720489.0764
  21794300.070     6751042.951 8   5196401.56047  21794299.850    21794303.2724
  23124990.287    -9460384.971 8  -7353754.81946  23124989.873    23124995.0434
  22122126.771    -2189522.622 8  -1697914.65846  22122126.810    22122130.6224
  23006750.004     -328177.057 8   -182443.03746  23006748.939    23006753.3864
  20445991.331    -2080728.630 9  -1615023.87747  20445990.715    20445993.8814
  20544462.471    -6698653.350 9  -5198928.33647  20544462.055    20544463.9954
 01  7 12 17 29  0.0000000  0  9 23 15 03 06 21 26 22 17 18
  20556017.676    -2643808.579 9  -1932506.12347  20556017.135    20556019.9824
  20432057.673    -4523286.175 9  -3514664.60147  20432056.901    20432059.8484
  23701942.631    -6958833.581 8  -5409845.78545  23701942.307    23701946.8344
  21809805.971     6832526.243 8   5259894.98047  21809805.606    21809809.0624
  23109442.945    -9542087.015 8  -7417418.68546  23109442.486    23109447.7144
  22125149.139    -2173640.067 8  -1685538.65546  22125149.178    22125152.9514
  23013105.263     -294779.621 8   -156419.07446  23013104.260    23013108.5384
  20446894.599    -2075982.135 9  -1611325.32347  20446893.940    20446897.1504
  20536927.049    -6738252.169 9  -5229784.56347  20536926.691    20536928.5594
 01  7 12 17 29 30.0000000  0  9 23 15 03 06 21 26 22 17 18
  20557071.149    -2638272.582 9  -1928192.37447  20557070.636    20557073.4914
  20427653.664    -4546429.383 9  -3532698.26947  20427652.850    20427655.8334
  23683433.358    -7056100.310 8  -5485637.99345  23683433.080    23683437.3674
  21825380.166     6914370.599 8   5323669.73246  21825379.914    21825383.6384
  23093940.613    -9623551.625 8  -7480897.55846  23093940.308    23093945.5414
  22128293.175    -2157118.529 8  -1672664.77446  22128293.241    22128296.9444
  23019553.448     -260895.921 8   -130016.22846  23019552.186    23019556.4634
  20447846.890    -2070977.612 9  -1607425.71147  20447846.261    20447849.4664
  20529482.739    -6777373.257 9  -5260268.52947  20529482.245    20529484.0514
 01  7 12 17 30  0.0000000  0  9 23 15 03 06 21 26 22 17 18
  20558208.134    -2632298.025 9  -1923536.88347  20558207.579    20558210.4224
  20423302.380    -4569295.304 9  -3550515.87847  20423301.613    20423304.6564
  23664957.597    -7153191.658 8  -5561293.54845  23664957.231    23664961.5254
  21841023.019     6996573.912 8   5387724.16446  21841022.784    21841026.4674
  23078483.646    -9704778.387 8  -7544191.08646  23078483.429    23078488.6934
  22131558.542    -2139959.068 8  -1659293.78046  22131558.541    22131562.2164
  23026093.544     -226529.060 8   -103236.94246  23026092.128    23026096.4174
  20448848.209    -2065715.521 9  -1603325.39447  20448847.607    20448850.8194
  20522128.993    -6816017.081 9  -5290380.60147  20522128.546    20522130.4224
 01  7 12 17 30 30.0000000  0  9 23 15 03 06 21 26 22 17 18
  20559428.478    -2625885.104 9  -1918539.82147  20559427.944    20559430.7414
  20419004.047    -4591882.945 9  -3568116.63947  20419003.278    20419006.3394
  23646515.698    -7250104.651 7  -5636810.14145  23646515.258    23646519.5574
  21856734.129     7079135.407 8   5452057.73546  21856733.768    21856737.4504
  23063072.584    -9785765.481 8  -7607297.84946  23063072.088    23063077.4074
  22134945.056    -2122161.106 8  -1645425.24446  22134945.296    22134949.0314
  23032724.912     -191680.342 8    -76082.15946  23032723.656    23032727.8214
  20449898.796    -2060194.980 9  -1599023.69447  20449898.190    20449901.4154
  20514866.517    -6854182.473 9  -5320119.87248  20514865.984    20514867.7524
 01  7 12 17 31  0.0000000  0  9 23 15 03 06 21 26 22 17 18
  20560731.963    -2619035.345 9  -1913202.36048  20560731.402    20560734.2444
  20414758.713    -4614192.071 9  -3585500.38047  20414757.977    20414761.1124
  23628107.724    -7346837.263 8  -5712186.14445  23628107.542    23628111.8264
  21872512.835     7162053.245 8   5516669.00246  21872512.564    21872516.1304
  23047706.899    -9866512.061 8  -7670217.21546  23047706.385    23047711.7594
  22138453.581    -2103725.366 8  -1631059.75246  22138453.558    22138457.4064
  23039447.701     -156351.448 8    -48553.19745  23039446.513    23039450.7074
  20450998.557    -2054415.877 9  -1594520.52247  20450997.919    20451001.1584
  20507694.900    -6891869.264 9  -5349486.20347  20507694.389    20507696.2284
 01  7 12 17 31 30.0000000  0  9 23 15 03 06 21 26 22 17 18
  20562118.147    -2611750.713 9  -1907526.03647  20562117.632    20562120.4654
  20410566.184    -4636223.103 9  -3602667.41647  20410565.490    20410568.7464
  23609735.163    -7443387.812 8  -5787420.26245  23609734.780    23609739.0574
  21888358.980     7245325.188 8   5581556.15946  21888358.725    21888362.3464
  23032386.750    -9947018.113 8  -7732949.14046  23032386.431    23032391.9854
  22142082.776    -2084653.039 8  -1616198.20546  22142082.845    22142086.7554
  23046261.724     -120544.892 8    -20652.05146  23046260.545    23046264.6134
  20452147.405    -2048378.938 9  -1589816.42147  20452146.754    20452149.9924
  20500614.277    -6929078.077 9  -5378480.08247  20500613.761    20500615.6214
 01  7 12 17 32  0.0000000  0  9 23 15 03 06 21 26 22 17 18
  20563587.150    -2604031.192 9  -1901510.84347  20563586.645    20563589.4544
  20406426.894    -4657974.978 9  -3619616.93347  20406426.245    20406429.5944
  23591397.765    -7539752.889 8  -5862509.87245  23591397.225    23591401.6654
  21904272.271     7328950.565 8   5646718.70846  21904272.088    21904275.8804
  23017112.900   -10027281.883 8  -7795492.27346  23017112.415    23017118.2544
  22145833.478    -2064943.525 8  -1600840.12046  22145833.519    22145837.4794
  23053166.138      -84261.562 8      7620.63146  23053164.977    23053169.3044
  20453345.528    -2042082.985 9  -1584910.50247  20453344.874    20453348.1124
  20493624.803    -6965807.666 9  -5407100.55547  20493624.349    20493626.1674
 01  7 12 17 32 30.0000000  0  9 23 15 03 06 21 26 22 17 18
  20565138.669    -2595877.913 9  -1895157.64948  20565138.161    20565141.0314
  20402340.825    -4679447.293 9  -3636348.61647  20402340.194    20402343.5624
  23573095.745    -7635930.447 8  -5937453.38345  23573095.216    23573099.7224
  21920252.768     7412927.805 8   5712155.43546  21920252.574    21920256.2224
  23001885.604   -10107302.178 8  -7857845.68446  23001884.977    23001890.9114
  22149705.062    -2044597.370 8  -1584985.97746  22149705.178    22149709.3434
  23060160.387      -47503.863 8     36262.91246  23060159.573    23060163.9674
  20454592.942    -2035527.779 9  -1579802.57347  20454592.320    20454595.6184
  20486726.686    -7002057.702 9  -5435347.32848  20486726.225    20486728.0484
 01  7 12 17 33  0.0000000  0  9 23 15 03 06 21 26 22 17 18
  20566772.260    -2587293.325 9  -1888468.37547  20566771.770    20566774.6454
  20398307.932    -4700640.942 9  -3652863.14647  20398307.236    20398310.6154
  23554829.280    -7731919.027 8  -6012249.62845  23554828.922    23554833.6234
  21936299.748     7497254.112 8   5777864.16847  21936299.486    21936303.1024
  22986704.679   -10187079.121 8  -7920009.49846  22986703.996    22986709.6104
  22153697.960    -2023616.167 8  -1568637.00846  22153697.974    22153701.5894
  23067245.405      -10275.257 8     65272.17346  23067244.309    23067248.1694
  20455889.506    -2028714.377 9  -1574493.43447  20455888.893    20455892.1254
  20479919.482    -7037829.277 9  -5463221.28448  20479919.087    20479920.9554
 01  7 12 17 33 30.0000000  0  9 23 15 03 06 21 26 22 17 18
  20568487.936    -2578277.637 9  -1881443.18847  20568487.412    20568490.2894
  20394328.224    -4721554.592 9  -3669159.50247  20394327.531    20394330.9224
  23536599.503    -7827715.397 8  -6086896.11645  23536599.321    23536603.9904
  21952412.918     7581928.882 8   5843844.44247  21952412.641    21952416.3454
  22971570.126   -10266611.247 8  -7981982.57346  22971569.634    22971574.9324
  22157811.153    -2001999.540 8  -1551792.86046  22157811.277    22157815.2954
  23074419.108       27423.868 8     94648.04346  23074418.133    23074422.3774
  20457235.391    -2021641.661 9  -1568982.24547  20457234.761    20457238.0614
  20473203.710    -7073121.219 9  -5490721.49748  20473203.306    20473205.1124
 01  7 12 17 34  0.0000000  0  9 23 15 03 06 21 26 22 17 18
  20570285.445    -2568831.850 9  -1874082.84348  20570284.888    20570287.8204
  20390401.995    -4742187.644 9  -3685237.21247  20390401.259    20390404.5844
  23518407.369    -7923317.112 8  -6161390.90445  23518406.986    23518411.4844
  21968592.113     7666950.623 8   5910095.07146  21968591.791    21968595.6294
  22956482.705   -10345897.330 8  -8043763.89346  22956482.078    22956487.1214
  22162045.710    -1979748.067 8  -1534454.11146  22162045.745    22162049.6484
  23081682.401       65591.793 8    124389.23045  23081681.354    23081685.4694
  20458630.675    -2014309.364 9  -1563268.78447  20458630.115    20458633.3654
  20466579.194    -7107933.100 9  -5517847.64947  20466578.812    20466580.5994
 01  7 12 17 34 30.0000000  0  9 23 15 03 06 21 26 22 17 18
  20572164.341    -2558958.450 9  -1866389.30947  20572163.767    20572166.6944
  20386528.763    -4762541.385 9  -3701097.27747  20386528.100    20386531.4494
  23500252.170    -8018723.111 8  -6235733.19045  23500251.555    23500256.2504
  21984836.553     7752316.359 8   5976613.75546  21984836.294    21984840.3584
  22941442.003   -10424937.701 8  -8105353.73346  22941441.171    22941446.2464
  22166400.308    -1956863.607 8  -1516622.08746  22166400.390    22166404.1754
  23089034.356      104224.982 8    154492.98745  23089032.966    23089037.0204
  20460075.150    -2006718.565 9  -1557353.88347  20460074.585    20460077.8534
  20460045.897    -7142266.219 9  -5544600.71548  20460045.445    20460047.2854
 01  7 12 17 35  0.0000000  0  9 23 15 03 06 21 26 22 17 18
  20574124.584    -2548656.610 9  -1858361.91747  20574124.080    20574127.0764
  20382709.259    -4782613.463 9  -3716737.85947  20382708.545    20382711.8494
  23482134.785    -8113929.155 8  -6309919.68445  23482134.396    23482138.9964
  22001146.885     7838026.611 8   6043400.87346  22001146.573    22001150.5454
  22926448.048   -10503729.648 8  -8166750.01546  22926447.580    22926452.6724
  22170876.017    -1933344.552 8  -1498295.58346  22170876.082    22170879.9354
  23096473.871      143322.863 8    184958.81646  23096472.915    23096477.6204
  20461569.257    -1998867.052 9  -1551235.84347  20461568.691    20461571.9844
  20453604.067    -7176118.275 9  -5570978.95148  20453603.625    20453605.5014
 01  7 12 17 35 30.0000000  0  9 23 15 03 06 21 26 22 17 18
  20576166.158    -2537928.553 9  -1850002.40748  20576165.657    20576168.5944
  20378943.119    -4802404.808 9  -3732159.68847  20378942.412    20378945.6704
  23464056.181    -8208933.726 8  -6383949.16645  23464055.672    23464060.2164
  22017521.945     7924078.660 8   6110454.33846  22017521.667    22017525.7214
  22911501.584   -10582273.401 8  -8227952.87446  22911501.178    22911506.4334
  22175471.704    -1909192.951 8  -1479476.16446  22175471.840    22175475.7714
  23104002.217      182882.709 8    215784.60646  23104000.993    23104005.5524
  20463112.755    -1990755.718 9  -1544915.33347  20463112.182    20463115.4644
  20447253.558    -7209490.277 9  -5596983.10847  20447253.112    20447255.0274
 01  7 12 17 36  0.0000000  0  9 23 15 03 06 21 26 22 17 18
  20578288.548    -2526775.225 9  -1841311.52347  20578288.028    20578291.0094
  20375230.632    -4821914.400 9  -3747361.97847  20375229.882    20375233.0404
  23446016.084    -8303734.040 8  -6457819.49745  23446015.651    23446020.4944
  22033961.872     8010471.235 8   6177773.14046  22033961.665    22033965.8744
  22896602.597   -10660567.367 8  -8288961.11546  22896602.073    22896607.6094
  22180188.232    -1884408.829 8  -1460163.91446  22180188.265    22180191.9634
  23111617.451      222903.025 8    246969.23346  23111616.561    23111620.9734
  20464705.889    -1982384.060 9  -1538391.98147  20464705.309    20464708.5644
  20440994.476    -7242381.768 9  -5622612.84748  20440994.064    20440995.9484
 01  7 12 17 36 30.0000000  0  9 23 15 03 06 21 26 22 17 18
  20580491.674    -2515198.278 9  -1832290.54048  20580491.103    20580494.0524
  20371571.798    -4841142.128 9  -3762344.63047  20371571.045    20371574.1054
  23428015.238    -8398328.151 8  -6531529.16645  23428015.202    23428020.0974
  22050466.401     8097202.166 8   6245355.61246  22050466.170    22050470.1214
  22881751.082   -10738611.118 8  -8349774.36346  22881750.644    22881756.3074
  22185024.503    -1858993.558 8  -1440359.78946  22185024.547    22185028.4484
  23119320.017      263381.530 8    278510.86546  23119319.158    23119324.1954
  20466348.491    -1973752.187 9  -1531665.86347  20466347.882    20466351.1604
  20434826.912    -7274792.769 9  -5647868.17948  20434826.464    20434828.3844
 01  7 12 17 37  0.0000000  0  9 23 15 03 06 21 26 22 17 18
  20582774.867    -2503199.660 9  -1822940.97547  20582774.332    20582777.3104
  20367966.489    -4860088.538 9  -3777108.07347  20367965.711    20367968.7094
  23410054.734    -8492714.436 8  -6605076.85145  23410054.127    23410059.0474
  22067034.673     8184269.352 8   6313200.09946  22067034.510    22067038.3944
  22866947.588   -10816404.552 8  -8410392.56946  22866947.111    22866952.7134
  22189980.938    -1832948.196 8  -1420064.75246  22189980.975    22189984.5804
  23127109.635      304314.890 8    310406.89646  23127108.705    23127113.6654
  20468040.432    -1964860.581 9  -1524737.35747  20468039.891    20468043.1704
  20428750.562    -7306724.212 9  -5672749.82548  20428750.140    20428752.0534
 01  7 12 17 37 30.0000000  0  9 23 15 03 06 21 26 22 17 18
  20585138.235    -2490780.586 9  -1813263.80548  20585137.676    20585140.6094
  20364414.749    -4878753.288 9  -3791652.03947  20364413.969    20364416.9504
  23392133.519    -8586890.484 8  -6678460.75745  23392132.943    23392137.8184
  22083666.872     8271670.991 8   6381305.18146  22083666.616    22083670.6354
  22852192.058   -10893947.156 8  -8470815.34346  22852191.406    22852196.7704
  22195056.925    -1806273.783 8  -1399279.49646  22195056.882    22195060.5444
  23134985.144      345700.781 8    342655.61146  23134984.204    23134989.0134
  20469781.908    -1955709.143 9  -1517606.37247  20469781.375    20469784.6024
  20422765.520    -7338176.056 9  -5697257.74748  20422765.004    20422766.9414
 01  7 12 17 38  0.0000000  0  9 23 15 03 06 21 26 22 17 18
  20587581.485    -2477940.682 9  -1803258.69047  20587580.994    20587583.9984
  20360916.905    -4897134.514 9  -3805975.08147  20360916.091    20360919.1154
  23374253.230    -8680852.202 8  -6751677.62045  23374252.622    23374257.3364
  22100362.335     8359406.680 8   6449670.57446  22100362.108    22100366.2004
  22837484.584   -10971236.462 8  -8531040.75646  22837484.018    22837489.0884
  22200252.646    -1778969.484 8  -1378003.42446  22200252.675    22200256.5064
  23142946.380      387539.082 8    375256.81146  23142945.632    23142950.8264
  20471573.258    -1946296.058 9  -1510271.52047  20471572.665    20471575.8754
  20416871.957    -7369146.514 9  -5721390.57748  20416871.574    20416873.4704
 01  7 12 17 38 30.0000000  0  9 23 15 03 06 21 26 22 17 18
  20590104.424    -2464682.888 9  -1792927.96547  20590103.938    20590106.8504
  20357472.708    -4915233.494 9  -3820078.18647  20357471.945    20357475.0174
  23356413.656    -8774598.945 8  -6824726.97945  23356413.013    23356417.7504
  22117120.927     8447473.248 8   6518293.79146  22117120.715    22117124.6874
  22822825.198   -11048272.801 8  -8591069.03546  22822824.638    22822829.4504
  22205567.917    -1751037.765 8  -1356238.46846  22205567.886    22205571.5444
  23150993.943      429826.310 8    408207.82646  23150992.890    23150997.9044
  20473414.051    -1936622.737 9  -1502733.88647  20473413.471    20473416.6244
  20411069.890    -7399637.138 9  -5745149.50048  20411069.391    20411071.2894
 01  7 12 17 39  0.0000000  0  9 23 15 03 06 21 26 22 17 18
  20592706.880    -2451006.999 9  -1782271.43548  20592706.346    20592709.3054
  20354082.667    -4933048.361 9  -3833959.91347  20354081.893    20354085.0044
  23338615.687    -8868126.397 8  -6897605.49545  23338615.223    23338619.9284
  22133942.630     8535870.712 8   6587174.86546  22133942.310    22133946.4814
  22808213.885   -11125053.814 8  -8650898.34146  22808213.483    22808218.3284
  22211002.704    -1722477.737 8  -1333983.90146  22211002.703    22211006.4474
  23159125.780      472561.721 8    441508.10146  23159125.082    23159130.0364
  20475304.801    -1926687.293 9  -1494991.99147  20475304.182    20475307.2544
  20405359.367    -7429646.160 9  -5768533.16248  20405358.934    20405360.7244
 01  7 12 17 39 30.0000000  0  9 23 15 03 06 21 26 22 17 18
  20595388.549    -2436915.061 9  -1771290.72548  20595388.019    20595390.9264
  20350746.542    -4950579.708 9  -3847620.70947  20350745.782    20350748.9124
  23320859.847    -8961433.261 8  -6970312.10145  23320859.495    23320863.9864
  22150826.694     8624596.408 8   6656311.68146  22150826.442    22150830.5084
  22793651.341   -11201579.634 8  -8710528.79546  22793650.884    22793655.7814
  22216556.799    -1693291.268 8  -1311241.20746  22216556.798    22216560.3824
  23167342.290      515741.785 8    475154.84846  23167341.932    23167346.9984
  20477245.209    -1916490.573 9  -1487046.51847  20477244.598    20477247.6714
  20399740.325    -7459174.611 9  -5791542.34447  20399739.824    20399741.6384
 01  7 12 17 40  0.0000000  0  9 23 15 03 06 21 26 22 17 18
  20598149.063    -2422408.539 9  -1759986.95147  20598148.509    20598151.4444
  20347464.382    -4967827.369 9  -3861060.45447  20347463.614    20347466.8444
  23303146.605    -9054517.323 8  -7042845.08145  23303146.237    23303150.5884
  22167772.747     8713648.475 8   6725702.81846  22167772.451    22167776.6254
  22779137.744   -11277849.617 8  -8769959.90546  22779137.152    22779142.0214
  22222229.883    -1663479.434 8  -1288011.20845  22222229.821    22222233.2924
  23175643.765      559364.211 8    509146.30246  23175643.206    23175648.2934
  20479235.399    -1906032.350 9  -1478897.27247  20479234.781    20479237.8334
  20394212.616    -7488222.839 9  -5814177.32548  20394212.161    20394214.0154
 01  7 12 17 40 30.0000000  0  9 23 15 03 06 21 26 22 17 18
  20600988.292    -2407488.726 9  -1748361.14148  20600987.723    20600990.6584
  20344236.372    -4984790.868 9  -3874278.77747  20344235.619    20344238.8064
  23285476.134    -9147376.099 8  -7115202.53745  23285475.781    23285480.1414
  22184780.521     8803025.146 8   6795346.87446  22184780.246    22184784.6724
  22764672.887   -11353863.164 8  -8829191.19246  22764672.305    22764677.2354
  22228021.792    -1633043.173 8  -1264294.65745  22228021.682    22228025.3804
  23184028.707      603427.284 8    543481.09146  23184028.151    23184033.3054
  20481275.368    -1895312.506 9  -1470544.16347  20481274.709    20481277.7504
  20388776.376    -7516790.928 9  -5836438.17348  20388775.834    20388777.6374
 01  7 12 17 41  0.0000000  0  9 23 15 03 06 21 26 22 17 18
  20603905.741    -2392157.365 9  -1736414.64048  20603905.143    20603908.1004
  20341062.430    -5001470.145 9  -3887275.62947  20341061.636    20341064.8494
  23267848.968    -9240007.538 8  -7187382.84645  23267848.653    23267852.9664
  22201849.989     8892724.356 8   6865242.27646  22201849.559    22201853.8524
  22750256.945   -11429619.532 8  -8888222.06146  22750256.395    22750261.4344
  22233932.124    -1601983.664 8  -1240092.46445  22233932.050    22233935.6544
  23192497.063      647928.534 8    578157.34346  23192496.598    23192501.5944
  20483365.051    -1884331.227 9  -1461987.33547  20483364.392    20483367.4464
  20383431.316    -7544878.757 9  -5858324.79248  20383430.874    20383432.6924
 01  7 12 17 41 30.0000000  0  9 23 15 03 06 21 26 22 17 18
  20606901.267    -2376415.650 9  -1724148.38348  20606900.719    20606903.6834
  20337942.603    -5017865.106 9  -3900050.93047  20337941.836    20337945.0674
  23250265.362    -9332409.171 8  -7259384.10345  23250265.206    23250269.6174
  22218980.406     8982744.473 8   6935387.75146  22218980.100    22218984.0704
  22735890.112   -11505118.036 8  -8947051.99646  22735889.451    22735894.5494
  22239961.090    -1570301.975 8  -1215405.40645  22239960.975    22239964.6214
  23201048.905      692865.258 8    613172.90046  23201047.918    23201052.8094
  20485504.577    -1873088.137 9  -1453226.50547  20485503.921    20485506.9984
  20378177.721    -7572486.654 9  -5879837.44148  20378177.282    20378179.0794
 01  7 12 17 42  0.0000000  0  9 23 15 03 06 21 26 22 17 18
  20609974.789    -2360264.746 9  -1711563.28148  20609974.192    20609977.1124
  20334877.035    -5033974.821 9  -3912603.96947  20334876.288    20334879.4974
  23232726.324    -9424578.171 8  -7331204.05345  23232726.039    23232730.4834
  22236171.505     9073084.146 8   7005782.21746  22236171.219    22236175.2814
  22721572.473   -11580357.917 8  -9005680.44346  22721571.803    22721576.7664
  22246108.369    -1537998.601 7  -1190233.98645  22246108.208    22246111.8234
  23209682.846      738235.359 8    648526.15946  23209681.721    23209686.5004
  20487693.928    -1861582.707 9  -1444261.25947  20487693.295    20487696.4334
  20373015.389    -7599614.464 9  -5900975.98748  20373014.975    20373016.8274
 01  7 12 17 42 30.0000000  0  9 23 15 03 06 21 26 22 17 18
  20613125.689    -2343706.416 9  -1698660.70047  20613125.100    20613128.0584
  20331865.742    -5049799.569 9  -3924934.95447  20331864.993    20331868.1684
  23215231.632    -9516512.507 8  -7402841.19046  23215231.380    23215235.9764
  22253422.847     9163740.829 8   7076423.67946  22253422.636    22253426.8124
  22707304.172   -11655338.901 8  -9064107.15146  22707303.501    22707308.1224
  22252373.513    -1505075.391 7  -1164579.50145  22252373.233    22252376.8354
  23218398.815      784036.433 8    684215.26346  23218397.578    23218402.2424
  20489933.242    -1849815.266 9  -1435091.83247  20489932.615    20489935.7104
  20367944.460    -7626262.516 9  -5921740.70648  20367944.056    20367945.8334
 01  7 12 17 43  0.0000000  0  9 23 15 03 06 21 26 22 17 18
  20616354.237    -2326740.290 9  -1685440.36248  20616353.675    20616356.6444
  20328909.003    -5065337.141 9  -3937042.16547  20328908.280    20328911.4744
  23197782.675    -9608208.328 8  -7474292.45246  23197782.469    23197786.8054
  22270734.597     9254714.553 8   7147312.19746  22270734.391    22270738.5764
  22693085.583   -11730057.950 8  -9122329.75446  22693084.894    22693089.2964
  22258756.774    -1471531.425 7  -1138441.41945  22258756.572    22258760.1494
  23227196.747      830268.284 8    720239.98046  23227195.326    23227199.9124
  20492222.692    -1837783.995 9  -1425716.83247  20492222.050    20492225.2334
  20362965.168    -7652429.436 9  -5942130.51348  20362964.683    20362966.4534
 01  7 12 17 43 30.0000000  0  9 23 15 03 06 21 26 22 17 18
  20619659.525    -2309370.635 9  -1671905.57747  20619658.977    20619661.9994
  20326006.435    -5080590.126 9  -3948927.61947  20326005.709    20326008.9754
  23180379.282    -9699665.757 8  -7545557.91845  23180378.608    23180382.9804
  22288105.875     9346000.594 8   7218444.08146  22288105.556    22288110.0054
  22678916.135   -11804517.424 8  -9180350.08246  22678915.644    22678920.0174
  22265257.563    -1437370.815 7  -1111822.75245  22265257.204    22265260.7814
  23236075.173      876925.304 8    756596.06446  23236073.990    23236078.3734
  20494561.801    -1825491.300 9  -1416138.13047  20494561.171    20494564.5034
  20358076.695    -7678118.232 9  -5962147.75248  20358076.257    20358078.0544
 01  7 12 17 44  0.0000000  0  9 23 15 03 06 21 26 22 17 18
  20623042.100    -2291595.013 9  -1658054.46247  20623041.585    20623044.5684
  20323158.787    -5095554.449 9  -3960588.14447  20323158.100    20323161.3594
  23163021.839    -9790878.477 8  -7616632.74746  23163021.444    23163025.6824
  22305536.599     9437600.916 8   7289820.85146  22305536.378    22305541.1164
  22664797.255   -11878712.674 8  -9238164.50946  22664796.708    22664801.1824
  22271875.739    -1402590.682 7  -1084721.39045  22271875.521    22271879.3724
  23245034.765      924008.716 8    793284.37346  23245033.718    23245038.0764
  20496951.498    -1812933.332 9  -1406352.71847  20496950.876    20496954.2024
  20353280.127    -7703324.963 9  -5981789.36048  20353279.618    20353281.4014
 01  7 12 17 44 30.0000000  0  9 23 15 03 06 21 26 22 17 18
  20626501.310    -2273417.413 9  -1643890.10948  20626500.731    20626503.7264
  20320365.662    -5110232.289 9  -3972025.42847  20320364.964    20320368.2574
  23145711.357    -9881846.884 8  -7687517.17546  23145710.708    23145714.9584
  22323026.946     9529511.186 8   7361439.13246  22323026.620    22323031.0274
  22650728.208   -11952645.776 8  -9295774.68146  22650727.718    22650732.2274
  22278611.324    -1367195.041 7  -1057140.36045  22278610.959    22278614.5964
  23254074.784      971513.684 8    830301.17046  23254073.790    23254078.1034
  20499391.252    -1800112.370 9  -1396362.36347  20499390.627    20499393.9664
  20348574.609    -7728052.498 9  -6001057.57148  20348574.105    20348575.9094
 01  7 12 17 45  0.0000000  0  9 23 15 03 06 21 26 22 17 18
  20630036.865    -2254837.966 9  -1629412.64247  20630036.273    20630039.2554
  20317627.343    -5124622.082 9  -3983238.26647  20317626.670    20317629.9874
  23128447.486    -9972567.343 8  -7758208.43846  23128447.099    23128451.3694
  22340575.851     9621730.774 8   7433298.46146  22340575.501    22340579.9594
  22636709.606   -12026314.727 8  -9353179.00346  22636708.933    22636713.4564
  22285463.745    -1331183.685 7  -1029079.62745  22285463.734    22285467.2974
  23263194.123     1019439.480 8    867645.92246  23263193.477    23263198.0584
  20501881.274    -1787027.093 9  -1386166.06647  20501880.663    20501884.0714
  20343960.433    -7752300.042 9  -6019951.75948  20343959.940    20343961.7454
 01  7 12 17 45 30.0000000  0  9 23 15 03 06 21 26 22 17 18
  20633648.594    -2235858.204 9  -1614623.23447  20633648.023    20633651.0034
  20314943.936    -5138723.649 9  -3994226.51047  20314943.228    20314946.5034
  23111231.520   -10063037.520 8  -7828704.63546  23111231.078    23111235.3914
  22358182.995     9714257.645 8   7505397.24146  22358182.702    22358187.3654
  22622741.107   -12099719.176 8  -9410377.23546  22622740.423    22622745.0014
  22292433.485    -1294558.086 7  -1000540.15245  22292433.200    22292436.9554
  23272393.756     1067783.738 8    905316.70346  23272393.207    23272397.8284
  20504421.720    -1773677.388 9  -1375763.72447  20504421.075    20504424.4704
  20339437.651    -7776067.808 9  -6038472.09848  20339437.141    20339438.9574
 01  7 12 17 46  0.0000000  0  9 23 15 03 06 21 26 22 17 18
  20637335.929    -2216481.088 9  -1599524.19447  20637335.380    20637338.3854
  20312315.124    -5152538.154 9  -4004991.07247  20312314.467    20312317.7104
  23094063.371   -10153256.294 8  -7899004.96246  23094063.023    23094067.2934
  22375848.291     9807088.558 8   7577732.89746  22375847.992    22375852.5614
  22608823.025   -12172859.450 8  -9467369.60246  22608822.268    22608826.8504
  22299519.611    -1257320.977 7   -971524.29945  22299519.443    22299523.0204
  23281672.644     1116542.086 8    943310.16446  23281671.804    23281676.3714
  20507012.234    -1760064.441 9  -1365156.24847  20507011.601    20507014.8974
  20335005.765    -7799357.593 9  -6056619.97948  20335005.229    20335007.0294
 01  7 12 17 46 30.0000000  0  9 23 15 03 06 21 26 22 17 18
  20641098.605    -2196707.823 9  -1584116.47647  20641098.095    20641101.1214
  20309741.037    -5166064.973 9  -4015531.45947  20309740.369    20309743.6234
  23076943.907   -10243221.243 8  -7969107.48246  23076943.225    23076947.6454
  22393571.381     9900221.968 8   7650304.24846  22393570.953    22393575.3464
  22594955.025   -12245735.298 8  -9524155.92746  22594954.389    22594959.1974
  22306721.641    -1219473.296 7   -942032.58245  22306721.558    22306725.1834
  23291029.141     1165712.157 8    981624.42145  23291028.416    23291033.1164
  20509652.874    -1746187.928 9  -1354343.40347  20509652.263    20509655.5334
  20330664.766    -7822169.226 9  -6074395.27948  20330664.314    20330666.1114
 01  7 12 17 47  0.0000000  0  9 23 15 03 06 21 26 22 17 18
  20644936.635    -2176538.883 9  -1568400.44248  20644936.188    20644939.1954
  20307221.990    -5179302.817 9  -4025846.67147  20307221.333    20307224.5334
  23059872.710   -10332929.009 8  -8039009.62146  23059872.283    23059877.0104
  22411351.425     9993656.801 8   7723110.52046  22411350.955    22411355.5674
  22581137.929   -12318344.727 8  -9580734.67246  22581137.324    22581142.2204
  22314040.165    -1181015.318 8   -912065.35045  22314039.991    22314043.4594
  23300464.140     1215292.841 8   1020258.67745  23300463.474    23300467.8244
  20512343.951    -1732046.556 9  -1343324.17847  20512343.350    20512346.5954
  20326414.990    -7844501.985 9  -6091797.42148  20326414.526    20326416.3654
 01  7 12 17 47 30.0000000  0  9 23 15 03 06 21 26 22 17 18
  20648849.700    -2155975.860 9  -1552377.32347  20648849.169    20648852.2304
  20304757.908    -5192251.572 9  -4035936.62147  20304757.249    20304760.4814
  23042851.227   -10422376.906 8  -8108709.26446  23042850.866    23042855.7284
  22429188.584    10087391.169 8   7796150.16346  22429188.196    22429192.9524
  22567371.629   -12390686.626 8  -9637104.92946  22567371.104    22567376.0064
  22321474.346    -1141948.377 8   -881623.61245  22321474.205    22321477.6244
  23309977.296     1265282.088 8   1059211.28645  23309976.189    23309980.4284
  20515085.472    -1717640.135 9  -1332098.41447  20515084.832    20515088.0644
  20322256.370    -7866356.033 9  -6108826.55248  20322255.905    20322257.6544
 01  7 12 17 48  0.0000000  0  9 23 15 03 06 21 26 22 17 18
  20652837.431    -2135020.525 9  -1536048.51247  20652836.888    20652839.9164
  20302348.896    -5204911.049 9  -4045801.14947  20302348.257    20302351.4614
  23025879.846   -10511562.929 8  -8178204.83046  23025879.445    23025884.3124
  22447082.145    10181422.768 8   7869421.42946  22447081.749    22447086.4554
  22553655.941   -12462761.356 8  -9693267.01746  22553655.649    22553660.5924
  22329024.128    -1102274.375 8   -850708.79645  22329023.948    22329027.4894
  23319567.046     1315676.904 8   1098479.90545  23319565.931    23319570.6314
  20517877.324    -1702968.902 9  -1320666.31247  20517876.709    20517879.9184
  20318188.591    -7887732.346 9  -6125483.41048  20318188.081    20318189.8774
 01  7 12 17 48 30.0000000  0  9 23 15 03 06 21 26 22 17 18
  20656899.628    -2113673.533 9  -1519414.51247  20656899.046    20656902.0824
  20299995.054    -5217280.370 9  -4055439.59647  20299994.396    20299997.6554
  23008958.808   -10600483.757 8  -8247493.74946  23008958.390    23008963.1504
  22465032.133    10275750.428 8   7942923.38346  22465031.851    22465036.1594
  22539991.855   -12534567.424 8  -9749219.76246  22539991.329    22539996.1324
  22336689.368    -1061993.817 8   -819321.38745  22336689.162    22336692.5974
  23329233.173     1366475.076 8   1138062.84245  23329232.339    23329237.4124
  20520719.827    -1688031.843 9  -1309027.07347  20520719.202    20520722.3874
  20314211.810    -7908630.390 9  -6141767.59848  20314211.304    20314213.1514
 01  7 12 17 49  0.0000000  0  9 23 15 03 06 21 26 22 17 18
  20661036.047    -2091937.006 9  -1502476.98248  20661035.473    20661038.4804
  20297696.421    -5229359.758 9  -4064852.11247  20297695.768    20297699.0244
  22992088.162   -10689137.719 8  -8316574.73446  22992088.198    22992092.6804
  22483038.142    10370371.710 8   8016654.15546  22483037.866    22483042.2894
  22526378.834   -12606104.718 8  -9804963.07946  22526378.273    22526382.7724
  22344469.285    -1021108.696 8   -787462.85046  22344469.306    22344472.8764
  23338976.526     1417673.559 8   1177957.68445  23338975.143    23338979.9684
  20523612.798    -1672829.343 9  -1297180.99247  20523612.149    20523615.3344
  20310325.930    -7929050.970 9  -6157679.73448  20310325.394    20310327.2334
 01  7 12 17 49 30.0000000  0  9 23 15 03 06 21 26 22 17 18
  20665246.146    -2069812.890 9  -1485237.42447  20665245.528    20665248.5494
  20295452.916    -5241149.203 9  -4074038.70347  20295452.271    20295455.5404
  22975269.305   -10777522.879 8  -8385446.24646  22975269.012    22975273.2774
  22501099.389    10465284.260 8   8090611.89746  22501099.094    22501103.6894
  22512817.020   -12677372.868 8  -9860496.67046  22512816.392    22512820.7934
  22352364.521     -979620.807 8   -755134.64846  22352364.320    22352367.9244
  23348794.709     1469269.923 8   1218162.60945  23348793.657    23348798.5164
  20526556.197    -1657361.616 9  -1285128.24147  20526555.561    20526558.7574
  20306530.679    -7948994.987 9  -6173220.52848  20306530.152    20306532.0364
 01  7 12 17 50  0.0000000  0  9 23 15 03 06 21 26 22 17 18
  20669529.942    -2047301.972 9  -1467696.47447  20669529.283    20669532.2744
  20293264.769    -5252647.658 9  -4082998.55047  20293264.116    20293267.4884
  22958501.985   -10865635.977 8  -8454105.77046  22958501.720    22958505.6794
  22519215.880    10560486.890 8   8164795.60946  22519215.682    22519219.9544
  22499306.424   -12748370.792 8  -9915819.68246  22499305.895    22499310.3554
  22360373.887     -937531.032 8   -722337.43846  22360373.746    22360377.3214
  23358688.585     1521262.505 8   1258676.24745  23358687.517    23358692.6974
  20529550.256    -1641627.777 9  -1272868.13047  20529549.658    20529552.8794
  20302826.237    -7968461.884 9  -6188389.54748  20302825.746    20302827.5694
 01  7 12 17 50 30.0000000  0  9 23 15 03 06 21 26 22 17 18
  20673886.696    -2024406.447 9  -1449855.81947  20673886.106    20673889.1484
  20291131.989    -5263855.199 9  -4091731.71047  20291131.372    20291134.7634
  22941786.846   -10953475.027 8  -8522551.75146  22941786.473    22941790.4924
  22537387.127    10655977.091 8   8239203.43246  22537386.822    22537391.3374
  22485847.382   -12819098.469 8  -9970932.11946  22485846.802    22485851.3104
  22368497.352     -894841.232 8   -689072.65446  22368497.332    22368500.9684
  23368656.919     1573647.902 8   1299495.97745  23368656.076    23368661.3524
  20532594.917    -1625628.099 9  -1260400.87247  20532594.311    20532597.5244
  20299212.409    -7987452.754 9  -6203187.61748  20299211.898    20299213.7434
 01  7 12 17 51  0.0000000  0  9 23 15 03 06 21 26 22 17 18
  20678316.880    -2001126.302 9  -1431715.46947  20678316.250    20678319.2354
  20289054.931    -5274770.075 9  -4100236.81547  20289054.310    20289057.7414
  22925124.103   -11041036.257 8  -8590781.26046  22925124.047    22925128.1064
  22555612.778    10751754.477 8   8313835.05946  22555612.584    22555617.6524
  22472440.163   -12889553.861 8 -10025832.38946  22472439.574    22472444.0724
  22376735.207     -851551.581 8   -655340.48046  22376735.128    22376738.6034
  23378700.198     1626424.680 8   1340620.69145  23378699.332    23378704.2294
  20535690.513    -1609360.962 9  -1247725.21247  20535689.848    20535693.0884
  20295689.374    -8005966.532 9  -6217613.94648  20295688.877    20295690.7554
 01  7 12 17 51 30.0000000  0  9 23 15 03 06 21 26 22 17 18
  20682819.322    -1977465.478 9  -1413278.47747  20682818.772    20682821.7674
  20287033.126    -5285394.691 9  -4108515.75047  20287032.540    20287035.9724
  22908514.716   -11128319.826 8  -8658794.39046  22908514.366    22908518.6404
  22573892.566    10847814.558 8   8388686.91946  22573892.388    22573897.2504
  22459084.297   -12959738.679 8 -10080521.82746  22459083.800    22459088.3694
  22385086.418     -807666.069 8   -621143.98046  22385086.277    22385089.8544
  23388817.447     1679588.178 7   1382046.71745  23388816.120    23388821.2654
  20538836.452    -1592828.667 9  -1234842.93147  20538835.810    20538839.0974
  20292256.537    -8024006.059 9  -6231670.70948  20292256.074    20292257.9164
 01  7 12 17 52  0.0000000  0  9 23 15 03 06 21 26 22 17 18
  20687394.543    -1953423.069 9  -1394544.15347  20687393.915    20687396.8684
  20285067.083    -5295726.285 9  -4116566.35347  20285066.491    20285069.9264
  22891958.754   -11215320.877 8  -8726587.39146  22891958.467    22891963.0444
  22592226.270    10944157.509 8   8463759.22746  22592225.987    22592230.6564
  22445780.579   -13029650.044 8 -10134998.17746  22445780.090    22445784.7504
  22393550.898     -763184.017 8   -586482.66046  22393550.897    22393554.5204
  23399007.104     1733138.430 8   1423774.11345  23399006.175    23399011.7654
  20542033.403    -1576028.675 9  -1221752.05247  20542032.767    20542036.0294
  20288914.289    -8041569.374 9  -6245356.41848  20288913.887    20288915.6714
 01  7 12 17 52 30.0000000  0  9 23 15 03 06 21 26 22 17 18
  20692041.685    -1929001.708 9  -1375514.53847  20692041.128    20692044.1374
  20283156.775    -5305765.450 9  -4124389.09347  20283156.163    20283159.6044
  22875456.892   -11302037.851 8  -8794159.03446  22875456.820    22875461.3824
  22610613.255    11040780.469 8   8539049.72546  22610612.978    22610617.6694
  22432528.782   -13099288.457 8 -10189261.84146  22432528.284    22432532.9874
  22402128.813     -718107.872 8   -551358.40446  22402128.640    22402132.1234
  23409270.908     1787071.944 8   1465800.15445  23409269.639    23409274.8284
  20545281.175    -1558961.725 9  -1208453.15147  20545280.508    20545283.7394
  20285662.517    -8058657.900 9  -6258672.14948  20285662.058    20285663.8504
 01  7 12 17 53  0.0000000  0  9 23 15 03 06 21 26 22 17 18
  20696760.719    -1904203.118 9  -1356190.97747  20696760.141    20696763.1494
  20281302.065    -5315511.900 9  -4131983.73547  20281301.457    20281304.8954
  22859010.216   -11388468.388 8  -8861507.45246  22859009.777    22859014.1584
  22629053.417    11137681.193 8   8614556.65846  22629052.992    22629057.4074
  22419328.832   -13168653.794 8 -10243312.71346  22419328.382    22419333.1384
  22410818.799     -672439.318 8   -515772.51545  22410818.953    22410822.7834
  23419606.314     1841385.449 7   1508122.31545  23419605.015    23419610.3084
  20548579.660    -1541627.640 9  -1194946.09947  20548579.025    20548582.2774
  20282501.001    -8075272.092 9  -6271618.27048  20282500.527    20282502.2794
 01  7 12 17 53 30.0000000  0  9 23 15 03 06 21 26 22 17 18
  20701551.242    -1879028.738 9  -1336574.59647  20701550.665    20701553.7524
  20279503.165    -5324965.243 9  -4139349.99047  20279502.602    20279506.0034
  22842617.870   -11474610.140 8  -8928630.86746  22842617.485    22842621.6734
  22647545.506    11234857.683 8   8690278.49246  22647545.131    22647549.5894
  22406181.147   -13237745.559 8 -10297150.41246  22406180.544    22406185.3584
  22419622.200     -626180.088 8   -479726.40645  22419622.048    22419625.4014
  23430013.409     1896076.274 8   1550738.46345  23430012.439    23430017.8674
  20551929.032    -1524026.350 9  -1181230.84947  20551928.456    20551931.7464
  20279429.507    -8091412.549 9  -6284195.24348  20279429.024    20279430.8204
 01  7 12 17 54  0.0000000  0  9 23 15 03 06 21 26 22 17 18
  20706413.168    -1853479.697 9  -1316666.27347  20706412.598    20706415.5994
  20277760.197    -5334124.700 9  -4146487.24147  20277759.599    20277763.0254
  22826281.029   -11560460.157 8  -8995526.94146  22826280.755    22826284.7134
  22666090.077    11332308.741 8   8766214.24946  22666089.632    22666094.0664
  22393085.811   -13306562.322 8 -10350773.84146  22393085.189    22393089.9054
  22428537.045     -579331.170 8   -443220.75345  22428536.987    22428540.5674
  23440493.216     1951143.046 8   1593647.56545  23440491.685    23440496.9084
  20555329.455    -1506157.060 9  -1167306.75447  20555328.902    20555332.1764
  20276448.193    -8107079.290 9  -6296403.10248  20276447.797    20276449.5604
 01  7 12 17 54 30.0000000  0  9 23 15 03 06 21 26 22 17 18
  20711345.997    -1827557.795 9  -1296467.40447  20711345.364    20711348.3864
  20276073.134    -5342990.144 9  -4153395.39347  20276072.567    20276076.0004
  22810000.121   -11646016.411 8  -9062194.12646  22809999.756    22810004.0294
  22684686.169    11430031.934 8   8842362.08146  22684685.729    22684690.1524
  22380042.953   -13375103.731 8 -10404182.71646  22380042.329    22380046.8354
  22437564.218     -531894.627 8   -406257.25445  22437564.037    22437567.4224
  23451042.629     2006582.891 8   1636847.37245  23451041.353    23451046.7874
  20558780.855    -1488019.680 9  -1153173.75847  20558780.352    20558783.5754
  20273556.998    -8122273.070 9  -6308242.40148  20273556.519    20273558.2624
 01  7 12 17 55  0.0000000  0  9 23 15 03 06 21 26 22 17 18
  20716349.586    -1801263.568 9  -1275978.41747  20716349.010    20716352.0384
  20274442.367    -5351560.139 9  -4160073.32547  20274441.756    20274445.2124
  22793775.492   -11731275.373 8  -9128629.65446  22793775.448    22793779.7954
  22703333.818    11528026.360 8   8918721.22646  22703333.439    22703337.9334
  22367052.874   -13443368.090 8 -10457375.69346  22367052.152    22367056.6034
  22446702.697     -483870.990 8   -368836.23845  22446702.481    22446706.0994
  23461662.921     2062394.074 8   1680336.51245  23461661.848    23461667.3104
  20562283.559    -1469612.913 9  -1138830.85047  20562283.067    20562286.2444
  20270755.802    -8136993.274 9  -6319712.69648  20270755.368    20270757.1034
 01  7 12 17 55 30.0000000  0  9 23 15 03 06 21 26 22 17 18
  20721423.563    -1774599.563 9  -1255201.28847  20721422.958    20721426.0444
  20272867.701    -5359835.395 9  -4166521.59047  20272867.076    20272870.5174
  22777608.383   -11816235.343 8  -9194832.17746  22777607.991    22777612.3564
  22722032.456    11626288.958 8   8995289.36546  22722032.194    22722036.8664
  22354114.767   -13511356.564 8 -10510353.68046  22354114.080    22354118.7774
  22455952.339     -435262.868 8   -330959.79045  22455952.238    22455955.9774
  23472353.776     2118572.482 8   1724111.84345  23472352.618    23472357.7244
  20565837.440    -1450937.638 9  -1124278.71547  20565836.937    20565840.0844
  20268044.530    -8151241.326 9  -6330815.06548  20268044.005    20268045.8304
 01  7 12 17 56  0.0000000  0  9 23 15 03 06 21 26 22 17 18
  20726567.794    -1747566.840 9  -1234136.85047  20726567.206    20726570.2314
  20271349.192    -5367815.378 9  -4172739.76347  20271348.528    20271351.9714
  22761498.162   -11900893.551 8  -9260799.59446  22761497.953    22761502.4774
  22740782.248    11724817.975 8   9072065.11346  22740781.943    22740786.2074
  22341229.555   -13579067.828 8 -10563115.67446  22341228.969    22341233.6644
  22465313.056     -386071.841 8   -292629.13645  22465313.037    22465316.7004
  23483113.873     2175116.131 8   1768171.76845  23483112.749    23483117.7464
  20569442.596    -1431993.161 9  -1109516.81247  20569442.032    20569445.1674
  20265422.968    -8165017.510 9  -6341549.75748  20265422.510    20265424.2344
 01  7 12 17 56 30.0000000  0  9 23 15 03 06 21 26 22 17 18
  20731781.662    -1720167.956 9  -1212787.08947  20731781.017    20731784.1164
  20269886.832    -5375500.233 9  -4178727.98247  20269886.200    20269889.6354
  22745446.236   -11985248.333 8  -9326530.55346  22745445.895    22745450.2054
  22759582.067    11823610.862 8   9149046.45646  22759581.789    22759586.0754
  22328397.320   -13646502.186 8 -10615661.90346  22328396.603    22328401.3804
  22474784.245     -336300.269 8   -253846.10445  22474784.280    22474788.0924
  23493942.700     2232022.089 8   1812513.99145  23493941.473    23493946.7444
  20573098.852    -1412780.100 9  -1094545.63147  20573098.210    20573101.3164
  20262891.012    -8178323.048 9  -6351917.71048  20262890.563    20262892.2994
 01  7 12 17 57  0.0000000  0  9 23 15 03 06 21 26 22 17 18
  20737064.961    -1692404.049 9  -1191152.89747  20737064.369    20737067.4394
  20268480.857    -5382889.224 9  -4184485.63847  20268480.183    20268483.5444
  22729452.421   -12069296.798 8  -9392022.83246  22729451.908    22729456.1434
  22778431.575    11922665.757 8   9226231.97446  22778431.320    22778435.7004
  22315617.756   -13713658.814 8 -10667991.70347  22315617.190    22315621.9744
  22484365.950     -285949.660 8   -214611.89145  22484365.798    22484369.3664
  23504839.676     2289288.010 8   1857136.70545  23504838.738    23504844.1644
  20576806.341    -1393297.799 9  -1079364.63647  20576805.634    20576808.7154
  20260448.567    -8191158.142 9  -6361919.07548  20260448.113    20260449.9364
 01  7 12 17 57 30.0000000  0  9 23 15 03 06 21 26 22 17 18
  20742417.632    -1664275.823 9  -1169234.82147  20742417.013    20742419.9804
  20267131.387    -5389980.776 9  -4190011.53647  20267130.707    20267134.1314
  22713517.376   -12153035.401 8  -9457273.65846  22713517.029    22713521.2234
  22797330.783    12021981.805 8   9303620.94846  22797330.506    22797335.1774
  22302891.387   -13780536.182 8 -10720103.90447  22302890.840    22302895.6824
  22494057.074     -235020.726 8   -174927.03445  22494057.109    22494060.9224
  23515805.453     2346911.757 8   1902038.23245  23515804.516    23515809.7364
  20580565.228    -1373545.025 9  -1063972.89647  20580564.482    20580567.6024
  20258095.759    -8203522.530 9  -6371553.66648  20258095.243    20258097.0234
 01  7 12 17 58  0.0000000  0  9 23 15 03 06 21 26 22 17 18
  20747838.951    -1635786.370 9  -1147035.26147  20747838.340    20747841.4204
  20265838.278    -5396776.558 9  -4195306.95247  20265837.573    20265840.9514
  22697641.587   -12236463.732 8  -9522282.70246  22697641.150    22697645.4254
  22816279.066    12121555.160 8   9381210.44546  22816278.769    22816283.4794
  22290217.987   -13847135.284 8 -10771999.27447  22290217.543    22290222.2184
  22503857.808     -183517.060 8   -134794.34245  22503857.923    22503861.7814
  23526838.211     2404888.913 8   1947215.15845  23526837.300    23526842.4604
  20584375.237    -1353523.203 9  -1048371.50147  20584374.494    20584377.6604
  20255831.976    -8215418.242 9  -6380823.05348  20255831.549    20255833.3914
 01  7 12 17 58 30.0000000  0  9 23 15 03 06 21 26 22 17 18
  20753329.152    -1606935.419 9  -1124554.03247  20753328.570    20753331.5724
  20264601.812    -5403274.155 9  -4200370.02547  20264601.089    20264604.4974
  22681825.412   -12319577.373 8  -9587046.54846  22681825.099    22681829.4744
  22835276.068    12221385.593 8   9459000.25846  22835275.866    22835280.8674
  22277597.868   -13913454.093 8 -10823676.25147  22277597.490    22277602.0554
  22513768.022     -131438.447 8    -94213.63545  22513768.023    22513771.9464
  23537937.663     2463219.106 8   1992667.16345  23537937.015    23537942.2714
  20588236.881    -1333230.207 9  -1032558.79747  20588236.191    20588239.2924
  20253657.825    -8226843.979 9  -6389726.22948  20253657.355    20253659.1444
 01  7 12 17 59  0.0000000  0  9 23 15 03 06 21 26 22 17 18
  20758887.533    -1577726.268 9  -1101793.66947  20758886.872    20758889.9344
  20263421.899    -5409474.922 9  -4205201.80247  20263421.195    20263424.6124
  22666069.677   -12402375.496 8  -9651564.51546  22666069.276    22666073.5384
  22854321.694    12321469.448 8   9536987.53446  22854321.452    22854326.5084
  22265031.050   -13979493.548 8 -10875135.53147  22265030.630    22265035.0734
  22523787.318      -78788.535 8    -53187.77645  22523787.167    22523790.8924
  23549104.412     2521898.274 8   2038391.09145  23549103.554    23549108.4924
  20592149.932    -1312667.463 9  -1016535.89247  20592149.232    20592152.2974
  20251572.550    -8237802.112 9  -6398265.03948  20251572.078    20251573.8574
 01  7 12 17 59 30.0000000  0  9 23 15 03 06 21 26 22 17 18
  20764513.629    -1548160.683 9  -1078755.57347  20764513.027    20764516.1374
  20262298.501    -5415378.628 9  -4209802.10647  20262297.743    20262301.1854
  22650374.133   -12484855.651 8  -9715834.73746  22650373.643    22650378.1234
  22873414.837    12421804.409 8   9615170.49346  22873414.545    22873419.8074
  22252517.517   -14045253.297 8 -10926376.85047  22252516.843    22252521.4344
  22533914.431      -25569.304 8    -11718.25645  22533914.316    22533918.2774
  23560336.840     2580923.260 8   2084384.51946  23560335.779    23560340.6754
  20596114.223    -1291834.782 9  -1000302.66047  20596113.537    20596116.6544
  20249576.164    -8248293.229 9  -6406439.93148  20249575.720    20249577.5244
 01  7 12 18  0  0.0000000  0  9 23 15 03 06 21 26 22 17 18
  20770207.613    -1518238.567 9  -1055439.65847  20770207.055    20770210.0584
  20261231.950    -5420983.389 9  -4214169.46147  20261231.241    20261234.6184
  22634739.374   -12567013.841 8  -9779854.08646  22634739.236    22634743.8264
  22892555.507    12522390.339 8   9693548.99546  22892555.333    22892560.8374
  22240057.341   -14110731.290 8 -10977398.61647  22240056.799    22240061.4004
  22544150.064       28219.106 8     30194.77146  22544150.030    22544154.0554
  23571634.441     2640292.709 8   2130646.30045  23571633.367    23571638.5144
  20600130.193    -1270730.336 9   -983857.67447  20600129.537    20600132.7764
  20247668.831    -8258316.463 9  -6414250.24948  20247668.331    20247670.1124
 01  7 12 18  0 30.0000000  0  9 23 15 03 06 21 26 22 17 18
  20775969.257    -1487961.626 9  -1031847.25547  20775968.606    20775971.6124
  20260222.440    -5426288.698 9  -4218303.47747  20260221.690    20260225.0394
  22619166.993   -12648847.818 8  -9843620.78246  22619166.777    22619171.2604
  22911743.967    12623225.081 8   9772121.36946  22911743.720    22911749.2104
  22227651.067   -14175927.257 8 -11028200.64247  22227650.448    22227654.9034
  22554493.368       82574.580 8     72549.65846  22554493.369    22554497.5074
  23582997.470     2700003.912 8   2177174.43745  23582996.332    23583001.1584
  20604198.030    -1249353.893 9   -967200.72647  20604197.401    20604200.6224
  20245850.429    -8267872.522 9  -6421696.53148  20245849.890    20245851.6744
 01  7 12 18  1  0.0000000  0  9 23 15 03 06 21 26 22 17 18
  20781797.597    -1457333.419 9  -1007981.15047  20781796.971    20781800.0324
  20259269.554    -5431296.120 9  -4222205.37847  20259268.850    20259272.1824
  22603656.132   -12730356.803 8  -9907134.26146  22603656.044    22603660.5114
  22930978.631    12724304.387 8   9850884.34846  22930978.355    22930984.1534
  22215298.095   -14240842.560 8 -11078783.96147  22215297.480    22215301.8974
  22564944.426      137493.408 8    115343.51946  22564944.344    22564948.4074
  23594424.293     2760052.666 8   2223965.62345  23594423.171    23594427.8884
  20608317.241    -1227707.216 9   -950333.20347  20608316.609    20608319.8754
  20244120.341    -8276963.950 9  -6428780.77048  20244119.837    20244121.6734
 01  7 12 18  1 30.0000000  0  9 23 15 03 06 21 26 22 17 18
  20787692.761    -1426353.927 9   -983841.29647  20787692.150    20787695.2614
  20258373.765    -5436003.887 9  -4225873.77247  20258373.030    20258376.2884
  22588208.164   -12811536.921 8  -9970391.46546  22588208.158    22588212.3144
  22950259.898    12825627.866 8   9929837.59346  22950259.765    22950265.2484
  22202998.686   -14305475.837 8 -11129147.52947  22202998.254    22203002.5274
  22575502.252      192974.907 8    158575.81146  22575502.045    22575506.0574
  23605915.083     2820437.908 8   2271018.92245  23605913.915    23605918.8474
  20612488.219    -1205788.587 9   -933253.76447  20612487.592    20612490.8974
  20242478.876    -8285589.974 9  -6435502.34748  20242478.394    20242480.1714
 01  7 12 18  2  0.0000000  0  9 23 15 03 06 21 26 22 17 18
  20793654.448    -1395025.330 9   -959429.41947  20793653.823    20793656.9484
  20257534.902    -5440412.155 9  -4229308.80247  20257534.181    20257537.4224
  22572823.584   -12892386.035 8 -10033390.73946  22572823.319    22572827.0614
  22969587.351    12927192.657 8  10008978.81346  22969587.215    22969592.5554
  22190753.158   -14369826.629 8 -11179290.96947  22190752.602    22190756.9424
  22586166.816      249016.766 8    202244.73246  22586166.642    22586170.5094
  23617469.146     2881155.810 8   2318331.49545  23617468.337    23617473.1164
  20616710.908    -1183598.090 9   -915962.48947  20616710.308    20616713.6504
  20240925.755    -8293751.718 9  -6441862.15548  20240925.269    20240927.0614
 01  7 12 18  2 30.0000000  0  9 23 15 03 06 21 26 22 17 18
  20799682.025    -1363349.771 9   -934747.18547  20799681.440    20799684.6614
  20256753.073    -5444521.143 9  -4232510.61847  20256752.362    20256755.4784
  22557502.209   -12972902.348 8 -10096130.66846  22557501.527    22557505.1624
  22988959.997    13028996.236 8  10088306.16045  22988959.635    22988965.3344
  22178561.058   -14433895.381 8 -11229214.62447  22178560.602    22178565.0364
  22596937.090      305616.318 8    246348.25546  22596937.076    22596941.1754
  23629086.265     2942203.002 8   2365900.67845  23629085.434    23629090.0064
  20620985.325    -1161136.098 9   -898459.65547  20620984.689    20620988.0474
  20239460.761    -8301450.529 9  -6447861.23048  20239460.243    20239461.9994
 01  7 12 18  3  0.0000000  0  9 23 15 03 06 21 26 22 17 18
  20805775.947    -1331326.806 9   -909794.25347  20805775.351    20805778.4334
  20256028.750    -5448327.832 9  -4235476.88147  20256027.994    20256031.0384
  22542244.127   -13053081.221 8 -10158607.69946  22542243.969    22542247.6924
  23008378.242    13131038.851 8  10167819.72545  23008377.751    23008383.6464
  22166423.478   -14497678.944 8 -11278916.06947  22166422.985    22166427.4794
  22607813.837      362774.028 8    290886.65046  22607813.916    22607817.7444
  23640765.859     3003579.510 8   2413726.45045  23640764.799    23640769.6174
  20625311.956    -1138400.008 9   -880743.25047  20625311.284    20625314.6794
  20238084.291    -8308684.600 9  -6453498.17348  20238083.676    20238085.3844
 01  7 12 18  3 30.0000000  0  9 23 15 03 06 21 26 22 17 18
  20811935.112    -1298959.737 9   -884573.17247  20811934.537    20811937.7174
  20255361.625    -5451833.832 9  -4238208.84347  20255360.875    20255363.8964
  22527051.131   -13132921.906 8 -10220821.17546  22527050.748    22527054.6044
  23027841.200    13233316.714 8  10247516.62046  23027840.747    23027846.6324
  22154339.892   -14561178.938 8 -11328396.53947  22154339.290    22154343.8274
  22618796.159      420485.997 8    335857.00746  22618796.123    22618800.1004
  23652507.037     3065280.976 8   2461805.39945  23652506.240    23652511.2024
  20629690.411    -1115391.353 9   -862814.44147  20629689.733    20629693.1314
  20236795.532    -8315456.724 9  -6458775.15248  20236794.958    20236796.7264
 01  7 12 18  4  0.0000000  0  9 23 15 03 06 21 26 22 17 18
  20818159.618    -1266250.089 9   -859085.16047  20818159.009    20818162.1274
  20254751.855    -5455038.664 9  -4240706.13047  20254751.077    20254754.0674
  22511922.762   -13212421.749 8 -10282769.07446  22511922.380    22511926.6094
  23047348.426    13335827.715 8  10327395.16246  23047348.053    23047354.0774
  22142310.143   -14624394.770 8 -11377655.58847  22142309.738    22142314.2254
  22629883.467      478750.192 8    381257.60446  22629883.497    22629887.4314
  23664310.049     3127304.585 8   2510135.38445  23664309.220    23664313.7774
  20634120.709    -1092109.824 9   -844673.01047  20634120.046    20634123.4774
  20235594.637    -8321767.378 9  -6463692.55048  20235594.090    20235595.8724
 01  7 12 18  4 30.0000000  0  9 23 15 03 06 21 26 22 17 18
  20824448.751    -1233199.960 9   -833331.82647  20824448.194    20824451.3664
  20254199.323    -5457942.314 9  -4242968.72447  20254198.540    20254201.5174
  22496859.622   -13291578.898 8 -10344449.95046  22496859.298    22496863.6104
  23066899.797    13438569.338 8  10407453.43646  23066899.398    23066905.3354
  22130334.686   -14687326.663 8 -11426693.40147  22130334.218    22130338.6264
  22641075.670      537564.127 8    427086.62346  22641075.540    22641079.4204
  23676172.805     3189646.527 7   2558713.42245  23676172.278    23676177.1764
  20638602.863    -1068555.681 9   -826319.14747  20638602.233    20638605.6594
  20234481.336    -8327617.710 9  -6468251.24748  20234480.820    20234482.5664
 01  7 12 18  5  0.0000000  0  9 23 15 03 06 21 26 22 17 18
  20830802.857    -1199809.641 9   -807313.41447  20830802.246    20830805.3554
  20253704.463    -5460543.003 9  -4244995.25247  20253703.663    20253706.6394
  22481862.549   -13370389.737 8 -10405860.94346  22481862.021    22481866.3664
  23086494.381    13541540.932 8  10487690.90046  23086494.242    23086500.3464
  22118413.349   -14749972.974 8 -11475508.68047  22118413.031    22118417.2714
  22652371.835      596927.162 8    473343.49046  22652371.919    22652375.7594
  23688096.416     3252305.604 8   2607538.60745  23688095.912    23688100.9464
  20643137.234    -1044727.260 9   -807751.56647  20643136.644    20643140.0824
  20233455.715    -8333007.309 9  -6472450.93848  20233455.220    20233456.9824
 01  7 12 18  5 30.0000000  0  9 23 15 03 06 21 26 22 17 18
  20837220.992    -1166082.041 9   -781032.19447  20837220.393    20837223.5274
  20253267.036    -5462841.820 9  -4246786.55447  20253266.206    20253269.2114
  22466931.350   -13448852.658 8 -10467000.84946  22466931.087    22466935.2594
  23106132.913    13644739.010 8  10568104.82846  23106132.646    23106138.3524
  22106546.395   -14812334.392 8 -11524101.95947  22106545.947    22106550.2504
  22663772.145      656835.873 8    520025.56846  22663772.167    22663776.1204
  23700080.520     3315278.354 8   2656608.20345  23700079.446    23700084.6954
  20647723.674    -1020625.483 9   -788970.98147  20647723.089    20647726.5334
  20232517.494    -8337938.074 9  -6476293.09648  20232516.960    20232518.6174
 01  7 12 18  6  0.0000000  0  9 23 15 03 06 21 26 22 17 18
  20843703.033    -1132018.548 9   -754489.23547  20843702.435    20843705.6494
  20252887.199    -5464838.116 9  -4248342.12247  20252886.359    20252889.3464
  22452067.540   -13526965.240 8 -10527867.75346  22452066.927    22452070.7694
  23125813.507    13748161.464 8  10648693.64946  23125813.213    23125819.2374
  22094733.636   -14874410.259 9 -11572472.73247  22094733.245    22094737.5964
  22675275.818      717288.363 8    567131.36746  22675275.973    22675279.9514
  23712122.832     3378562.172 8   2705920.17245  23712121.740    23712127.1654
  20652362.219     -996249.946 9   -769977.07547  20652361.628    20652365.1264
  20231666.380    -8342410.463 9  -6479778.06548  20231665.839    20231667.5714
 01  7 12 18  6 30.0000000  0  9 23 15 03 06 21 26 22 17 18
  20850248.957    -1097619.962 9   -727685.16447  20850248.303    20850251.4264
  20252565.146    -5466530.674 9  -4249661.01947  20252564.272    20252567.2984
  22437270.524   -13604724.622 8 -10588459.44646  22437269.822    22437273.5404
  23145536.505    13851807.056 8  10729456.27545  23145536.397    23145542.5564
  22082975.453   -14936199.740 8 -11620620.36447  22082975.075    22082979.4064
  22686883.011      778283.195 8    614659.76146  22686883.048    22686886.8544
  23724224.018     3442154.692 8   2755472.70845  23724223.062    23724228.5234
  20657053.025     -971599.598 9   -750769.03347  20657052.440    20657055.9804
  20230902.516    -8346424.537 9  -6482905.91848  20230901.998    20230903.7714
 01  7 12 18  7  0.0000000  0  9 23 15 03 06 21 26 22 17 18
  20856858.144    -1062888.292 9   -700621.53747  20856857.498    20856860.6674
  20252300.824    -5467919.583 9  -4250743.29847  20252299.974    20252303.0384
  22422540.683   -13682128.659 8 -10648774.24846  22422540.089    22422544.0304
  23165301.840    13955673.048 8  10810390.63945  23165301.655    23165307.4044
  22071271.690   -14997703.116 8 -11668545.03147  22071271.287    22071275.6984
  22698592.547      839817.594 8    662608.63446  22698592.641    22698596.6714
  23736383.436     3506052.163 8   2805262.84445  23736382.445    23736387.8504
  20661796.134     -946674.606 9   -731346.97647  20661795.507    20661799.1064
  20230225.595    -8349981.741 9  -6485677.75748  20230225.077    20230226.8434
 01  7 12 18  7 30.0000000  0  9 23 15 03 06 21 26 22 17 18
  20863530.385    -1027825.682 9   -673300.05447  20863529.739    20863532.9144
  20252094.347    -5469004.813 9  -4251588.94647  20252093.507    20252096.5444
  22407879.123   -13759174.944 8 -10708810.26746  22407878.699    22407882.6214
  23185108.595    14059756.976 8  10891494.84345  23185108.294    23185114.2284
  22059622.378   -15058920.269 9 -11716246.68747  22059622.021    22059626.4424
  22710404.623      901889.422 8    710976.26746  22710404.614    22710408.4634
  23748600.581     3570252.078 8   2855288.64845  23748599.507    23748604.6074
  20666591.486     -921475.068 9   -711710.98547  20666590.837    20666594.4994
  20229635.468    -8353083.123 9  -6488094.42148  20229634.945    20229636.6884
 01  7 12 18  8  0.0000000  0  9 23 15 03 06 21 26 22 17 18
  20870265.495     -992432.488 9   -645720.95947  20870264.886    20870268.0844
  20251945.996    -5469784.520 9  -4252196.52247  20251945.150    20251948.2554
  22393286.140   -13835859.849 8 -10768564.70946  22393285.761    22393289.9924
  23204955.958    14164058.148 8  10972768.31145  23204956.033    23204961.8584
  22048028.083   -15119849.518 8 -11763723.99647  22048027.609    22048031.9334
  22722318.486      964497.814 8    759761.99146  22722318.516    22722322.5054
  23760874.710     3634753.322 8   2905549.29745  23760873.789    23760878.9674
  20671439.374     -895999.283 9   -691859.75047  20671438.761    20671442.4614
  20229132.114    -8355727.968 9  -6490155.34048  20229131.604    20229133.3404
 01  7 12 18  8 30.0000000  0  9 23 15 03 06 21 26 22 17 18
  20877063.153     -956710.904 9   -617885.97847  20877062.480    20877065.6654
  20251855.792    -5470258.765 9  -4252566.08248  20251854.972    20251858.0814
  22378762.589   -13912181.469 8 -10828036.06146  22378762.266    22378766.4544
  23224844.756    14268574.120 8  11054209.14945  23224844.914    23224850.7374
  22036488.226   -15180490.961 9 -11810977.05547  22036487.837    22036492.1824
  22734334.122     1027639.788 8    808963.49846  22734334.038    22734338.1234
  23773205.330     3699552.289 8   2956041.92845  23773204.554    23773209.9734
  20676339.749     -870247.583 9   -671793.51747  20676339.128    20676342.8544
  20228715.383    -8357917.966 9  -6491861.83448  20228714.902    20228716.5984
 01  7 12 18  9  0.0000000  0  9 23 15 03 06 21 26 22 17 18
  20883922.644     -920663.881 9   -589797.41247  20883922.021    20883925.2294
  20251823.475    -5470428.613 9  -4252698.43847  20251822.655    20251825.7484
  22364308.274   -13988138.726 8 -10887223.50546  22364307.922    22364312.1874
  23244774.324    14373301.251 8  11135814.57345  23244774.267    23244779.7324
  22025003.326   -15240845.776 9 -11858006.74747  22025002.788    22025007.0254
  22746450.611     1091311.969 8    858578.10746  22746450.579    22746454.3094
  23785592.007     3764644.402 8   3006762.95445  23785591.148    23785596.7454
  20681292.352     -844221.019 9   -651513.10647  20681291.790    20681295.5744
  20228384.759    -8359655.281 9  -6493215.58848  20228384.261    20228386.0244
 01  7 12 18  9 30.0000000  0  9 23 15 03 06 21 26 22 17 18
  20890843.872     -884292.757 9   -561456.28647  20890843.230    20890846.4784
  20251849.258    -5470293.329 9  -4252593.03148  20251848.427    20251851.5754
  22349924.147   -14063729.021 8 -10946124.98746  22349923.699    22349927.7964
  23264742.899    14478237.513 8  11217582.92845  23264742.924    23264748.6404
  22013572.827   -15300913.025 9 -11904812.36347  22013572.291    22013576.6594
  22758667.795     1155512.198 8    908604.21946  22758667.632    22758671.4134
  23798034.141     3830027.114 8   3057710.45045  23798033.174    23798038.7884
  20686297.458     -817919.123 9   -631018.14247  20686296.915    20686300.6474
  20228140.293    -8360940.202 9  -6494216.82748  20228139.810    20228141.5084
 01  7 12 18 10  0.0000000  0  9 23 15 03 06 21 26 22 17 18
  20897826.671     -847598.153 9   -532863.11347  20897826.036    20897829.2284
  20251933.338    -5469851.431 9  -4252248.70848  20251932.529    20251935.7264
  22335610.411   -14138948.640 8 -11004737.63246  22335609.759    22335613.8644
  23284751.373    14583382.195 8  11299513.71545  23284751.333    23284756.8674
  22002197.285   -15360691.880 9 -11951393.25447  22002196.676    22002201.1954
  22770984.736     1220239.480 8    959040.98345  22770984.795    22770988.4494
  23810531.497     3895699.287 8   3108883.51845  23810530.413    23810535.9864
  20691355.341     -791340.299 9   -610307.39547  20691354.763    20691358.4284
  20227981.887    -8361772.824 9  -6494865.62148  20227981.370    20227983.1144
 01  7 12 18 10 30.0000000  0  9 23 15 03 06 21 26 22 17 18
  20904870.453     -810582.723 9   -504019.93947  20904869.840    20904873.0024
  20252075.605    -5469103.782 9  -4251666.13047  20252074.771    20252077.9674
  22321366.976   -14213796.498 8 -11063060.61246  22321366.590    22321370.7594
  23304798.852    14688731.939 8  11381604.27145  23304798.853    23304804.5594
  21990876.617   -15420182.390 8 -11997749.46847  21990876.033    21990880.4644
  22783401.600     1285490.427 8   1009885.82945  22783401.660    22783405.2424
  23823083.061     3961657.183 8   3160279.20145  23823081.884    23823087.5394
  20696465.739     -764485.451 9   -589381.55147  20696465.085    20696468.6974
  20227909.135    -8362154.907 9  -6495163.35348  20227908.630    20227910.3924
 01  7 12 18 11  0.0000000  0  9 23 15 03 06 21 26 22 17 18
  20911975.269     -773246.895 9   -474927.10747  20911974.631    20911977.8064
  20252276.422    -5468048.468 9  -4250843.81747  20252275.581    20252278.8204
  22307195.340   -14288268.683 8 -11121090.84346  22307194.920    22307199.0334
  23324885.357    14794285.943 8  11463853.98845  23324885.308    23324890.8974
  21979611.059   -15479383.195 8 -12043879.94147  21979610.462    21979614.8454
  22795917.844     1351264.331 8   1061138.17545  22795917.983    22795921.7104
  23835688.278     4027898.967 8   3211896.07845  23835687.237    23835692.8614
  20701628.972     -737352.848 9   -568239.27647  20701628.301    20701631.8834
  20227922.261    -8362086.036 9  -6495109.68648  20227921.741    20227923.4734
 01  7 12 18 11 30.0000000  0  9 23 15 03 06 21 26 22 17 18
  20919140.500     -735593.279 9   -445586.64647  20919139.901    20919143.1014
  20252535.620    -5466686.170 9  -4249782.29247  20252534.812    20252538.0494
  22293095.129   -14362363.802 8 -11178827.27346  22293094.861    22293099.1144
  23345010.042    14900040.763 8  11546260.15845  23345010.006    23345015.1854
  21968400.449   -15538295.193 9 -12089785.36447  21968399.913    21968404.2334
  22808533.024     1417557.546 8   1112795.21746  22808533.092    22808536.8564
  23848346.716     4094420.186 8   3263730.72545  23848345.884    23848351.5424
  20706844.682     -709943.467 9   -546881.32847  20706844.090    20706847.6464
  20228020.801    -8361568.138 9  -6494706.13448  20228020.303    20228022.0174
 01  7 12 18 12  0.0000000  0  9 23 15 03 06 21 26 22 17 18
  20926365.978     -697623.447 9   -415999.77947  20926365.329    20926368.5304
  20252853.358    -5465016.039 9  -4248480.89947  20252852.562    20252855.7964
  22279067.525   -14436079.159 8 -11236267.77746  22279067.372    22279071.6234
  23365172.555    15005994.524 8  11628821.38045  23365172.437    23365177.4294
  21957244.806   -15596918.138 9 -12135465.55347  21957244.356    21957248.7144
  22821246.776     1484368.195 8   1164855.40346  22821246.859    22821250.7154
  23861058.084     4161218.671 8   3315781.39945  23861057.363    23861063.1194
  20712113.253     -682256.764 9   -525307.30547  20712112.673    20712116.2954
  20228204.761    -8360601.882 9  -6493953.20648  20228204.236    20228205.8924
 01  7 12 18 12 30.0000000  0  9 23 15 03 06 21 26 22 17 18
  20933651.072     -659339.988 9   -386168.53647  20933650.485    20933653.6504
  20253229.579    -5463038.765 9  -4246940.17447  20253228.812    20253232.0364
  22265112.722   -14509413.296 8 -11293411.21146  22265112.283    22265116.6194
  23385372.561    15112144.261 8  11711535.26145  23385372.313    23385377.1424
  21946144.164   -15655252.471 8 -12180920.84147  21946143.651    21946148.0754
  22834058.419     1551692.737 8   1217316.03146  22834058.350    22834062.1494
  23873821.848     4228291.021 7   3368045.45945  23873820.878    23873826.8054
  20717434.552     -654293.367 9   -503517.67047  20717433.969    20717437.5584
  20228473.572    -8359189.169 9  -6492852.39148  20228473.040    20228474.7654
 01  7 12 18 13  0.0000000  0  9 23 15 03 06 21 26 22 17 18
  20940995.636     -620744.240 9   -356093.94147  20940995.011    20940998.1974
  20253664.372    -5460753.855 9  -4245159.72947  20253663.591    20253666.8364
  22251230.775   -14582363.861 8 -11350255.78146  22251230.384    22251234.6734
  23405609.302    15218488.001 8  11794400.33145  23405609.074    23405613.9104
  21935098.367   -15713297.550 8 -12226150.73647  21935097.908    21935102.4114
  22846967.352     1619529.315 8   1270175.65746  22846967.233    22846971.1354
  23886636.500     4295634.520 7   3420520.85245  23886635.697    23886642.0274
  20722808.670     -626052.660 9   -481511.95047  20722808.038    20722811.6174
  20228827.182    -8357330.688 8  -6491404.22048  20228826.675    20228828.4274
 01  7 12 18 13 30.0000000  0  9 23 15 03 06 21 26 22 17 18
  20948399.461     -581836.738 9   -325776.43747  20948398.875    20948402.0244
  20254158.076    -5458159.310 9  -4243138.01747  20254157.299    20254160.5684
  22237422.572   -14654927.110 8 -11406798.52546  22237422.014    22237426.2364
  23425882.696    15325024.606 7  11877415.68645  23425882.230    23425887.6844
  21924108.034   -15771052.103 9 -12271154.27147  21924107.586    21924111.9884
  22859973.518     1687876.609 8   1323433.23746  22859973.350    22859977.3024
  23899502.670     4363247.109 7   3473205.86845  23899502.079    23899508.3354
  20728235.750     -597533.295 9   -459289.09147  20728235.101    20728238.6674
  20229265.673    -8355026.316 9  -6489608.61647  20229265.161    20229266.8994
 01  7 12 18 14  0.0000000  0  9 23 15 03 06 21 26 22 17 18
  20955862.442     -542618.525 9   -295216.81447  20955861.859    20955865.0004
  20254710.718    -5455254.577 9  -4240874.59447  20254710.006    20254713.3124
  22223688.107   -14727099.982 8 -11463037.11346  22223687.931    22223692.1134
  23446192.126    15431752.475 7  11960580.05945  23446191.809    23446197.6834
  21913173.253   -15828515.160 9 -12315930.65947  21913172.826    21913177.0604
  22873076.170     1756732.808 8   1377087.40446  22873076.138    22873080.3504
  23912419.817     4431126.264 7   3526098.62345  23912419.017    23912425.2204
  20733715.981     -568734.419 9   -436848.43547  20733715.348    20733718.8814
  20229789.054    -8352276.334 8  -6487465.77848  20229788.519    20229790.2474
 01  7 12 18 14 30.0000000  0  9 23 15 03 06 21 26 22 17 18
  20963383.904     -503092.965 9   -264417.70347  20963383.341    20963386.5024
  20255322.282    -5452040.704 9  -4238370.28247  20255321.573    20255324.9064
  22210028.699   -14798881.922 8 -11518971.05946  22210028.378    22210032.3984
  23466537.390    15538667.826 7  12043890.54745  23466537.085    23466542.9974
  21902293.395   -15885688.623 8 -12360481.37847  21902293.038    21902297.3494
  22886275.355     1826094.019 8   1431135.05946  22886275.262    22886279.3774
  23925386.793     4499268.112 7   3579196.04645  23925385.889    23925392.0364
  20739249.146     -539657.503 9   -414191.12247  20739248.517    20739252.0204
  20230396.548    -8349083.445 9  -6484977.81548  20230396.068    20230397.8174
 01  7 12 18 15  0.0000000  0  9 23 15 03 06 21 26 22 17 18
  20970963.617     -463261.352 9   -233380.10347  20970963.074    20970966.2704
  20255992.749    -5448517.067 9  -4235624.60347  20255992.029    20255995.4364
  22196444.011   -14870270.391 8 -11574598.39846  22196443.662    22196447.5824
  23486918.503    15645768.754 8  12127345.60145  23486918.113    23486923.8634
  21891468.787   -15942571.620 8 -12404805.75547  21891468.442    21891472.8034
  22899569.896     1895957.953 8   1485574.46646  22899569.828    22899573.9524
  23938403.469     4567670.162 7   3632496.24945  23938402.668    23938408.3744
  20744835.299     -510301.866 9   -391316.62647  20744834.670    20744838.1464
  20231088.357    -8345448.384 9  -6482145.31048  20231087.849    20231089.5274
 01  7 12 18 15 30.0000000  0  9 23 15 03 06 21 26 22 17 18
  20978601.226     -423125.805 9   -202105.67247  20978600.637    20978603.8494
  20256722.181    -5444683.647 9  -4232637.53147  20256721.504    20256724.9314
  22182934.561   -14941263.388 8 -11629917.59546  22182934.174    22182937.9704
  23507334.161    15753052.536 8  12210943.17445  23507333.681    23507339.3874
  21880699.431   -15999164.545 9 -12448904.12747  21880699.097    21880703.3734
  22912959.769     1966321.821 8   1540403.38346  22912959.678    22912963.8654
  23951468.976     4636328.741 7   3685996.34745  23951467.944    23951473.7494
  20750474.528     -480667.728 9   -368225.11147  20750473.916    20750477.2934
  20231863.890    -8341372.555 9  -6478969.34148  20231863.392    20231865.1514
 01  7 12 18 16  0.0000000  0  9 23 15 03 06 21 26 22 17 18
  20986296.431     -382687.354 9   -170595.21347  20986295.800    20986299.0534
  20257510.854    -5440539.356 9  -4229408.21847  20257510.187    20257513.5434
  22169501.001   -15011857.895 8 -11684926.26946  22169500.385    22169504.2454
  23527784.334    15860517.843 8  12294682.19345  23527784.063    23527789.8564
  21869985.638   -16055466.318 9 -12492775.61847  21869985.254    21869989.5204
  22926444.500     2037183.840 8   1595620.46545  22926444.343    22926448.3514
  23964582.707     4705241.377 7   3739694.39045  23964581.706    23964587.5684
  20756166.926     -450754.034 9   -344915.75947  20756166.345    20756169.6974
  20232723.427    -8336856.124 9  -6475450.05548  20232722.907    20232724.6084
 01  7 12 18 16 30.0000000  0  9 23 15 03 06 21 26 22 17 18
  20994049.049     -341947.442 9   -138849.84547  20994048.413    20994051.5754
  20258358.872    -5436083.418 9  -4225936.06447  20258358.180    20258361.5024
  22156143.285   -15082050.896 8 -11739622.10246  22156143.031    22156146.9014
  23548268.476    15968162.595 8  12378561.06545  23548268.134    23548274.2274
  21859327.443   -16111476.352 8 -12536419.76447  21859326.913    21859331.2434
  22940023.171     2108541.823 8   1651224.03645  22940023.252    22940027.3174
  23977744.247     4774405.759 8   3793588.60945  23977743.393    23977749.3544
  20761912.566     -420560.327 9   -321388.21447  20761912.007    20761915.3624
  20233666.525    -8331899.870 9  -6471588.03948  20233666.025    20233667.7744
 01  7 12 18 17  0.0000000  0  9 23 15 03 06 21 26 22 17 18
  21001858.690     -300907.514 9   -106870.69547  21001858.046    21001861.2414
  20259266.303    -5431315.500 9  -4222220.80547  20259265.582    20259268.8204
  22142863.090   -15151840.239 8 -11794003.37246  22142862.585    22142866.4154
  23568786.329    16075984.914 8  12462578.28645  23568785.999    23568792.4004
  21848724.568   -16167194.630 9 -12579836.57547  21848724.053    21848728.3764
  22953696.502     2180393.668 8   1707212.44945  22953696.406    22953700.3754
  23990953.697     4843819.632 8   3847677.27145  23990952.729    23990958.4864
  20767711.620     -390085.913 9   -297641.94247  20767711.122    20767714.4974
  20234693.241    -8326504.525 9  -6467383.87648  20234692.754    20234694.5134
 01  7 12 18 17 30.0000000  0  9 23 15 03 06 21 26 22 17 18
  21009724.737     -259570.798 9    -74660.28847  21009724.121    21009727.4114
  20260232.890    -5426236.572 9  -4218263.19547  20260232.123    20260235.3344
  22129659.659   -15221224.960 8 -11848069.36046  22129659.076    22129662.9794
  23589337.378    16183980.860 8  12546730.75345  23589336.971    23589343.7204
  21838177.108   -16222622.556 9 -12623027.16247  21838176.544    21838180.6184
  22967462.369     2252735.100 8   1763582.35345  22967462.536    22967466.4394
  24004209.394     4913478.382 8   3901956.73945  24004208.492    24004214.0834
  20773563.993     -359332.393 9   -273678.17847  20773563.421    20773566.7714
  20235802.929    -8320673.007 9  -6462839.84148  20235802.465    20235804.2044
 01  7 12 18 18  0.0000000  0  9 23 15 03 06 21 26 22 17 18
  21017647.217     -217937.744 9    -42218.97447  21017646.666    21017649.9384
  20261258.866    -5420845.065 9  -4214062.03547  20261258.113    20261261.3284
  22116533.942   -15290201.567 8 -11901817.33146  22116533.412    22116537.1194
  23609921.581    16292149.412 8  12631017.71145  23609921.101    23609927.8444
  21827685.302   -16277758.570 8 -12665990.26247  21827684.559    21827688.6044
  22981321.584     2325564.857 8   1820332.80246  22981321.722    22981325.8084
  24017511.281     4983379.936 8   3956425.42845  24017510.254    24017515.6264
  20779469.788     -328298.138 9   -249495.65847  20779469.153    20779472.4784
  20236995.754    -8314404.899 9  -6457955.60348  20236995.260    20236997.0164
 01  7 12 18 18 30.0000000  0  9 23 15 03 06 21 26 22 17 18
  21025625.950     -176010.036 9     -9548.04447  21025625.332    21025628.5234
  20262344.496    -5415140.519 9  -4209616.93347  20262343.731    20262346.9114
  22103486.264   -15358767.670 8 -11955245.45046  22103485.705    22103489.4254
  23630537.777    16400488.303 7  12715437.38145  23630537.269    23630544.3094
  21817248.491   -16332602.695 9 -12708725.91147  21817247.884    21817252.1634
  22995273.086     2398880.595 8   1877461.89246  22995273.274    22995277.1954
  24030858.502     5053521.127 8   4011080.82645  24030857.563    24030862.9904
  20785428.900     -296982.893 9   -225094.19247  20785428.237    20785431.6634
  20238271.322    -8307701.533 9  -6452732.20648  20238270.857    20238272.5864
 01  7 12 18 19  0.0000000  0  9 23 15 03 06 21 26 22 17 18
  21033660.253     -133789.064 9     23351.39747  21033659.660    21033662.9004
  20263489.817    -5409122.275 9  -4204927.39247  20263488.969    20263492.1254
  22090517.021   -15426920.728 8 -12008351.68846  22090516.544    22090520.2754
  23651185.828    16508995.630 7  12799988.31045  23651185.525    23651192.6334
  21806867.683   -16387154.375 9 -12751233.70447  21806867.090    21806871.2034
  23009316.789     2472679.982 8   1934967.86646  23009316.891    23009320.8714
  24044251.225     5123899.913 8   4065921.33345  24044250.331    24044256.0894
  20791441.478     -265386.233 9   -200473.43447  20791440.855    20791444.3474
  20239629.752    -8300563.349 9  -6447169.99048  20239629.236    20239630.9524
 01  7 12 18 19 30.0000000  0  9 23 15 03 06 21 26 22 17 18
  21041749.980      -91277.453 9     56477.31747  21041749.420    21041752.5634
  20264694.561    -5402790.955 9  -4199993.90747  20264693.765    20264696.9534
  22077626.461   -15494659.561 8 -12061135.15946  22077626.048    22077629.9894
  23671865.964    16617668.331 7  12884668.10845  23671865.668    23671872.8294
  21796542.573   -16441414.323 9 -12793514.16047  21796541.789    21796545.8434
  23023451.915     2546959.496 8   1992847.96445  23023451.876    23023455.8834
  24057688.891     5194512.743 8   4120944.21545  24057687.858    24057693.5664
  20797507.554     -233508.704 9   -175633.82947  20797506.975    20797510.5494
  20241070.433    -8292992.478 9  -6441270.61847  20241069.909    20241071.7134
 01  7 12 18 20  0.0000000  0  9 23 15 03 06 21 26 22 17 18
  21049894.629      -48476.957 9     89828.33447  21049894.052    21049897.2434
  20265959.010    -5396146.336 9  -4194816.28147  20265958.199    20265961.4024
  22064815.384   -15561981.908 8 -12113594.10946  22064815.036    22064818.9354
  23692576.944    16726504.023 7  12969474.91745  23692576.630    23692583.6484
  21786272.475   -16495382.720 9 -12835567.42847  21786271.858    21786276.0614
  23037677.529     2621716.528 8   2051100.15045  23037677.597    23037681.5244
  24071170.004     5265356.219 8   4176146.84945  24071169.056    24071174.8264
  20803627.203     -201350.127 9   -150575.21047  20803626.609    20803630.1614
  20242593.260    -8284990.062 9  -6435034.97347  20242592.715    20242594.4704
 01  7 12 18 20 30.0000000  0  9 23 15 03 06 21 26 22 17 18
  21058094.088       -5388.305 9    123403.87947  21058093.525    21058096.8354
  20267283.254    -5389186.788 9  -4189393.26347  20267282.453    20267285.7434
  22052084.313   -15628884.269 8 -12165725.78946  22052083.850    22052087.7344
  23713318.637    16835501.497 7  13054407.76945  23713318.381    23713325.5494
  21776058.242   -16549058.250 9 -12877392.50347  21776057.779    21776061.9844
  23051994.124     2696949.604 8   2109723.28345  23051994.027    23051998.0494
  24084694.331     5336428.041 7   4231527.39045  24084693.454    24084699.5204
  20809800.503     -168909.236 9   -125296.61747  20809799.885    20809803.5014
  20244198.119    -8276556.313 9  -6428463.22147  20244197.594    20244199.3914
 01  7 12 18 21  0.0000000  0  9 23 15 03 06 21 26 22 17 18
  21066348.045       37986.400 9    157202.32847  21066347.521    21066350.7954
  20268667.418    -5381912.462 9  -4183724.96847  20268666.654    20268670.0514
  22039433.368   -15695364.763 8 -12217528.73946  22039433.107    22039437.0174
  23734090.158    16944658.222 7  13139464.71345  23734090.071    23734097.5234
  21765899.875   -16602440.868 8 -12918989.32847  21765899.352    21765903.5034
  23066400.407     2772655.789 8   2168715.05945  23066400.353    23066404.4294
  24098261.672     5407725.227 8   4287083.54545  24098260.861    24098267.1154
  20816027.555     -136186.093 9    -99798.08447  20816026.905    20816030.4594
  20245884.816    -8267692.638 9  -6421556.47447  20245884.276    20245886.1014
 01  7 12 18 21 30.0000000  0  9 23 15 03 06 21 26 22 17 18
  21074656.149       81644.927 9    191221.93847  21074655.510    21074658.7394
  20270111.478    -5374323.690 9  -4177811.65447  20270110.754    20270114.1384
  22026863.314   -15761421.800 8 -12269001.72646  22026862.920    22026866.8984
  23754891.977    17053971.156 8  13224643.42045  23754891.850    23754899.2584
  21755796.966   -16655531.389 9 -12960358.54447  21755796.505    21755800.7374
  23080896.572     2848831.728 8   2228072.89646  23080896.348    23080900.5934
  24111871.813     5479244.531 8   4342812.77445  24111870.829    24111876.9414
  20822308.214     -103181.221 9    -74080.02447  20822307.566    20822311.0904
  20247652.936    -8258400.877 9  -6414316.14347  20247652.422    20247654.2034
 01  7 12 18 22  0.0000000  0  9 23 15 03 06 21 26 22 17 18
  21083017.634      125585.208 9    225461.10647  21083017.031    21083020.3264
  20271615.439    -5366420.330 9  -4171653.20247  20271614.733    20271618.1134
  22014373.956   -15827053.816 8 -12320143.52246  22014373.626    22014377.4014
  23775723.095    17163437.642 8  13309941.74545  23775722.819    23775730.3704
  21745749.738   -16708330.285 9 -13001500.50947  21745749.201    21745753.4764
  23095481.088     2925474.478 8   2287794.47045  23095480.891    23095485.1914
  24125523.698     5550982.679 7   4398712.51045  24125522.298    24125528.3344
  20828642.477      -69894.758 9    -48142.53747  20828641.801    20828645.2734
  20249502.338    -8248682.610 9  -6406743.47548  20249501.792    20249503.5814
 01  7 12 18 22 30.0000000  0  9 23 15 03 06 21 26 22 17 18
  21091432.772      169806.562 9    259919.27847  21091432.135    21091435.3604
  20273179.581    -5358200.908 9  -4165248.46147  20273178.870    20273182.1444
  22001966.256   -15892257.236 8 -12370951.35546  22001965.866    22001969.5874
  23796583.092    17273056.481 8  13395358.80245  23796582.838    23796590.2884
  21735758.336   -16760836.239 9 -13042414.21447  21735757.738    21735761.9634
  23110154.692     3002582.425 8   2347878.50945  23110154.293    23110158.2184
  24139215.882     5622937.397 7   4454781.04345  24139214.700    24139220.9814
  20835030.408      -36325.334 9    -21984.56947  20835029.819    20835033.2974
  20251432.715    -8238537.958 9  -6398838.55547  20251432.225    20251434.0484
 01  7 12 18 23  0.0000000  0  9 23 15 03 06 21 26 22 17 18
  21099901.069      214307.919 9    294595.64347  21099900.423    21099903.7094
  20274804.106    -5349664.419 9  -4158596.65547  20274803.366    20274806.5794
  21989640.561   -15957029.258 8 -12421423.03246  21989640.119    21989643.7314
  23817471.396    17382826.201 7  13480893.41845  23817471.338    23817479.2554
  21725822.542   -16813048.788 9 -13083099.28447  21725821.937    21725826.1254
  23124915.885     3080153.617 8   2408323.57845  23124915.524    23124919.8804
  24152948.776     5695106.200 7   4511016.36345  24152947.762    24152954.2704
  20841472.446       -2472.060 8      4394.57447  20841471.859    20841475.3644
  20253444.411    -8227967.112 9  -6390601.54548  20253443.902    20253445.5924
 01  7 12 18 23 30.0000000  0  9 23 15 03 06 21 26 22 17 18
  21108422.358      259087.446 9    329488.75547  21108421.734    21108424.9814
  20276488.950    -5340810.560 9  -4151697.55247  20276488.209    20276491.4524
  21977397.367   -16021367.546 8 -12471556.73446  21977396.935    21977400.4794
  23838388.461    17492744.506 7  13566543.77745  23838388.425    23838396.2654
  21715942.603   -16864967.872 9 -13123555.69447  21715942.066    21715946.1804
  23139764.937     3158185.428 8   2469127.49645  23139764.754    23139768.5294
  24166722.559     5767486.514 7   4567416.47545  24166721.446    24166727.8364
  20847968.563       31665.128 9     30994.95847  20847967.952    20847971.3994
  20255536.743    -8216971.565 9  -6382033.58248  20255536.214    20255538.0194
 01  7 12 18 24  0.0000000  0  9 23 15 03 06 21 26 22 17 18
  21116996.048      304142.009 9    364596.18647  21116995.368    21116998.5394
  20278233.918    -5331640.554 9  -4144552.10047  20278233.191    20278236.4144
  21965236.639   -16085271.467 8 -12521351.97546  21965236.144    21965240.0094
  23859333.363    17602807.598 7  13652306.96445  23859333.207    23859340.7454
  21706118.456   -16916594.535 9 -13163784.23847  21706117.887    21706121.9634
  23154700.240     3236673.564 8   2530287.08145  23154700.235    23154704.4414
  24180535.452     5840073.994 7   4623978.04345  24180534.524    24180541.0274
  20854518.496       66085.066 9     57815.65847  20854517.828    20854521.2744
  20257709.440    -8205554.061 9  -6373136.84348  20257708.960    20257710.6914
 01  7 12 18 24 30.0000000  0  9 23 15 03 06 21 26 22 17 18
  21125621.940      349471.577 9    399917.90447  21125621.307    21125624.5754
  20280039.477    -5322152.411 9  -4137158.74747  20280038.741    20280041.9624
  21953159.268   -16148737.438 8 -12570805.95947  21953159.054    21953163.0934
  23880305.078    17713014.609 7  13738182.30845  23880304.799    23880312.5074
  21696350.011   -16967927.517 9 -13203783.93847  21696349.520    21696353.6204
  23169723.048     3315617.078 8   2591801.43545  23169723.094    23169727.2194
  24194387.080     5912867.235 7   4680699.93645  24194386.724    24194393.3794
  20861122.493      100789.439 8     84858.00247  20861121.886    20861125.3084
  20259962.535    -8193714.052 9  -6363910.85947  20259961.990    20259963.7684
 01  7 12 18 25  0.0000000  0  9 23 15 03 06 21 26 22 17 18
  21134299.763      395073.876 9    435452.13247  21134299.129    21134302.4424
  20281905.546    -5312346.290 9  -4129517.62147  20281904.759    20281908.0144
  21941165.938   -16211763.928 8 -12619917.49147  21941165.518    21941169.7044
  23901303.893    17823362.668 7  13824167.56945  23901303.561    23901311.5094
  21686637.443   -17018967.191 9 -13243555.09047  21686636.973    21686641.0694
  23184831.238     3395012.356 8   2653667.87045  23184831.176    23184835.5154
  24208277.564     5985862.134 7   4737578.95345  24208277.278    24208284.1634
  20867780.600      135777.936 8    112121.72447  20867780.016    20867783.4524
  20262295.613    -8181453.537 9  -6354357.22448  20262295.115    20262296.8944
 01  7 12 18 25 30.0000000  0  9 23 15 03 06 21 26 22 17 18
  21143029.050      440946.256 9    471196.82947  21143028.426    21143031.6324
  20283831.993    -5302222.618 9  -4121629.04747  20283831.216    20283834.5124
  21929256.238   -16274349.313 8 -12668685.30146  21929255.942    21929260.0524
  23922329.127    17933848.666 7  13910260.30445  23922328.735    23922336.8204
  21676980.676   -17069714.423 9 -13283098.34247  21676980.059    21676984.2154
  23200024.962     3474856.222 8   2715883.79345  23200025.036    23200029.3094
  24222206.562     6059055.036 8   4794612.25345  24222205.755    24222212.5954
  20874492.705      171049.963 9    139606.39147  20874492.060    20874495.5524
  20264708.439    -8168774.507 9  -6344477.46747  20264707.855    20264709.6134
 01  7 12 18 26  0.0000000  0  9 23 15 03 06 21 26 22 17 18
  21151809.196      487086.133 9    507149.96847  21151808.578    21151811.8404
  20285818.771    -5291781.988 9  -4113493.49847  20285818.040    20285821.3394
  21917431.084   -16336492.275 8 -12717108.36346  21917430.598    21917434.5794
  23943380.044    18044469.527 7  13996458.10245  23943379.393    23943387.2814
  21667379.020   -17120170.520 9 -13322414.75847  21667378.506    21667382.7124
  23215303.548     3555144.923 8   2778446.38545  23215303.450    23215307.9584
  24236172.249     6132442.573 7   4851797.23645  24236171.098    24236177.6404
  20881258.573      206604.881 9    167311.48547  20881257.936    20881261.5244
  20267200.305    -8155679.000 9  -6334273.17947  20267199.799    20267201.6244
 01  7 12 18 26 30.0000000  0  9 23 15 03 06 21 26 22 17 18
  21160640.354      533494.097 9    543311.99047  21160639.714    21160643.0074
  20287866.432    -5281021.975 9  -4105109.06947  20287865.653    20287868.8814
  21905690.730   -16398188.406 8 -12765183.24947  21905690.286    21905694.0834
  23964456.286    18155225.144 7  14082760.91945  23964455.782    23964463.5834
  21657833.327   -17170332.955 9 -13361502.35347  21657832.834    21657837.0104
  23230666.614     3635878.127 8   2841355.27145  23230666.603    23230670.8504
  24250174.064     6206024.086 8   4909133.38045  24250173.255    24250179.3334
  20888078.728      242445.027 9    195238.84147  20888078.124    20888081.7764
  20269771.874    -8142165.848 9  -6323743.46247  20269771.309    20269773.0724
 01  7 12 18 27  0.0000000  0  9 23 15 03 06 21 26 22 17 18
  21169522.071      580167.682 9    579680.98847  21169521.435    21169524.7394
  20289974.727    -5269942.683 9  -4096475.85147  20289973.933    20289977.1534
  21894035.749   -16459436.302 8 -12812908.85047  21894035.185    21894038.8314
  23985557.726    18266112.577 7  14169166.49245  23985557.134    23985565.0704
  21648343.597   -17220202.128 9 -13400361.41047  21648343.124    21648347.2624
  23246113.900     3717052.157 8   2904607.71245  23246113.551    23246117.8454
  24264212.631     6279795.550 7   4966617.56045  24264211.566    24264217.6744
  20894953.100      278569.979 9    223388.12547  20894952.505    20894956.2114
  20272422.327    -8128237.320 9  -6312890.06747  20272421.794    20272423.5714
 01  7 12 18 27 30.0000000  0  9 23 15 03 06 21 26 22 17 18
  21178454.125      627105.987 9    616256.27247  21178453.502    21178456.8594
  20292144.023    -5258542.970 9  -4087592.96147  20292143.271    20292146.5114
  21882466.532   -16520233.238 8 -12860283.05847  21882465.974    21882469.4624
  24006683.423    18377130.238 7  14255673.52045  24006683.069    24006691.3294
  21638909.634   -17269777.350 9 -13438991.43747  21638909.205    21638913.3644
  23261644.097     3798665.083 8   2968202.12445  23261644.108    23261648.3824
  24278286.294     6353754.334 7   5024247.69545  24278285.293    24278291.7934
  20901881.873      314980.677 9    251760.06347  20901881.269    20901885.0224
  20275151.919    -8113893.787 9  -6301713.29347  20275151.315    20275153.0834
 01  7 12 18 28  0.0000000  0  9 23 15 03 06 21 26 22 17 18
  21187436.135      674307.012 9    653036.25747  21187435.564    21187438.8644
  20294374.318    -5246823.085 9  -4078460.58747  20294373.518    20294376.7494
  21870983.129   -16580577.423 8 -12907304.48547  21870982.704    21870986.1104
  24027834.080    18488275.237 7  14342279.74645  24027833.696    24027841.9184
  21629531.617   -17319059.112 9 -13477392.77847  21629531.117    21629535.3064
  23277257.815     3880713.851 8   3032136.18445  23277257.591    23277261.7884
  24292395.104     6427897.524 8   5082021.49445  24292394.384    24292400.9044
  20908865.040      351677.018 9    280354.57547  20908864.414    20908868.1804
  20277959.959    -8099137.026 9  -6290214.53247  20277959.391    20277961.2094
 01  7 12 18 28 30.0000000  0  9 23 15 03 06 21 26 22 17 18
  21196467.858      721768.684 9    690019.35347  21196467.261    21196470.5744
  20296665.447    -5234783.089 9  -4069078.77647  20296664.622    20296667.8584
  21859586.415   -16640467.168 8 -12953971.78647  21859586.034    21859589.4454
  24049008.224    18599544.949 7  14428983.15345  24049007.818    24049015.9094
  21620209.437   -17368048.073 9 -13515565.96347  21620208.881    21620213.0174
  23292953.325     3963195.192 8   3096407.31645  23292953.244    23292957.6014
  24306538.829     6502222.099 7   5139936.68045  24306538.054    24306544.2874
  20915902.424      388658.628 9    309171.37947  20915901.812    20915905.5614
  20280846.420    -8083968.757 9  -6278395.10547  20280845.863    20280847.6304
 01  7 12 18 29  0.0000000  0  9 23 15 03 06 21 26 22 17 18
  21205548.969      769489.989 9    727204.77047  21205548.364    21205551.6984
  20299017.669    -5222421.846 9  -4059446.64047  20299016.863    20299020.0744
  21848276.594   -16699899.660 8 -13000282.80447  21848276.263    21848279.7784
  24070205.709    18710937.823 7  14515782.53945  24070205.493    24070212.8594
  21610943.017   -17416743.457 9 -13553510.39047  21610942.426    21610946.5894
  23308731.030     4046107.154 8   3161013.97845  23308730.962    23308735.3034
  24320716.286     6576725.701 7   5197991.34345  24320715.598    24320721.7624
  20922994.274      425926.663 9    338211.37447  20922993.653    20922997.3544
  20283811.098    -8068389.253 9  -6266255.24447  20283810.560    20283812.3564
 01  7 12 18 29 30.0000000  0  9 23 15 03 06 21 26 22 17 18
  21214679.106      817469.231 9    764591.16947  21214678.474    21214681.7714
  20301431.162    -5209738.843 9  -4049563.78247  20301430.352    20301433.5594
  21837054.409   -16758872.638 8 -13046235.74947  21837054.092    21837057.6214
  24091426.402    18822451.793 7  14602676.24445  24091426.261    24091433.2724
  21601732.414   -17465145.233 9 -13591226.03947  21601731.862    21601735.9754
  23324589.718     4129447.025 8   3225954.07645  23324589.953    23324594.2884
  24334927.136     6651404.968 7   5256182.87245  24334926.391    24334933.1214
  20930140.654      463481.292 9    367474.68747  20930140.045    20930143.7184
  20286853.835    -8052399.739 9  -6253795.90047  20286853.284    20286855.0814
 01  7 12 18 30  0.0000000  0  9 23 15 03 06 21 26 22 17 18
  21223857.962      865703.994 9    802176.68147  21223857.329    21223860.6124
  20303905.699    -5196734.543 9  -4039430.56247  20303904.959    20303908.1964
  21825919.777   -16817384.729 8 -13091829.57347  21825919.520    21825923.1254
  24112669.781    18934083.905 7  14689662.00945  24112669.456    24112676.3104
  21592577.697   -17513253.955 9 -13628713.34047  21592577.040    21592581.1654
  23340529.592     4213211.307 8   3291224.89845  23340529.838    23340534.1064
  24349170.630     6726256.182 7   5314508.38145  24349170.229    24349177.3734
  20937341.525      501322.024 8    396960.94347  20937340.891    20937344.5594
  20289974.164    -8036002.343 9  -6241018.70847  20289973.584    20289975.4134
 01  7 12 18 30 30.0000000  0 10 31 23 15 03 06 21 26 22 17 18
  24435317.222    -2565960.97317  -1981702.10255  24435316.263    24435322.2794
  21233085.000      914191.872 9    839959.42147  21233084.282    21233087.6164
  20306441.310    -5183409.304 9  -4029047.26847  20306440.624    20306443.8374
  21814873.281   -16875434.637 8 -13137063.23847  21814872.988    21814876.6224
  24133934.257    19045830.903 7  14776737.37545  24133934.144    24133941.0874
  21583478.234   -17561070.889 9 -13665973.26947  21583477.769    21583481.9424
  23356549.572     4297396.526 8   3356823.71545  23356549.666    23356554.0394
  24363447.369     6801276.289 7   5372965.48745  24363446.536    24363453.4024
  20944596.719      539448.314 8    426669.70947  20944596.068    20944599.7904
  20293171.634    -8019199.124 9  -6227925.30447  20293171.100    20293172.8994
 01  7 12 18 31  0.0000000  0 10 31 23 15 03 06 21 26 22 17 18
  24416169.830    -2666581.150 7  -2060107.34445  24416168.868    24416174.7714
  21242359.040      962927.630 9    877935.30447  21242358.351    21242361.6944
  20309037.563    -5169766.378 9  -4018416.41647  20309036.836    20309040.0074
  21803914.151   -16933024.043 8 -13181938.08947  21803913.944    21803917.7904
  24155219.667    19157686.821 7  14863897.52944  24155219.480    24155226.5944
  21574433.859   -17608599.406 9 -13703008.45447  21574433.381    21574437.5814
  23372648.716     4381996.354 7   3422745.56745  23372648.642    23372652.8064
  24377754.667     6876458.770 7   5431549.12445  24377753.423    24377760.0404
  20951905.541      577856.860 8    456598.41447  20951904.938    20951908.7484
  20296445.497    -8001994.914 9  -6214519.43547  20296444.964    20296446.8014
 01  7 12 18 31 30.0000000  0 10 31 23 15 03 06 21 26 22 17 18
  24397063.661    -2766984.357 7  -2138343.55545  24397062.646    24397068.4504
  21251681.529     1011917.354 9    916109.09847  21251680.868    21251684.1724
  20311695.796    -5155797.680 9  -4007531.71947  20311695.016    20311698.2024
  21793044.935   -16990142.883 8 -13226446.26147  21793044.599    21793048.5014
  24176526.913    19269657.440 7  14951147.11544  24176526.688    24176534.0844
  21565445.890   -17655831.406 9 -13739812.58747  21565445.403    21565449.5854
  23388827.251     4467015.640 8   3488994.31845  23388827.292    23388831.5974
  24392091.912     6951808.118 7   5490262.85545  24392091.508    24392098.2854
  20959269.589      616555.529 8    486753.18447  20959269.100    20959272.8874
  20299796.993    -7984382.967 9  -6200795.85447  20299796.453    20299798.2704
 01  7 12 18 32  0.0000000  0 10 31 23 15 03 06 21 26 22 17 18
  24377998.697    -2867170.195 7  -2216410.33545  24377997.614    24378003.6074
  21261051.477     1061157.458 9    954478.00247  21261050.861    21261054.2884
  20314415.664    -5141504.776 9  -3996394.38847  20314414.863    20314418.1334
  21782265.021   -17046791.205 8 -13270587.79447  21782264.782    21782268.7034
  24197855.570    19381738.113 7  15038482.35244  24197855.522    24197862.5794
  21556513.882   -17702769.438 9 -13776387.64647  21556513.376    21556517.5354
  23405085.173     4552449.571 8   3555566.12445  23405084.927    23405089.1034
  24406460.895     7027318.868 7   5549102.26445  24406460.709    24406467.5004
  20966688.734      655542.539 8    517132.63947  20966688.204    20966691.9554
  20303225.341    -7966367.123 9  -6186757.54647  20303224.770    20303226.5704
 01  7 12 18 32 30.0000000  0 10 31 23 15 03 06 21 26 22 17 18
  24358975.050    -2967137.101 7  -2294306.56045  24358974.492    24358980.6524
  21270468.664     1110645.080 9    993039.77047  21270468.121    21270471.3974
  20317197.064    -5126888.529 9  -3985005.10747  20317196.238    20317199.5374
  21771574.807   -17102968.244 8 -13314362.09147  21771574.672    21771578.4894
  24219204.313    19493925.602 7  15125900.90445  24219204.413    24219211.0884
  21547637.725   -17749414.737 9 -13812734.61847  21547637.091    21547641.1494
  23421420.874     4638294.277 8   3622458.03645  23421420.738    23421424.9684
  24420860.653     7102987.338 7   5608064.60545  24420860.110    24420866.9084
  20974162.631      694816.959 8    547736.05947  20974161.970    20974165.6074
  20306730.072    -7947949.532 9  -6172406.18147  20306729.524    20306731.3764
 01  7 12 18 33  0.0000000  0 10 31 23 15 03 06 21 26 22 17 18
  24339994.304    -3066882.220 7  -2372029.97945  24339993.783    24339999.7674
  21279932.759     1160378.837 9   1031793.33847  21279932.130    21279935.4744
  20320040.170    -5111948.068 9  -3973363.19447  20320039.339    20320042.6504
  21760974.973   -17158671.698 8 -13357767.35347  21760974.691    21760978.3934
  24240572.811    19606217.848 7  15213401.10745  24240572.892    24240579.9114
  21538817.237   -17795766.914 9 -13848853.16847  21538816.578    21538820.5684
  23437834.707     4724547.257 8   3689668.04645  23437834.335    23437838.6814
  24435289.671     7178811.397 7   5667148.15945  24435289.040    24435295.8784
  20981691.190      734379.286 8    578563.81147  20981690.488    20981694.1634
  20310311.025    -7929131.128 9  -6157742.50247  20310310.505    20310312.3874
 01  7 12 18 33 30.0000000  0 10 31 23 15 03 06 21 26 22 17 18
  24321056.015    -3166403.973 7  -2449579.34245  24321055.534    24321061.3174
  21289443.096     1210356.317 9   1070736.81047  21289442.546    21289445.9514
  20322944.888    -5096683.795 9  -3961468.95047  20322944.089    20322947.3464
  21750465.456   -17213900.025 8 -13400802.38847  21750465.186    21750468.6484
  24261961.048    19718611.955 7  15300980.68045  24261960.854    24261968.4104
  21530052.246   -17841826.606 9 -13884743.79947  21530051.665    21530055.6834
  23454324.569     4811204.856 8   3757193.39745  23454324.469    23454329.0364
  24449747.578     7254787.194 7   5726349.99145  24449747.002    24449753.5094
  20989274.242      774229.073 8    609615.56447  20989273.578    20989277.3064
  20313967.958    -7909914.075 9  -6142768.18647  20313967.413    20313969.2314
 01  7 12 18 34  0.0000000  0 10 31 23 15 03 06 21 26 22 17 18
  24302160.966    -3265698.844 7  -2526951.88345  24302160.424    24302165.9814
  21298999.716     1260576.324 9   1109869.26247  21298999.060    21299002.4894
  20325911.297    -5081095.178 9  -3949321.97347  20325910.475    20325913.7304
  21740047.024   -17268650.638 8 -13443465.18347  21740046.579    21740049.8654
  24283368.261    19831105.784 7  15388637.89845  24283367.886    24283375.9054
  21521343.053   -17887593.756 9 -13920406.47647  21521342.455    21521346.4334
  23470891.682     4898264.787 8   3825032.19645  23470891.669    23470895.9824
  24464233.540     7330911.588 7   5785667.64445  24464233.104    24464239.7804
  20996912.213      814366.882 8    640891.74047  20996911.571    20996915.3394
  20317700.490    -7890299.438 9  -6127484.05647  20317699.949    20317701.8034
 01  7 12 18 34 30.0000000  0 10 31 23 15 03 06 21 26 22 17 18
  24283309.409    -3364764.021 7  -2604145.46145  24283308.856    24283314.3044
  21308602.129     1311037.633 9   1149189.74647  21308601.552    21308604.9804
  20328939.466    -5065181.349 9  -3936921.59647  20328938.689    20328942.0394
  21729719.676   -17322921.096 8 -13485753.83047  21729719.318    21729722.4174
  24304793.394    19943697.738 7  15476371.60744  24304792.981    24304801.4374
  21512689.581   -17933067.589 9 -13955840.60547  21512689.055    21512693.0024
  23487534.584     4985724.486 8   3893182.56145  23487534.509    23487539.1944
  24478747.706     7407182.217 7   5845099.17145  24478746.667    24478754.0754
  21004605.137      854793.476 8    672392.94947  21004604.525    21004608.2014
  20321508.655    -7870287.866 9  -6111890.64647  20321508.103    20321509.9104
 01  7 12 18 35  0.0000000  0 10 31 23 15 03 06 21 26 22 17 18
  24264502.115    -3463597.316 7  -2681158.35445  24264501.514    24264506.9414
  21318250.246     1361738.133 9   1188696.62347  21318249.603    21318253.0034
  20332029.485    -5048942.587 9  -3924268.02447  20332028.739    20332032.1384
  21719484.063   -17376710.355 8 -13527667.51247  21719483.594    21719486.6014
  24326237.618    20056384.957 7  15564179.51944  24326236.957    24326245.4014
  21504091.782   -17978248.962 9 -13991046.84547  21504091.277    21504095.2164
  23504253.101     5073580.737 8   3961641.88645  23504253.154    23504257.6884
  24493289.266     7483596.045 7   5904642.25545  24493287.859    24493295.4574
  21012352.932      895508.380 8    704118.81347  21012352.341    21012355.9754
  20325391.842    -7849881.329 9  -6095989.45547  20325391.284    20325393.1454
 01  7 12 18 35 30.0000000  0 10 31 23 15 03 06 21 26 22 17 18
  24245739.358    -3562196.203 7  -2757988.59145  24245738.934    24245744.0804
  21327943.470     1412676.064 9   1228388.50847  21327942.802    21327946.1274
  20335181.597    -5032378.456 9  -3911360.90847  20335180.837    20335184.1754
  21709340.236   -17430016.301 8 -13569204.58747  21709339.737    21709342.7714
  24347699.555    20169165.005 7  15652059.75444  24347698.807    24347707.2974
  21495549.669   -18023137.931 9 -14026025.23947  21495549.211    21495553.1004
  23521046.374     5161830.588 7   4030407.94245  23521046.508    23521051.0274
  24507857.218     7560150.128 7   5964294.67445  24507855.895    24507863.0954
  21020155.759      936511.723 8    736069.44047  21020155.129    21020158.7134
  20329349.993    -7829081.179 9  -6079781.55447  20329349.474    20329351.2934
 01  7 12 18 36  0.0000000  0 10 31 23 15 03 06 21 26 22 17 18
  24227021.795    -3660559.257 7  -2834635.10545  24227021.302    24227025.8324
  21337681.319     1463848.776 9   1268263.35047  21337680.611    21337683.9984
  20338395.546    -5015489.576 9  -3898200.73847  20338394.762    20338398.0244
  21699288.536   -17482837.957 8 -13610364.29647  21699287.996    21699291.1414
  24369178.562    20282034.580 7  15740009.70345  24369177.938    24369186.1024
  21487062.962   -18067735.766 9 -14060776.77747  21487062.536    21487066.4524
  23537914.207     5250470.247 7   4099477.72945  23537914.240    23537918.6824
  24522450.952     7636840.385 7   6024053.24145  24522449.621    24522456.4064
  21028013.266      977802.770 8    768244.25647  21028012.630    21028016.2074
  20333382.536    -7807889.783 9  -6063268.78947  20333382.023    20333383.8844
 01  7 12 18 36 30.0000000  0 10 31 23 15 03 06 21 26 22 17 18
  24208350.096    -3758682.357 7  -2911094.55645  24208349.010    24208353.5584
  21347463.795     1515256.021 9   1308320.93147  21347463.119    21347466.5364
  20341671.584    -4998274.426 9  -3884786.34547  20341670.804    20341673.9834
  21689329.365   -17535172.385 8 -13651144.35647  21689328.960    21689332.2504
  24390674.165    20394992.732 7  15828028.73744  24390673.447    24390681.3174
  21478631.923   -18112041.324 9 -14095300.54947  21478631.423    21478635.4514
  23554855.598     5339498.189 8   4168850.07945  23554855.663    23554859.9974
  24537070.163     7713664.550 7   6083916.12845  24537068.770    24537075.5374
  21035925.780     1019382.994 8    800644.40347  21035925.122    21035928.7104
  20337489.551    -7786307.344 9  -6046451.31247  20337489.039    20337490.8894
 01  7 12 18 37  0.0000000  0 10 31 23 15 03 06 21 26 22 17 18
  24189723.569    -3856562.096 7  -2987364.40045  24189722.753    24189727.7404
  21357290.791     1566897.026 9   1348560.66747  21357290.066    21357293.4824
  20345009.913    -4980731.663 9  -3871116.67047  20345009.113    20345012.2414
  21679463.705   -17587016.701 8 -13691542.49747  21679463.260    21679466.6914
  24412185.245    20508037.948 7  15916115.66744  24412184.797    24412193.5264
  21470256.551   -18156054.135 9 -14129596.22547  21470256.081    21470260.0234
  23571870.824     5428912.418 7   4238523.41345  23571870.843    23571874.9364
  24551714.798     7790621.020 7   6143882.10245  24551713.442    24551719.9044
  21043893.471     1061253.392 8    833270.65647  21043892.826    21043896.3614
  20341671.021    -7764334.263 9  -6029329.43847  20341670.435    20341672.2964
 01  7 12 18 37 30.0000000  0 10 31 23 15 03 06 21 26 22 17 18
  24171143.682    -3954196.070 7  -3063442.79245  24171143.516    24171148.8104
  21367161.805     1618769.941 9   1388981.10947  21367161.112    21367164.5704
  20348410.578    -4962861.210 9  -3857191.64347  20348409.759    20348412.9084
  21669691.592   -17638369.078 8 -13731557.31847  21669691.314    21669694.6464
  24433713.194    20621167.758 7  16004268.43844  24433713.000    24433722.1824
  21461937.105   -18199773.826 9 -14163663.49147  21461936.521    21461940.2794
  23588958.367     5518709.577 8   4308495.14745  23588958.664    23588962.7894
  24566383.905     7867706.938 7   6203948.96445  24566382.437    24566388.9484
  21051916.382     1103413.873 8    866122.94647  21051915.752    21051919.1854
  20345926.338    -7741972.076 9  -6011904.36647  20345925.819    20345927.6604
 01  7 12 18 38  0.0000000  0 10 31 23 15 03 06 21 26 22 17 18
  24152611.393    -4051582.405 7  -3139328.18945  24152611.475    24152616.9404
  21377076.582     1670872.126 9   1429580.20747  21377075.848    21377079.3274
  20351873.418    -4944663.748 9  -3843011.80347  20351872.582    20351875.8564
  21660013.486   -17689228.392 8 -13771187.92847  21660012.975    21660016.5694
  24455257.658    20734378.940 7  16092484.55744  24455257.566    24455265.6024
  21453672.851   -18243202.049 9 -14197503.62647  21453672.262    21453676.1484
  23606118.474     5608886.012 8   4378762.41345  23606118.714    23606123.0714
  24581076.684     7944918.289 7   6264113.52045  24581075.295    24581081.6544
  21059994.380     1145863.681 8    899200.69847  21059993.710    21059997.1254
  20350255.373    -7719223.149 9  -5994177.93747  20350254.812    20350256.6664
 01  7 12 18 38 30.0000000  0 10 31 23 15 03 06 21 26 22 17 18
  24134127.264    -4148718.874 7  -3215018.79445  24134126.802    24134132.3134
  21387034.560     1723201.771 9   1470356.54847  21387033.864    21387037.2324
  20355398.451    -4926139.131 9  -3828577.04147  20355397.651    20355400.9954
  21650429.220   -17739593.089 8 -13810433.12847  21650428.980    21650432.6294
  24476816.029    20847668.766 7  16180762.04344  24476815.713    24476823.8854
  21445464.131   -18286339.102 9 -14231116.88447  21445463.544    21445467.5174
  23623350.278     5699438.598 8   4449322.76645  23623350.535    23623355.0154
  24595792.454     8022251.605 7   6324373.14445  24595791.238    24595798.1724
  21068127.336     1188602.828 8    932503.89047  21068126.700    21068130.2024
  20354657.603    -7696089.148 9  -5976151.45247  20354657.074    20354658.9214
 01  7 12 18 39  0.0000000  0 10 31 23 15 03 06 21 26 22 17 18
  24115690.860    -4245601.982 7  -3290512.09545  24115690.365    24115696.1614
  21397035.629     1775757.915 9   1511309.38647  21397034.951    21397038.3354
  20358985.891    -4907286.445 9  -3813886.64547  20358985.128    20358988.4974
  21640939.828   -17789460.831 8 -13849291.09947  21640939.380    21640943.0754
  24498389.545    20961035.769 7  16269099.62044  24498389.225    24498397.0554
  21437311.060   -18329184.618 9 -14264502.97547  21437310.409    21437314.2504
  23640652.843     5790365.082 8   4520174.46145  23640653.176    23640657.6844
  24610530.859     8099704.310 7   6384725.81145  24610529.946    24610537.3414
  21076315.464     1231632.051 8    966033.11947  21076314.861    21076318.5034
  20359132.994    -7672570.966 9  -5957825.60447  20359132.416    20359134.3114
 01  7 12 18 39 30.0000000  0 10 31 23 15 03 06 21 26 22 17 18
  24097303.038    -4342229.446 7  -3365806.11645  24097302.595    24097308.2214
  21407079.490     1828538.646 9   1552437.21047  21407078.838    21407082.3184
  20362635.854    -4888105.684 9  -3798940.61247  20362635.111    20362638.4194
  21631545.190   -17838829.945 8 -13887760.51647  21631544.743    21631548.5184
  24519977.341    21074477.364 7  16357495.25044  24519977.322    24519984.6394
  21429212.987   -18371739.034 9 -14297662.23447  21429212.445    21429216.2744
  23658026.563     5881662.441 7   4591315.12145  23658026.679    23658031.0564
  24625291.846     8177273.884 7   6445169.49845  24625290.975    24625298.2674
  21084558.882     1274951.236 8    999788.31447  21084558.234    21084561.9514
  20363681.175    -7648670.123 9  -5939201.58247  20363680.637    20363682.5184
 01  7 12 18 40  0.0000000  0  9 31 23 15 03 21 26 22 17 18
  24078964.331    -4438598.377 7  -3440898.72945  24078964.359    24078969.8834
  21417165.835     1881542.650 9   1593739.01547  21417165.175    21417168.6224
  20366348.539    -4868595.933 9  -3783738.21547  20366347.761    20366351.0144
  21622246.004   -17887698.299 8 -13925839.73747  21622245.501    21622249.0414
  21421170.634   -18414001.707 9 -14330594.16647  21421170.112    21421173.8174
  23675469.762     5973328.122 8   4662742.84945  23675470.044    23675474.8724
  24640074.747     8254957.861 7   6505702.38145  24640073.723    24640081.0024
  21092857.547     1318561.173 8   1033770.05147  21092856.939    21092860.6874
  20368302.071    -7624387.634 9  -5920280.16947  20368301.458    20368303.2704
 01  7 12 18 40 30.0000000  0  9 31 23 15 03 21 26 22 17 18
  24060676.177    -4534706.633 7  -3515788.17145  24060675.701    24060680.8824
  21427294.282     1934767.867 9   1635213.18447  21427293.563    21427296.9914
  20370123.706    -4848757.639 9  -3768279.81447  20370122.917    20370126.1624
  21613042.230   -17936064.657 8 -13963527.79647  21613041.703    21613045.2884
  21413183.761   -18455973.565 9 -14363299.48847  21413183.202    21413186.9154
  23692982.754     6065358.623 7   4734454.78745  23692982.988    23692987.7304
  24654878.904     8332752.453 7   6566321.45745  24654877.523    24654884.7424
  21101211.542     1362461.194 8   1067977.84347  21101210.876    21101214.6324
  20372995.066    -7599725.361 9  -5901062.82647  20372994.539    20372996.4004
 01  7 12 18 41  0.0000000  0  9 31 23 15 03 21 26 22 17 18
  24042437.584    -4630552.770 7  -3590473.40045  24042436.788    24042442.1084
  21437464.272     1988211.391 9   1676857.48047  21437463.583    21437467.0274
  20373961.154    -4828591.668 9  -3752566.08347  20373960.361    20373963.6634
  21603933.782   -17983928.290 8 -14000824.11447  21603933.428    21603937.1074
  21405251.766   -18497655.894 9 -14395779.18247  21405251.193    21405255.0604
  23710564.495     6157749.787 7   4806447.80545  23710564.548    23710569.1244
  24669703.398     8410653.202 7   6627023.23645  24669702.049    24669709.0164
  21109620.446     1406650.420 8   1102410.98747  21109619.814    21109623.5884
  20377759.997    -7574685.923 9  -5881551.58647  20377759.421    20377761.2174
 01  7 12 18 41 30.0000000  0  9 31 23 15 03 21 26 22 17 18
  24024249.389    -4726131.958 7  -3664950.59845  24024248.569    24024253.7354
  21447675.873     2041873.796 9   1718672.34047  21447675.153    21447678.6474
  20377861.422    -4808095.430 9  -3736594.99947  20377860.641    20377863.9324
  21594922.021   -18031284.894 8 -14037725.34547  21594921.697    21594925.3994
  21397375.320   -18539046.829 9 -14428031.84347  21397374.835    21397378.5794
  23728213.786     6250501.023 7   4878721.43845  23728214.240    23728219.4544
  24684547.957     8488659.488 7   6687807.27645  24684546.773    24684553.4224
  21118084.756     1451131.131 8   1137071.26247  21118084.195    21118088.0434
  20382596.715    -7549268.542 9  -5861745.83847  20382596.152    20382597.9894
 01  7 12 18 42  0.0000000  0  9 31 23 15 03 21 26 22 17 18
  24006111.959    -4821442.263 7  -3739218.30945  24006111.635    24006116.6564
  21457928.722     2095752.965 9   1760656.09847  21457928.035    21457931.4344
  20381824.550    -4787269.360 9  -3720366.89947  20381823.727    20381826.9794
  21586007.183   -18078133.420 9 -14074230.68447  21586006.818    21586010.3054
  21389554.365   -18580147.281 9 -14460058.15547  21389553.710    21389557.2924
  23745931.923     6343608.599 8   4951272.68545  23745932.103    23745937.2234
  24699411.262     8566768.250 7   6748671.11844  24699410.035    24699416.9634
  21126604.462     1495902.931 8   1171958.34647  21126603.917    21126607.9644
  20387504.863    -7523475.440 9  -5841647.33647  20387504.384    20387506.2914
 01  7 12 18 42 30.0000000  0  9 31 23 15 03 21 26 22 17 18
  23988026.817    -4916480.194 7  -3813273.73245  23988026.386    23988031.2734
  21468222.810     2149848.163 9   1802808.19447  21468222.089    21468225.4044
  20385850.623    -4766112.077 9  -3703880.71547  20385849.810    20385853.0914
  21577189.497   -18124471.731 9 -14110338.43947  21577188.963    21577192.2894
  21381788.477   -18620956.416 9 -14491857.44747  21381787.857    21381791.6114
  23763717.469     6437070.762 7   5024100.23645  23763717.630    23763722.4894
  24714293.365     8644977.543 7   6809613.29344  24714292.451    24714299.6194
  21135179.787     1540966.765 8   1207072.99647  21135179.270    21135183.3864
  20392484.616    -7497307.180 9  -5821256.49147  20392484.067    20392485.9074
 01  7 12 18 43  0.0000000  0  9 31 23 15 03 21 26 22 17 18
  23969993.476    -5011243.020 7  -3887114.84345  23969993.289    23969998.5264
  21478557.521     2204157.808 9   1845127.37747  21478556.835    21478560.2474
  20389939.652    -4744623.540 9  -3687136.42247  20389938.919    20389942.2404
  21568469.027   -18170297.775 8 -14146047.03447  21568468.500    21568471.9034
  21374078.132   -18661474.573 9 -14523430.00747  21374077.524    21374081.3554
  23781569.192     6530884.261 8   5097201.57245  23781569.621    23781574.6684
  24729194.742     8723283.734 7   6870631.05445  24729194.034    24729200.4944
  21143810.776     1586322.663 8   1242415.22247  21143810.255    21143814.3754
  20397535.420    -7470765.134 9  -5800574.38847  20397534.860    20397536.7704
 01  7 12 18 43 30.0000000  0  9 31 23 15 03 21 26 22 17 18
  23952012.891    -5105731.303 7  -3960742.00445  23952012.657    23952017.8614
  21488932.178     2258677.192 9   1887609.99147  21488931.552    21488934.9064
  20394091.445    -4722806.059 9  -3670135.80347  20394090.685    20394094.0214
  21559845.796   -18215613.046 8 -14181357.60747  21559845.280    21559848.6854
  21366422.630   -18701704.313 9 -14554777.82247  21366421.974    21366425.8564
  23799487.788     6625043.496 7   5170572.31445  23799487.886    23799492.7844
  24744113.682     8801680.766 7   6931719.56745  24744112.826    24744119.3404
  21152496.844     1631967.718 8   1277982.76547  21152496.282    21152500.3014
  20402656.508    -7443853.736 9  -5779604.47847  20402655.945    20402657.7854
 01  7 12 18 44  0.0000000  0  9 31 23 15 03 21 26 22 17 18
  23934085.462    -5199939.721 7  -4034151.07345  23934085.208    23934090.3024
  21499347.034     2313407.173 9   1930256.70847  21499346.392    21499349.6894
  20398306.339    -4700657.168 9  -3652876.93847  20398305.517    20398308.7964
  21551320.609   -18260413.144 8 -14216266.76947  21551320.121    21551323.4864
  21358822.234   -18741643.830 9 -14585899.51347  21358821.696    21358825.4804
  23817471.336     6719547.616 7   5244211.80545  23817471.617    23817476.3574
  24759048.851     8880168.666 7   6992878.84945  24759048.498    24759055.6324
  21161238.448     1677904.708 8   1313777.78647  21161237.850    21161241.8714
  20407848.074    -7416571.942 9  -5758345.95347  20407847.511    20407849.3094
 01  7 12 18 44 30.0000000  0  9 31 23 15 03 21 26 22 17 18
  23916211.766    -5293865.105 7  -4107339.62245  23916211.631    23916216.8784
  21509801.718     2368346.924 9   1973066.88047  21509801.004    21509804.4534
  20402584.319    -4678175.969 9  -3635359.13147  20402583.525    20402586.8124
  21542894.017   -18304695.593 9 -14250772.56447  21542893.535    21542896.8514
  21351277.157   -18781293.108 9 -14616795.02447  21351276.639    21351280.4904
  23835520.209     6814394.697 8   5318118.53945  23835520.522    23835525.1844
  24774001.603     8958745.419 7   7054107.36845  24774001.055    24774008.8464
  21170035.550     1724134.281 8   1349800.79947  21170035.010    21170039.0794
  20413109.980    -7388920.529 9  -5736799.40147  20413109.429    20413111.2914
 01  7 12 18 45  0.0000000  0  9 31 23 15 03 21 26 22 17 18
  23898392.234    -5387507.384 8  -4180307.58745  23898392.187    23898397.5114
  21520295.561     2423492.192 9   2016037.19447  21520294.920    21520298.2414
  20406925.093    -4655364.624 9  -3617584.07347  20406924.340    20406927.6494
  21534565.838   -18348461.339 9 -14284875.73147  21534565.310    21534568.5774
  21343786.910   -18820654.496 9 -14647466.20747  21343786.364    21343790.2634
  23853633.540     6909579.030 7   5392288.04845  23853633.742    23853638.3644
  24788971.068     9037405.409 7   7115400.76445  24788969.972    24788977.4584
  21178888.008     1770654.087 8   1386049.98847  21178887.461    21178891.5604
  20418441.459    -7360903.442 9  -5714967.91647  20418440.927    20418442.7214
 01  7 12 18 45 30.0000000  0  9 31 23 15 03 21 26 22 17 18
  23880628.019    -5480862.740 7  -4253051.92845  23880627.196    23880632.6444
  21530828.385     2478842.662 9   2059167.41747  21530827.718    21530831.1614
  20411329.071    -4632221.756 9  -3599550.68947  20411328.292    20411331.6704
  21526336.447   -18391707.626 8 -14318574.11747  21526335.788    21526339.1344
  21336351.622   -18859727.535 9 -14677912.70847  21336351.062    21336354.8274
  23871810.573     7005098.879 7   5466719.01545  23871810.629    23871815.2534
  24803955.260     9116146.251 7   7176757.20345  24803954.159    24803961.3684
  21187795.901     1817465.323 8   1422526.24247  21187795.305    21187799.5474
  20423842.546    -7332521.161 9  -5692851.86247  20423841.949    20423843.7524
 01  7 12 18 46  0.0000000  0  9 31 23 15 03 21 26 22 17 18
  23862917.655    -5573927.884 7  -4325570.16745  23862917.226    23862923.1324
  21541400.065     2534397.260 9   2102456.68647  21541399.419    21541402.9124
  20415796.279    -4608746.472 9  -3581258.27447  20415795.469    20415798.8654
  21518206.013   -18434432.477 9 -14351866.20247  21518205.546    21518208.9554
  21328971.100   -18898511.784 9 -14708134.16347  21328970.551    21328974.4604
  23890050.596     7100951.826 8   5541409.52745  23890050.782    23890055.6904
  24818954.275     9194965.875 7   7238174.96145  24818952.907    24818960.3964
  21196759.223     1864568.642 8   1459230.09647  21196758.669    21196762.9804
  20429312.766    -7303774.575 9  -5670451.93447  20429312.231    20429314.1244
 01  7 12 18 46 30.0000000  0  9 31 23 15 03 21 26 22 17 18
  23845263.617    -5666699.376 7  -4397859.57745  23845263.447    23845269.2024
  21552010.456     2590155.467 9   2145904.63047  21552009.814    21552013.3054
  20420326.942    -4584937.487 9  -3562705.83447  20420326.182    20420329.5344
  21510175.620   -18476633.166 9 -14384749.82947  21510175.026    21510178.3834
  21321645.814   -18937006.289 9 -14738129.84847  21321645.342    21321649.1984
  23908354.050     7197136.146 8   5616358.22145  23908354.221    23908359.0764
  24833967.819     9273862.871 7   7299653.02945  24833966.522    24833974.1994
  21205778.548     1911965.349 8   1496162.56347  21205778.005    21205782.2824
  20434852.374    -7274664.009 9  -5647768.38447  20434851.767    20434853.6374
 01  7 12 18 47  0.0000000  0  8 31 23 15 03 21 26 17 18
  23827667.173    -5759171.069 7  -4469915.37845  23827666.749    23827672.4604
  21562660.149     2646119.390 9   2189512.85347  21562659.501    21562662.9374
  20424922.031    -4560790.805 9  -3543890.24347  20424921.261    20424924.5104
  21502245.928   -18518304.314 9 -14417220.84047  21502245.245    21502248.6654
  21314376.419   -18975207.448 9 -14767896.96647  21314375.885    21314379.6654
  23926720.383     7293652.445 7   5691565.62145  23926720.516    23926725.6254
  21214854.536     1959659.079 8   1533326.45847  21214853.972    21214858.1014
  20440461.558    -7245187.259 9  -5624799.49847  20440461.023    20440462.8684
 01  7 12 18 47 30.0000000  0  8 31 23 15 03 21 26 17 18
  23810127.961    -5851343.068 8  -4541737.61145  23810127.132    23810132.6614
  21573348.093     2702284.669 9   2233277.97647  21573347.393    21573350.8754
  20429580.845    -4536309.147 9  -3524813.63247  20429580.016    20429583.2424
  21494416.560   -18559447.229 8 -14449280.24047  21494415.956    21494419.3494
  21307162.118   -19013118.692 9 -14797438.15947  21307161.579    21307165.3594
  23945148.340     7390494.640 7   5767026.98245  23945148.769    23945154.1254
  21223986.574     2007647.048 8   1570719.63647  21223985.930    21223989.9924
  20446139.652    -7215348.752 9  -5601548.72047  20446139.093    20446140.9234
 01  7 12 18 48  0.0000000  0  8 31 23 15 03 21 26 17 18
  23792644.730    -5943218.071 8  -4613328.46745  23792643.925    23792649.4784
  21584072.825     2758644.047 9   2277194.35647  21584072.228    21584075.7084
  20434302.234    -4511497.917 9  -3505480.21547  20434301.388    20434304.6934
  21486686.874   -18600066.113 9 -14480931.30647  21486686.427    21486689.8154
  21300001.872   -19050745.778 9 -14826757.94547  21300001.346    21300005.1744
  23963637.610     7487654.544 7   5842735.85045  23963637.898    23963643.0094
  21233173.467     2055923.718 8   1608337.78247  21233172.840    21233176.7074
  20451885.171    -7185155.733 9  -5578021.70947  20451884.665    20451886.5084
 01  7 12 18 48 30.0000000  0  8 31 23 15 03 21 26 17 18
  23775218.704    -6034792.135 8  -4684684.79245  23775218.089    23775223.5624
  21594834.641     2815197.416 9   2321261.88447  21594834.047    21594837.5114
  20439086.605    -4486355.234 9  -3485888.53047  20439085.825    20439089.1774
  21479057.785   -18640157.681 9 -14512171.48547  21479057.198    21479060.5644
  21292896.045   -19088087.332 9 -14855855.23247  21292895.505    21292899.3704
  23982186.666     7585130.499 7   5918691.05045  23982186.978    23982192.3474
  21242415.620     2104490.638 8   1646182.10947  21242414.932    21242418.5754
  20457698.278    -7154608.112 9  -5554218.38247  20457697.701    20457699.5294
 01  7 12 18 49  0.0000000  0  8 31 23 15 03 21 26 17 18
  23757850.571    -6126061.720 8  -4755803.87145  23757849.983    23757855.5634
  21605633.215     2871944.073 8   2365480.03247  21605632.542    21605636.0104
  20443934.383    -4460880.198 9  -3466037.86447  20443933.589    20443936.9254
  21471529.327   -18679719.653 9 -14542998.99347  21471528.780    21471532.0494
  21285844.492   -19125143.188 9 -14884729.91047  21285843.947    21285847.7784
  24000795.600     7682920.330 7   5994890.82445  24000795.695    24000801.1564
  21251713.161     2153348.815 8   1684253.38847  21251712.366    21251715.9174
  20463578.616    -7123706.469 9  -5530139.18147  20463578.099    20463579.8804
 01  7 12 18 49 30.0000000  0  8 31 23 15 03 21 26 17 18
  23740541.258    -6217022.176 8  -4826682.06645  23740540.607    23740546.2234
  21616468.612     2928884.706 9   2409849.34747  21616467.991    21616471.4184
  20448845.902    -4435070.190 9  -3445926.17347  20448845.079    20448848.4164
  21464102.285   -18718748.468 9 -14573411.04447  21464101.822    21464105.0204
  21278847.725   -19161911.525 9 -14913380.53547  21278847.141    21278850.9694
  24019464.098     7781023.403 7   6071334.67645  24019464.340    24019469.7004
  21261066.314     2202500.460 8   1722553.32447  21261065.600    21261069.1394
  20469526.559    -7092450.181 9  -5505783.64347  20469526.002    20469527.8634
 01  7 12 18 50  0.0000000  0  8 31 23 15 03 21 26 17 18
  23723290.925    -6307671.167 7  -4897317.58545  23723290.448    23723296.2914
  21627340.672     2986017.315 8   2454368.24047  21627340.004    21627343.4394
  20453821.049    -4408925.504 9  -3425553.70347  20453820.285    20453823.6324
  21456776.931   -18757242.724 8 -14603406.55747  21456776.493    21456779.8564
  21271905.605   -19198392.303 9 -14941807.09547  21271905.077    21271909.0004
  24038191.665     7879436.149 7   6148019.83845  24038191.507    24038196.8194
  21270475.257     2251945.170 8   1761081.62347  21270474.587    21270478.0824
  20475541.480    -7060841.092 9  -5481153.19247  20475540.958    20475542.8274
 01  7 12 18 50 30.0000000  0  8 31 23 15 03 21 26 17 18
  23706100.341    -6398006.202 7  -4967708.45745  23706100.179    23706105.7864
  21638248.731     3043340.013 8   2499035.25547  21638248.083    21638251.6464
  20458860.019    -4382446.032 9  -3404920.35747  20458859.276    20458862.5974
  21449553.477   -18795201.293 8 -14632984.64747  21449553.124    21449556.4814
  21265018.117   -19234586.457 9 -14970010.31947  21265017.605    21265021.4424
  24056977.795     7978155.630 7   6224944.01645  24056977.420    24056982.8544
  21279940.026     2301682.958 8   1799838.29947  21279939.354    21279942.8994
  20481623.415    -7028880.887 9  -5456249.14547  20481622.848    20481624.6054
 01  7 12 18 51  0.0000000  0  8 31 23 15 03 21 26 17 18
  23688970.305    -6488024.796 7  -5037852.72445  23688970.088    23688975.6874
  21649192.797     3100851.473 9   2543849.35047  21649192.206    21649195.7154
  20463962.823    -4355631.498 9  -3384025.92547  20463961.984    20463965.2644
  21442432.298   -18832622.503 9 -14662144.03147  21442432.083    21442435.5604
  21258185.036   -19270494.466 9 -14997990.57147  21258184.435    21258188.2214
  24075821.568     8077178.911 8   6302104.90645  24075821.305    24075826.6344
  21289460.501     2351713.957 8   1838823.44647  21289459.824    21289463.5924
  20487771.713    -6996571.001 9  -5431072.61547  20487771.141    20487773.0244
 01  7 12 18 51 30.0000000  0  8 31 23 15 03 21 26 17 18
  23671900.674    -6577724.453 8  -5107748.49245  23671900.784    23671906.3314
  21660172.570     3158550.034 8   2588809.25047  21660171.885    21660175.3404
  20469129.248    -4328481.837 9  -3362870.35447  20469128.328    20469131.6664
  21435413.775   -18869505.297 8 -14690883.84747  21435413.413    21435416.8314
  21251406.369   -19306116.597 9 -15025748.05647  21251405.848    21251409.5754
  24094722.462     8176502.756 7   6379499.99245  24094722.092    24094727.0974
  21299036.617     2402037.992 8   1878036.94247  21299036.044    21299040.1134
  20493986.303    -6963913.178 9  -5405624.97047  20493985.759    20493987.5714
 01  7 12 18 52  0.0000000  0  8 31 23 15 03 21 26 17 18
  23654892.930    -6667102.351 8  -5177393.54645  23654892.957    23654898.2504
  21671187.480     3216434.558 9   2633914.05847  21671186.909    21671190.4774
  20474359.338    -4300996.270 9  -3341453.04147  20474358.537    20474361.8834
  21428497.895   -18905847.725 9 -14719202.61647  21428497.610    21428501.1644
  21244682.087   -19341452.881 9 -15053282.80747  21244681.543    21244685.3594
  24113679.555     8276124.686 7   6457127.41145  24113679.447    24113684.6684
  21308668.753     2452655.463 8   1917479.09947  21308668.246    21308672.3254
  20500266.902    -6930908.514 9  -5379907.05847  20500266.341    20500268.1874
 01  7 12 18 52 30.0000000  0  8 31 23 15 03 21 26 17 18
  23637946.719    -6756157.570 8  -5246787.14945  23637946.470    23637951.5754
  21682237.473     3274501.878 8   2679161.28647  21682236.830    21682240.3964
  20479653.253    -4273176.209 9  -3319775.07847  20479652.521    20479655.8614
  21421684.953   -18941650.031 9 -14747100.51847  21421684.606    21421688.0644
  21238011.831   -19376505.545 9 -15080596.53147  21238011.171    21238015.0664
  24132693.198     8376039.984 7   6534983.38145  24132692.914    24132698.2374
  21318356.714     2503564.854 8   1957148.71147  21318356.139    21318360.1274
  20506612.886    -6897560.294 9  -5353921.44247  20506612.338    20506614.1624
 01  7 12 18 53  0.0000000  0  8 31 23 15 03 21 26 17 18
  23621062.676    -6844886.473 8  -5315926.46545  23621061.759    23621066.6714
  21693322.009     3332751.559 8   2724550.62747  21693321.386    21693324.8484
  20485011.151    -4245020.815 9  -3297835.81247  20485010.352    20485013.7094
  21414975.263   -18976910.280 9 -14774576.02247  21414974.871    21414978.3424
  21231395.514   -19411273.598 9 -15107688.51447  21231395.041    21231398.8664
  24151761.606     8476246.677 7   6613066.43245  24151761.524    24151767.2314
  21328100.433     2554767.077 8   1997046.52147  21328099.774    21328103.5734
  20513024.192    -6863868.894 9  -5327668.41247  20513023.629    20513025.3784
 01  7 12 18 53 30.0000000  0  8 31 23 15 03 21 26 17 18
  23604241.000    -6933285.554 8  -5384808.78745  23604239.865    23604244.7204
  21704441.021     3391182.606 8   2770081.30447  21704440.419    21704443.9784
  20490433.095    -4216528.752 9  -3275634.20447  20490432.259    20490435.6614
  21408369.207   -19011625.887 9 -14801627.14247  21408368.775    21408372.2274
  21224833.803   -19445756.330 9 -15134558.14447  21224833.254    21224836.8994
  24170885.405     8576742.644 7   6691374.86345  24170885.344    24170891.1144
  21337899.891     2606263.010 8   2037173.17146  21337899.190    21337903.0414
  20519500.594    -6829835.069 9  -5301148.54847  20519500.036    20519501.8464
 01  7 12 18 54  0.0000000  0  8 31 23 15 03 21 26 17 18
  23587482.058    -7021354.031 7  -5453433.49445  23587480.737    23587485.6614
  21715594.047     3449791.882 9   2815750.83947  21715593.457    21715597.0424
  20495918.662    -4187701.698 9  -3253171.57047  20495917.871    20495921.1984
  21401866.559   -19045797.381 9 -14828254.27747  21401866.226    21401869.6544
  21218325.734   -19479956.153 9 -15161207.32547  21218325.179    21218328.9194
  24190063.805     8677523.049 7   6769904.91945  24190063.338    24190068.8404
  21347754.817     2658050.877 8   2077527.33546  21347754.127    21347757.9114
  20526041.505    -6795462.166 9  -5274364.47547  20526040.987    20526042.8654
 01  7 12 18 54 30.0000000  0  8 31 23 15 03 21 26 17 18
  23570786.611    -7109085.050 7  -5521795.26045  23570785.815    23570790.8204
  21726781.649     3508582.119 8   2861561.37947  21726780.992    21726784.3844
  20501468.891    -4158535.207 9  -3230444.44147  20501468.099    20501471.3334
  21395468.709   -19079419.330 9 -14854453.19847  21395468.345    21395471.6574
  21211872.431   -19513869.025 9 -15187632.92547  21211871.847    21211875.4584
  24209295.798     8778589.297 7   6848657.76745  24209295.503    24209301.2014
  21357666.151     2710135.015 8   2118112.34247  21357665.526    21357669.2014
  20532647.610    -6760747.315 9  -5247313.95947  20532647.064    20532648.8464
 01  7 12 18 55  0.0000000  0  8 31 23 15 03 21 26 17 18
  23554155.585    -7196478.878 7  -5589894.28045  23554155.078    23554160.3804
  21738002.627     3567549.194 8   2907509.72747  21738002.014    21738005.5604
  20507083.195    -4129031.822 9  -3207454.79247  20507082.382    20507085.6874
  21389175.104   -19112492.971 9 -14880224.86347  21389174.662    21389177.8974
  21205473.050   -19547497.940 9 -15213837.25747  21205472.447    21205475.9814
  24228580.847     8879935.632 7   6927628.83845  24228581.032    24228586.8534
  21367633.367     2762512.781 8   2158926.15547  21367632.735    21367636.3514
  20539317.843    -6725694.791 9  -5220000.30047  20539317.297    20539319.1074
 01  7 12 18 55 30.0000000  0  8 31 23 15 03 21 26 17 18
  23537589.978    -7283532.121 8  -5657727.89845  23537589.286    23537594.6804
  21749257.144     3626692.241 8   2953595.17847  21749256.563    21749260.1854
  20512761.740    -4099190.561 9  -3184201.88247  20512760.951    20512764.4174
  21382986.137   -19145016.317 9 -14905567.72047  21382985.617    21382988.8544
  21199127.539   -19580843.174 9 -15239820.54247  21199126.990    21199130.6084
  24247919.284     8981559.795 7   7006816.36845  24247919.265    24247924.8954
  21377656.484     2815184.777 8   2199969.23747  21377655.837    21377659.5494
  20546052.132    -6690305.596 9  -5192424.31947  20546051.644    20546053.5084
 01  7 12 18 56  0.0000000  0  8 31 23 15 03 21 26 17 18
  23521089.315    -7370242.854 8  -5725294.63745  23521088.759    23521094.2324
  21760544.788     3686008.982 8   2999815.98447  21760544.208    21760547.6464
  20518504.452    -4069012.036 9  -3160686.16447  20518503.676    20518507.2124
  21376901.896   -19176988.998 9 -14930481.49247  21376901.379    21376904.6124
  21192836.099   -19613905.342 9 -15265583.25747  21192835.515    21192839.1484
  24267310.291     9083458.103 7   7086217.53645  24267310.220    24267315.7134
  21387735.290     2868150.292 8   2241241.02447  21387734.759    21387738.6914
  20552850.239    -6654581.803 9  -5164587.60347  20552849.678    20552851.5034
 01  7 12 18 56 30.0000000  0  8 31 23 15 03 21 26 17 18
  23504654.737    -7456608.619 8  -5792592.55745  23504653.946    23504659.3454
  21771865.291     3745497.766 8   3046170.86147  21771864.632    21771868.0614
  20524311.394    -4038496.260 9  -3136907.64847  20524310.625    20524314.1184
  21370922.593   -19208409.804 9 -14954965.23747  21370922.109    21370925.3374
  21186598.329   -19646685.001 9 -15291125.83247  21186597.734    21186601.3064
  24286752.546     9185627.531 7   7165829.96845  24286752.761    24286758.3694
  21397870.226     2921409.283 8   2282741.51546  21397869.633    21397873.6164
  20559711.494    -6618525.220 9  -5136491.57647  20559710.998    20559712.7874
 01  7 12 18 57  0.0000000  0  8 31 23 15 03 21 26 17 18
  23488285.848    -7542626.895 8  -5859619.73645  23488285.198    23488290.4594
  21783218.064     3805157.368 8   3092658.83247  21783217.432    21783220.9974
  20530182.615    -4007642.798 9  -3112865.99947  20530181.841    20530185.3044
  21365048.646   -19239277.150 9 -14979017.70847  21365048.105    21365051.4394
  21180414.235   -19679182.192 9 -15316448.29847  21180413.635    21180417.2664
  24306245.559     9288065.114 7   7245651.40845  24306245.726    24306251.6884
  21408061.009     2974961.812 8   2324470.72646  21408060.398    21408064.3234
  20566635.975    -6582137.225 9  -5108137.31047  20566635.435    20566637.2614
 01  7 12 18 57 30.0000000  0  8 31 23 15 03 21 26 17 18
  23471983.795    -7628295.798 8  -5926374.63845  23471982.865    23471988.2824
  21794603.041     3864985.668 9   3139278.25547  21794602.431    21794605.8834
  20536118.057    -3976452.123 9  -3088561.58447  20536117.302    20536120.7374
  21359280.146   -19269590.584 9 -15002638.55447  21359279.659    21359283.0204
  21174283.771   -19711398.106 9 -15341551.58247  21174283.189    21174286.8104
  24325789.368     9390767.416 7   7325679.06545  24325789.516    24325795.2364
  21418307.647     3028807.442 8   2366428.32547  21418307.024    21418310.8484
  20573623.019    -6545419.802 9  -5079526.34147  20573622.518    20573624.3234
 01  7 12 18 58  0.0000000  0  8 31 23 15 03 21 26 17 18
  23455748.084    -7713612.533 7  -5992855.15745  23455747.424    23455753.0924
  21806019.812     3924981.184 9   3186027.98747  21806019.217    21806022.6944
  20542117.725    -3944924.144 9  -3063994.34247  20542116.948    20542120.3634
  21353617.056   -19299349.069 9 -15025826.98847  21353616.709    21353620.1104
  21168206.766   -19743333.078 9 -15366435.95347  21168206.176    21168209.8214
  24345383.305     9493731.454 7   7405910.65845  24345383.341    24345388.7144
  21428610.007     3082945.953 8   2408614.14347  21428609.332    21428613.1624
  20580672.547    -6508374.516 9  -5050659.89647  20580671.987    20580673.8024
 01  7 12 18 58 30.0000000  0  8 31 23 15 03 21 26 17 18
  23439580.531    -7798572.688 8  -6059057.80145  23439579.898    23439585.6144
  21817468.702     3985144.675 9   3232908.60447  21817468.011    21817471.4744
  20548181.975    -3913056.544 9  -3039162.46747  20548181.180    20548184.6014
  21348060.461   -19328549.180 9 -15048580.31347  21348060.156    21348063.5294
  21162183.327   -19774985.874 9 -15391100.44847  21162182.786    21162186.4264
  24365026.171     9596956.366 7   7486345.55345  24365026.335    24365031.7314
  21438968.356     3137379.607 8   2451029.94747  21438967.682    21438971.6144
  20587784.447    -6471000.914 9  -5021537.62447  20587783.934    20587785.8264
 01  7 12 18 59  0.0000000  0  9 31 23 15 03 29 21 26 17 18
  23423481.155    -7883172.742 8  -6124979.88945  23423480.841    23423486.5574
  21828949.276     4045475.496 8   3279919.58747  21828948.613    21828952.0844
  20554310.990    -3880848.392 9  -3014065.22047  20554310.217    20554313.6304
  21342610.489   -19357189.166 9 -15070897.18547  21342610.178    21342613.6444
  24047500.898                                    24047506.658    24047646.1014
  21156213.900   -19806355.751 9 -15415544.49647  21156213.368    21156216.8244
  24384717.613     9700439.788 7   7566981.94145  24384718.171    24384724.2094
  21449382.888     3192109.035 8   2493676.23846  21449382.302    21449386.3304
  20594958.710    -6433300.043 9  -4992160.34447  20594958.177    20594960.0644
 01  7 12 18 59 30.0000000  0  9 31 23 15 03 29 21 26 17 18
  23407451.655    -7967410.808 8  -6190619.85145  23407450.989    23407456.4784
  21840461.332     4105971.475 8   3327059.27747  21840460.644    21840464.2064
  20560504.711    -3848300.214 9  -2988703.02547  20560503.919    20560507.3874
  21337267.218   -19385268.624 9 -15092777.26647  21337266.798    21337270.4024
  24026610.275                                    24026615.110    24026615.8644
  21150298.104   -19837443.412 9 -15439768.61747  21150297.544    21150301.1384
  24404458.777     9804178.145 7   7647816.92345  24404459.054    24404465.0514
  21459853.692     3247133.330 8   2536552.28946  21459853.053    21459857.1444
  20602194.926    -6395273.806 9  -4962529.52447  20602194.358    20602196.2454
 01  7 12 19  0  0.0000000  0  9 31 23 15 03 29 21 26 17 18
  23391490.821    -8051285.658 8  -6255976.82845  23391490.228    23391495.4944
  21852004.218     4166629.755 8   3374325.44447  21852003.533    21852007.0984
  20566762.875    -3815413.320 9  -2963076.89647  20566762.067    20566765.5964
  21332030.560   -19412787.635 9 -15114220.65247  21332030.182    21332033.7304
  24005735.583                                    24005739.842    24005743.9334
  21144435.500   -19868250.961 9 -15463774.47547  21144435.032    21144438.6384
  24424247.923     9908167.167 7   7728847.26945  24424247.445    24424253.5964
  21470380.350     3302451.343 8   2579657.19547  21470379.675    21470383.8944
  20609492.379    -6356925.122 9  -4932647.44447  20609491.876    20609493.7844
 01  7 12 19  0 30.0000000  0  9 31 23 15 03 29 21 26 17 18
  23375599.823    -8134796.631 8  -6321050.23745  23375598.970    23375603.8334
  21863577.170     4227447.014 9   3421715.49047  21863576.581    21863580.1624
  20573085.184    -3782189.214 9  -2937188.00047  20573084.420    20573087.9094
  21326900.516   -19439746.863 9 -15135227.83647  21326900.034    21326903.6174
  23984875.727     -347165.55654                  23984876.326    23984884.0364
  21138625.946   -19898780.639 9 -15487563.80747  21138625.414    21138628.9534
  24444083.681    10012402.205 7   7810069.25445  24444083.082    24444089.0654
  21480962.556     3358061.223 8   2622989.54447  21480961.920    21480966.1854
  20616850.708    -6318257.253 9  -4902516.66447  20616850.161    20616852.0254
 01  7 12 19  1  0.0000000  0  9 31 23 15 03 29 21 26 17 18
  23359778.226    -8217939.749 8  -6385837.02545  23359777.323    23359782.1034
  21875180.804     4288423.573 9   3469229.66347  21875180.197    21875183.6524
  20579472.049    -3748626.142 9  -2911034.97847  20579471.259    20579474.7594
  21321877.349   -19466143.909 9 -15155796.95847  21321876.872    21321880.4364
  23964031.441     -951096.64517   -432518.14945  23964031.037    23964039.2244
  21132869.478   -19929031.088 9 -15511135.56447  21132868.969    21132872.4354
  24463965.527    10116881.854 7   7891481.86145  24463965.229    24463971.0694
  21491600.659     3413964.530 8   2666550.55247  21491599.985    21491604.2794
  20624269.795    -6279269.900 9  -4872136.92347  20624269.275    20624271.0954
 01  7 12 19  1 30.0000000  0  9 31 23 15 03 29 21 26 17 18
  23344026.932    -8300711.963 8  -6450334.80045  23344026.167    23344030.9914
  21886814.395     4349558.240 8   3516867.03847  21886813.734    21886817.2654
  20585923.536    -3714723.488 9  -2884617.34547  20585922.722    20585926.2254
  21316961.435   -19491977.012 9 -15175926.64747  21316960.995    21316964.5644
  23943204.205    -1060545.809 7   -517803.05845  23943205.054    23943211.9614
  21127166.094   -19959002.115 9 -15534489.58647  21127165.568    21127169.1184
  24483893.338    10221603.457 7   7973083.03345  24483893.243    24483899.0334
  21502294.517     3470161.580 8   2710340.43147  21502293.921    21502298.2684
  20631749.399    -6239964.418 9  -4841509.28647  20631748.867    20631750.6824
 01  7 12 19  2  0.0000000  0  8 31 23 15 03 29 21 17 18
  23328347.356    -8383109.603 8  -6514540.68545  23328346.432    23328351.3894
  21898477.898     4410850.957 9   3564627.56047  21898477.359    21898480.9454
  20592439.849    -3680479.865 9  -2857934.03747  20592439.011    20592442.5814
  21312153.171   -19517244.082 9 -15195615.27147  21312152.764    21312156.3494
  23922394.541    -1169904.298 8   -603017.27345  23922394.451    23922401.2984
  21121516.055   -19988693.106 9 -15557625.41547  21121515.599    21121519.1244
  21513044.698     3526653.654 8   2754360.17546  21513044.119    21513048.4054
  20639289.552    -6200340.829 9  -4810633.78747  20639289.028    20639290.8614
 01  7 12 19  2 30.0000000  0  8 31 23 15 03 29 21 17 18
  23312739.614    -8465130.423 8  -6578452.94745  23312738.367    23312743.2174
  21910171.353     4472300.171 8   3612510.03247  21910170.765    21910174.4644
  20599021.087    -3645895.356 9  -2830985.08647  20599020.295    20599023.7594
  21307452.897   -19541944.122 9 -15214862.05447  21307452.537    21307456.0834
  23901602.001    -1279169.997 7   -688159.23045  23901601.825    23901608.7314
  21115919.261   -20018104.745 9 -15580543.55147  21115918.754    21115922.2944
  21523850.984     3583440.496 8   2798609.61246  21523850.329    21523854.5184
  20646889.722    -6160401.277 9  -4779512.07647  20646889.196    20646891.1114
 01  7 12 19  3  0.0000000  0  8 31 23 15 03 29 21 17 18
  23297203.192    -8546773.079 8  -6642070.53645  23297202.193    23297207.1394
  21921894.019     4533903.122 8   3660512.30647  21921893.429    21921897.0764
  20605667.006    -3610971.237 9  -2803771.51647  20605666.224    20605669.6144
  21302860.600   -19566077.608 9 -15233667.36547  21302860.087    21302863.6414
  23880827.263    -1388341.869 7   -773228.07345  23880827.058    23880833.9034
  21110375.165   -20047238.837 9 -15603245.42247  21110374.632    21110378.2814
  21534712.936     3640520.732 8   2843087.69046  21534712.319    21534716.4254
  20654549.591    -6120148.668 9  -4748146.43347  20654549.073    20654550.9204
 01  7 12 19  3 30.0000000  0  8 31 23 15 03 29 21 17 18
  23281739.597    -8628034.429 8  -6705391.00645  23281738.698    23281743.7914
  21933645.925     4595658.916 8   3708633.66747  21933645.273    21933648.7624
  20612377.689    -3575706.865 9  -2776292.80647  20612376.858    20612380.2014
  21298376.195   -19589643.303 9 -15252030.24347  21298375.731    21298379.1804
  23860070.934    -1497416.991 7   -858221.54345  23860070.717    23860077.7144
  21104883.966   -20076095.217 9 -15625730.90947  21104883.483    21104886.9404
  21545630.783     3697894.524 8   2887794.51647  21545630.171    21545634.3114
  20662268.711    -6079584.093 9  -4716537.67547  20662268.209    20662270.0774
 01  7 12 19  4  0.0000000  0  8 31 23 15 03 29 21 17 18
  23266348.399    -8708912.689 7  -6768412.97845  23266347.723    23266353.1384
  21945426.403     4657565.509 8   3756872.54747  21945425.698    21945429.3954
  20619152.932    -3540102.699 9  -2748549.33747  20619152.148    20619155.5534
  21293999.894   -19612640.799 9 -15269950.37347  21293999.461    21294002.7624
  23839333.220    -1606393.771 7   -943138.32945  23839332.804    23839340.1034
  21099445.581   -20104674.582 9 -15648000.53447  21099445.058    21099448.5594
  21556604.347     3755561.472 8   2932729.77247  21556603.804    21556607.9754
  20670046.915    -6038709.638 9  -4684687.48047  20670046.385    20670048.2974
 01  7 12 19  4 30.0000000  0  8 31 23 15 03 29 21 17 18
  23251031.285    -8789403.526 8  -6831133.04345  23251030.707    23251036.1924
  21957235.451     4719623.374 8   3805229.28647  21957234.882    21957238.6034
  20625993.132    -3504156.947 9  -2720539.69247  20625992.392    20625995.8654
  21289732.189   -19635067.549 9 -15287425.75947  21289731.785    21289735.1314
  23818615.269    -1715267.771 7  -1027975.02245  23818614.716    23818622.0524
  21094059.907   -20132976.089 9 -15670053.62847  21094059.327    21094062.9474
  21567634.056     3813523.243 8   2977894.75546  21567633.588    21567637.7174
  20677884.189    -5997524.918 9  -4652595.51947  20677883.619    20677885.4564
 01  7 12 19  5  0.0000000  0  8 31 23 15 03 29 21 17 18
  23235788.099    -8869506.955 8  -6893551.26945  23235787.389    23235793.2274
  21969072.801     4781828.651 8   3853700.89347  21969072.158    21969075.8224
  20632898.054    -3467871.925 9  -2692265.67947  20632897.282    20632900.7574
  21285572.840   -19656924.762 9 -15304457.35147  21285572.435    21285575.7354
  23797916.501    -1824039.063 7  -1112731.69445  23797915.996    23797923.2204
  21088726.527   -20161002.485 9 -15691892.36847  21088726.069    21088729.6454
  21578719.529     3871777.268 8   3023287.45246  21578719.024    21578723.1044
  20685779.581    -5956034.033 9  -4620264.97647  20685779.043    20685780.9354
 01  7 12 19  5 30.0000000  0  9 31 23 15 03 29 21 09 17 18
  23220619.197    -8949220.558 8  -6955665.67545  23220618.570    23220624.2794
  21980937.816     4844179.800 8   3902286.18047  21980937.233    21980940.8804
  20639867.446    -3431247.923 9  -2663727.52447  20639866.637    20639870.0444
  21281521.882   -19678211.962 9 -15321044.77947  21281521.579    21281525.0384
  23777237.954    -1932705.325 7  -1197406.58545  23777237.351    23777244.8984
  21083445.742   -20188754.212 9 -15713517.07847  21083445.175    21083448.5914
  24411899.404    -1401980.45817  -1080085.21955  24411898.683    24411906.4244
  21589860.570     3930323.178 8   3068907.60146  21589859.951    21589864.1244
  20693733.084    -5914238.548 9  -4587697.09947  20693732.517    20693734.4004
 01  7 12 19  6  0.0000000  0  9 31 23 15 03 29 21 09 17 18
  23205524.907    -9028540.927 8  -7017473.72645  23205524.369    23205530.1364
  21992830.732     4906676.444 8   3950984.82647  21992830.061    21992833.6514
  20646901.597    -3394283.506 9  -2634924.11047  20646900.768    20646904.1854
  21277579.921   -19698927.034 9 -15337186.38847  21277579.629    21277583.1584
  23756579.912    -2041263.408 7  -1281997.15645  23756579.294    23756586.6494
  21078216.909   -20216231.059 9 -15734927.58147  21078216.395    21078219.9444
  24400625.574    -1461226.545 7  -1126250.91345  24400624.988    24400631.7994
  21601057.294     3989161.922 8   3114755.93946  21601056.649    21601060.9864
  20701744.379    -5872139.283 9  -4554892.49447  20701743.801    20701745.5804
 01  7 12 19  6 30.0000000  0  9 31 23 15 03 29 21 09 17 18
  23190506.577    -9107464.717 8  -7078972.71945  23190505.737    23190511.4184
  22004750.937     4969318.214 8   3999796.55647  22004750.319    22004753.9834
  20654000.587    -3356977.847 9  -2605854.78847  20653999.764    20654003.1114
  21273747.173   -19719068.530 9 -15352881.06847  21273746.821    21273750.4564
  23735942.969    -2149709.925 7  -1366500.73445  23735942.499    23735949.6774
  21073040.812   -20243432.104 9 -15756123.18947  21073040.258    21073043.8024
  24389415.840    -1520135.675 7  -1172154.02045  24389415.129    24389421.8164
  21612309.761     4048294.439 8   3160833.19246  21612309.140    21612313.7584
  20709813.327    -5829736.596 9  -4521851.46247  20709812.785    20709814.6224
 01  7 12 19  7  0.0000000  0  9 31 23 15 03 29 21 09 17 18
  23175563.611    -9185989.071 8  -7140160.48245  23175562.872    23175568.6274
  22016698.709     5032104.157 8   4048720.62347  22016698.137    22016701.7714
  20661164.575    -3319330.277 9  -2576519.05647  20661163.824    20661167.2844
  21270024.040   -19738635.038 9 -15368127.70047  21270023.519    21270027.2914
  23715328.034    -2258042.066 7  -1450915.16745  23715327.541    23715334.4434
  21067917.105   -20270357.354 9 -15777103.89747  21067916.575    21067919.9634
  24378270.005    -1578704.410 7  -1217791.85345  24378269.396    24378276.6654
  21623618.033     4107720.977 8   3207139.55546  21623617.541    21623622.3724
  20717939.798    -5787031.624 9  -4488574.88347  20717939.269    20717941.1774
 01  7 12 19  7 30.0000000  0  9 31 23 15 03 29 21 09 17 18
  23160697.101    -9264112.174 8  -7201035.59645  23160696.613    23160702.0274
  22028673.553     5095032.258 8   4097755.46747  22028672.977    22028676.6714
  20668393.642    -3281341.337 9  -2546917.30347  20668392.899    20668396.3534
  21266410.107   -19757626.530 9 -15382926.26347  21266409.620    21266413.2564
  23694735.301    -2366257.890 7  -1535238.94345  23694734.567    23694741.5064
  21062845.690   -20297007.963 9 -15797870.59147  21062845.106    21062848.5184
  24367189.358    -1636930.543 7  -1263162.79545  24367188.697    24367196.2984
  21634982.357     4167440.772 8   3253674.40146  21634981.853    21634986.7644
  20726123.469    -5744026.582 9  -4455064.48547  20726122.924    20726124.7484
 01  7 12 19  8  0.0000000  0  9 31 23 15 03 29 21 09 17 18
  23145908.099    -9341830.896 8  -7261595.55945  23145907.412    23145912.3784
  22040675.483     5158101.939 8   4146900.64447  22040674.798    22040678.4564
  20675687.848    -3243010.371 9  -2517049.04947  20675687.080    20675690.5494
  21262905.941   -19776041.478 9 -15397275.58747  21262905.397    21262909.1114
  23674164.828    -2474354.357 7  -1619469.76744  23674164.357    23674171.2624
  21057826.431   -20323384.003 9 -15818423.34047  21057825.910    21057829.3284
  24356175.415    -1694810.448 7  -1308263.93845  24356174.620    24356181.7604
  21646402.603     4227454.441 8   3300438.23646  21646402.147    21646406.9434
  20734364.003    -5700722.412 9  -4421320.99947  20734363.429    20734365.3194
 01  7 12 19  8 30.0000000  0  9 31 23 15 03 29 21 09 17 18
  23131195.551    -9419144.518 8  -7321839.90145  23131194.887    23131199.9384
  22052703.774     5221310.111 8   4196153.73547  22052703.001    22052706.6024
  20683046.781    -3204339.026 9  -2486915.55547  20683046.045    20683049.4364
  21259510.973   -19793881.157 9 -15411176.63047  21259510.607    21259514.2044
  23653617.068    -2582330.76317  -1703607.11644  23653616.972    23653623.9844
  21052859.169   -20349487.527 9 -15838763.73947  21052858.599    21052862.0154
  24345227.666    -1752342.934 7  -1353094.33945  24345227.009    24345233.4344
  21657878.713     4287760.128 8   3347429.65046  21657878.192    21657882.6234
  20742660.841    -5657122.276 9  -4387346.89747  20742660.295    20742662.2744
 01  7 12 19  9  0.0000000  0  9 31 23 15 03 29 21 09 17 18
  23116561.284    -9496049.305 8  -7381765.66345  23116560.528    23116565.2324
  22064758.298     5284656.816 8   4245514.76947  22064757.506    22064761.1014
  20690470.759    -3165325.788 9  -2456515.65747  20690470.026    20690473.4514
  21256225.940   -19811143.455 9 -15424627.77947  21256225.621    21256229.2044
  23633092.960    -2690183.453 7  -1787647.94244  23633092.961    23633099.7644
  21047943.709   -20375317.500 9 -15858890.97747  21047943.142    21047946.6734
  24334346.363    -1809523.862 7  -1397650.76345  24334345.745    24334352.5874
  21669410.756     4348359.103 8   3394649.58346  21669409.989    21669414.2754
  20751013.930    -5613226.322 9  -4353142.27447  20751013.422    20751015.3254
 01  7 12 19  9 30.0000000  0  9 31 23 15 03 29 21 09 17 18
  23102005.183    -9572543.246 8  -7441371.27745  23102004.116    23102008.6374
  22076838.624     5348140.278 8   4294982.38047  22076837.903    22076841.5824
  20697959.798    -3125971.027 9  -2425849.63547  20697959.011    20697962.4754
  21253050.917   -19827827.924 9 -15437628.66347  21253050.659    21253054.1294
  23612593.252    -2797910.346 7  -1871590.70945  23612593.022    23612599.8294
  21043080.347   -20400874.791 9 -15878805.74047  21043079.829    21043083.2554
  24323531.361    -1866350.686 7  -1441931.25145  24323531.370    24323538.5754
  21680997.970     4409250.704 8   3442097.54346  21680997.278    21681001.5514
  20759422.993    -5569036.450 9  -4318708.63347  20759422.501    20759424.3584
 01  7 12 19 10  0.0000000  0  9 31 23 15 03 29 21 09 17 18
  23087527.509    -9648623.375 8  -7500654.43945  23087526.538    23087530.9914
  22088945.120     5411759.724 8   4344555.92347  22088944.382    22088948.0484
  20705513.843    -3086274.354 9  -2394917.18547  20705513.012    20705516.5504
  21249986.184   -19843933.264 9 -15450178.28147  21249985.831    21249989.3124
  23592117.929    -2905508.675 7  -1955433.31945  23592117.777    23592124.6744
  21038268.916   -20426159.656 9 -15898508.23447  21038268.330    21038271.8074
  24312786.659    -1922819.934 7  -1485933.19545  24312786.268    24312793.0064
  21692640.970     4470435.372 8   3489773.88746  21692640.348    21692644.4814
  20767887.778    -5524553.792 9  -4284046.84647  20767887.281    20767889.2394
 01  7 12 19 10 30.0000000  0  9 31 23 15 03 29 21 09 17 18
  23073128.832    -9724288.069 8  -7559613.92846  23073128.205    23073132.5414
  22101076.968     5475512.967 8   4394233.73347  22101076.233    22101079.9954
  20713132.685    -3046236.537 9  -2363718.92447  20713131.907    20713135.5254
  21247031.810   -19859459.670 9 -15462276.78247  21247031.366    21247034.8754
  23571667.328    -3012976.724 7  -2039174.47745  23571667.075    23571674.2304
  21033508.926   -20451172.802 9 -15917998.98147  21033508.375    21033511.9724
  24302109.132    -1978929.376 7  -1529654.80545  24302108.711    24302115.5524
  21704339.627     4531912.111 8   3537677.80046  21704338.909    21704342.9294
  20776407.741    -5479780.797 9  -4249158.82147  20776407.312    20776409.2494
 01  7 12 19 11  0.0000000  0  9 31 23 15 03 29 21 09 17 18
  23058810.606    -9799534.954 8  -7618247.80046  23058809.319    23058813.5714
  22113234.054     5539398.660 8   4444014.76847  22113233.337    22113237.0774
  20720816.644    -3005857.532 9  -2332254.78847  20720815.848    20720819.4254
  21244187.547   -19874406.646 9 -15473923.78247  21244187.095    21244190.6644
  23551241.733    -3120312.101 7  -2122812.30045  23551241.456    23551248.9414
  21028800.480   -20475915.562 9 -15937279.06447  21028799.984    21028803.5334
  24291500.458    -2034676.657 7  -1573094.04645  24291500.084    24291506.7524
  21716093.545     4593680.739 8   3585809.14946  21716092.962    21716097.0434
  20784982.811    -5434718.901 9  -4214045.68947  20784982.296    20784984.1844
 01  7 12 19 11 30.0000000  0  9 31 23 15 03 29 21 09 17 18
  23044571.650    -9874360.232 8  -7676553.15745  23044570.566    23044574.7894
  22125416.433     5603416.946 8   4493899.09647  22125415.614    22125419.2484
  20728565.782    -2965135.679 9  -2300523.50247  20728564.963    20728568.5124
  21241453.930   -19888772.315 9 -15485117.81647  21241453.488    21241457.0594
  23530842.393    -3227511.285 7  -2206344.04545  23530841.957    23530849.4094
  21024143.876   -20500386.824 9 -15956347.57847  21024143.299    21024146.7434
  24280962.093    -2090057.382 7  -1616247.73745  24280961.741    24280968.0944
  21727903.475     4655742.529 8   3634168.91646  21727902.955    21727907.1424
  20793612.813    -5389368.150 9  -4178707.47047  20793612.292    20793614.2414
 01  7 12 19 12  0.0000000  0  9 31 23 15 03 29 21 09 17 18
  23030413.170    -9948762.848 8  -7734529.17145  23030411.968    23030416.2344
  22137623.296     5667565.076 8   4543884.62047  22137622.543    22137626.2304
  20736379.827    -2924072.339 9  -2268526.11247  20736379.024    20736382.5744
  21238830.710   -19902557.551 9 -15495859.56747  21238830.284    21238833.8234
  23510469.169    -3334572.740 7  -2289768.39045  23510468.841    23510475.8374
  21019538.459   -20524587.773 9 -15975205.44847  21019537.967    21019541.5374
  24270493.121    -2145069.919 7  -1659114.57345  24270492.749    24270499.7364
  21739769.141     4718095.945 8   3682755.91546  21739768.561    21739772.9324
  20802297.225    -5343731.378 9  -4143146.36547  20802296.690    20802298.6714
 01  7 12 19 12 30.0000000  0  9 31 23 15 03 29 21 09 17 18
  23016335.560   -10022738.326 8  -7792172.36646  23016334.922    23016339.1804
  22149855.075     5731844.081 8   4593972.11147  22149854.415    22149858.1624
  20744259.251    -2882665.576 9  -2236261.13847  20744258.499    20744262.0754
  21236318.394   -19915759.453 9 -15506146.76447  21236317.973    21236321.5154
  23490123.095    -3441492.119 7  -2373081.95045  23490122.756    23490129.5654
  21014984.939   -20548517.045 9 -15993851.63247  21014984.419    21014987.9794
  24260095.546    -2199709.500 7  -1701690.79245  24260095.035    24260102.0014
  21751690.664     4780742.923 8   3731571.68546  21751690.038    21751694.5374
  20811036.138    -5297808.071 9  -4107361.99447  20811035.630    20811037.5554
 01  7 12 19 13  0.0000000  0  9 31 23 15 03 29 21 09 17 18
  23002339.664   -10096286.948 8  -7849482.93846  23002338.972    23002343.2964
  22162111.259     5796250.043 8   4644158.54947  22162110.540    22162114.2894
  20752203.709    -2840917.729 9  -2203730.37047  20752202.968    20752206.5434
  21233916.630   -19928380.223 9 -15515981.14147  21233916.256    21233919.7544
  23469803.916    -3548269.689 7  -2456285.08045  23469803.653    23469810.2684
  21010482.533   -20572177.689 9 -16012288.49547  21010482.006    21010485.4584
  24249769.471    -2253975.595 7  -1743975.95045  24249768.785    24249775.1764
  21763667.696     4843680.788 8   3780614.14746  21763666.907    21763671.2624
  20819828.851    -5251602.440 9  -4071357.63047  20819828.303    20819830.1834
 01  7 12 19 13 30.0000000  0  9 31 23 15 03 29 21 09 17 18
  22988425.923   -10169404.605 8  -7906457.67746  22988425.154    22988429.6174
  22174391.440     5860783.537 8   4694444.35947  22174390.819    22174394.7184
  20760213.435    -2798827.280 9  -2170932.63247  20760212.624    20760216.1804
  21231625.963   -19940417.272 9 -15525360.66147  21231625.631    21231629.0934
  23449511.954    -3654901.538 7  -2539374.73745  23449512.001    23449518.9194
  21006031.345   -20595568.903 9 -16030515.41447  21006030.758    21006034.2344
  24239514.514    -2307863.752 7  -1785966.63445  24239514.004    24239520.5434
  21775700.087     4906911.070 8   3829884.43946  21775699.287    21775703.4624
  20828675.300    -5205114.202 9  -4035133.06147  20828674.738    20828676.7284
 01  7 12 19 14  0.0000000  0  9 31 23 15 03 29 21 09 17 18
  22974594.516   -10242089.263 8  -7963095.02846  22974593.700    22974598.3414
  22186695.872     5925442.712 8   4744828.08047  22186695.210    22186699.0414
  20768288.232    -2756394.482 9  -2137868.13347  20768287.354    20768290.8814
  21229446.495   -19951870.793 9 -15534285.49047  21229446.150    21229449.5994
  23429248.530    -3761385.477 7  -2622349.06445  23429248.579    23429255.4014
  21001631.299   -20618691.231 9 -16048532.80047  21001630.704    21001634.1314
  24229331.575    -2361371.942 7  -1827661.22245  24229331.413    24229338.2204
  21787787.946     4970433.031 8   3879382.01546  21787787.169    21787791.1844
  20837575.157    -5158345.203 9  -3998689.72047  20837574.587    20837576.5764
 01  7 12 19 14 30.0000000  0  9 31 23 15 03 29 21 09 17 18
  22960845.737   -10314338.918 8  -8019393.42146  22960844.948    22960849.7444
  22199023.792     5990225.970 8   4795308.50447  22199023.096    22199026.9024
  20776427.870    -2713619.908 9  -2104537.32047  20776427.049    20776430.5854
  21227378.200   -19962740.663 9 -15542755.52647  21227377.812    21227381.2764
  23409013.469    -3867719.576 7  -2705206.62345  23409013.777    23409020.5004
  20997282.250   -20641545.402 9 -16066341.23747  20997281.664    20997285.2314
  24219222.071    -2414497.504 7  -1869057.66745  24219221.811    24219228.6294
  21799931.044     5034246.065 8   3929106.40046  21799930.333    21799934.3774
  20846528.097    -5111297.461 9  -3962029.16747  20846527.549    20846529.4084
 01  7 12 19 15  0.0000000  0  9 31 23 15 03 29 21 09 17 18
  22947180.110   -10386150.939 8  -8075350.81546  22947179.637    22947184.3094
  22211375.060     6055132.662 8   4845885.09947  22211374.375    22211378.2614
  20784632.730    -2670502.953 9  -2070939.72147  20784631.939    20784635.4134
  21225420.949   -19973026.196 9 -15550770.24247  21225420.547    21225424.0464
  23388807.593    -3973900.978 7  -2787945.19745  23388808.016    23388814.5744
  20992984.351   -20664131.224 9 -16083940.56947  20992983.750    20992987.2804
  24209186.228    -2467237.329 7  -1910153.58945  24209185.879    24209192.7834
  21812129.596     5098350.670 8   3979057.96846  21812128.997    21812133.1824
  20855533.850    -5063971.970 9  -3925152.17947  20855533.295    20855535.2014
 01  7 12 19 15 30.0000000  0  9 31 23 15 03 29 21 09 17 18
  22933598.408   -10457523.904 8  -8130966.04846  22933597.572    22933602.3224
  22223749.657     6120160.844 8   4896556.36147  22223748.989    22223752.8094
  20792902.733    -2627044.368 9  -2037075.90647  20792901.923    20792905.2534
  21223574.872   -19982727.445 9 -15558329.66447  21223574.445    21223578.0054
  23368631.713    -4079927.931 7  -2870563.42545  23368631.743    23368638.2114
  20988737.197   -20686450.405 9 -16101332.13947  20988736.590    20988740.0454
  24199223.793    -2519589.486 7  -1950947.36745  24199223.337    24199230.1964
  21824383.620     5162745.801 8   4029235.93446  21824383.013    21824387.3704
  20864591.890    -5016370.962 9  -3888060.50547  20864591.414    20864593.4624
 01  7 12 19 16  0.0000000  0  9 31 23 15 03 29 21 09 17 18
  22920100.084   -10528455.299 8  -8186237.24046  22920099.555    22920104.3454
  22236147.049     6185309.407 8   4947321.42947  22236146.326    22236150.2274
  20801237.695    -2583244.081 9  -2002945.84147  20801236.893    20801240.2294
  21221839.845   -19991843.921 9 -15565433.42047  21221839.566    21221843.0734
  23348485.928    -4185798.031 7  -2953059.43845  23348485.131    23348491.6684
  20984540.629   -20708503.513 9 -16118516.37747  20984539.975    20984543.4334
  24189335.926    -2571550.705 7  -1991436.55245  24189335.581    24189341.8424
  21836692.887     5227431.338 8   4079640.19746  21836692.223    21836696.7504
  20873702.313    -4968495.775 9  -3850755.20447  20873701.817    20873703.7724
 01  7 12 19 16 30.0000000  0  9 31 23 15 03 29 21 09 17 18
  22906686.852   -10598942.427 8  -8241162.22246  22906686.241    22906690.8694
  22248567.026     6250577.390 8   4998179.55247  22248566.428    22248570.4004
  20809637.773    -2539101.947 9  -1968549.40147  20809636.938    20809640.2884
  21220216.388   -20000375.405 9 -15572081.33947  21220216.040    21220219.5794
  23328369.218    -4291508.541 7  -3035431.15245  23328368.657    23328375.5154
  20980394.690   -20730290.198 9 -16135493.01447  20980394.125    20980397.5654
  24179522.605    -2623118.407 7  -2031619.09745  24179522.126    24179528.8634
  21849057.362     5292407.276 8   4130270.72046  21849056.782    21849061.3544
  20882864.523    -4920347.720 9  -3813237.27747  20882864.064    20882866.0434
 01  7 12 19 17  0.0000000  0  9 31 23 15 03 29 21 09 17 18
  22893358.646   -10668981.189 8  -8295737.84346  22893358.268    22893362.9604
  22261010.012     6315965.495 8   5049131.26547  22261009.324    22261013.3834
  20818103.192    -2494615.809 9  -1933884.90547  20818102.338    20818105.7544
  21218704.767   -20008319.231 9 -15578271.34547  21218704.436    21218707.8134
  23308284.221    -4397055.094 7  -3117675.09645  23308283.681    23308290.5134
  20976299.770   -20751809.021 9 -16152260.92547  20976299.170    20976302.7044
  24169785.206    -2674287.908 8  -2071491.41145  24169784.915    24169792.0544
  21861477.531     5357675.409 8   4181128.94846  21861476.974    21861481.5394
  20892078.787    -4871926.380 9  -3775506.38547  20892078.335    20892080.3884
 01  7 12 19 17 30.0000000  0  9 31 23 15 03 29 21 09 17 18
  22880115.901   -10738572.455 8  -8349964.75146  22880115.336    22880120.0054
  22273475.129     6381469.319 8   5100173.16247  22273474.355    22273478.4294
  20826633.314    -2449788.847 9  -1898954.84447  20826632.542    20826636.0724
  21217304.529   -20015678.263 9 -15584005.67247  21217304.066    21217307.4454
  23288230.357    -4502438.702 7  -3199792.05545  23288229.694    23288236.3214
  20972255.183   -20773063.808 9 -16168823.09847  20972254.600    20972257.9744
  24160124.229    -2725059.573 7  -2111053.73445  24160123.933    24160130.6574
  21873952.565     5423232.307 8   4232212.19046  21873952.058    21873956.7004
  20901344.333    -4823236.416 9  -3737566.18147  20901343.801    20901345.8164
 01  7 12 19 18  0.0000000  0  9 31 23 15 03 29 21 09 17 18
  22866958.909   -10807712.123 8  -8403839.78546  22866958.294    22866963.0704
  22285962.062     6447089.265 8   5151305.54746  22285961.400    22285965.5244
  20835228.778    -2404619.584 9  -1863758.04347  20835228.032    20835231.4734
  21216015.824   -20022450.722 9 -15589282.91847  21216015.398    21216018.8694
  23268208.349    -4607655.253 7  -3281778.85645  23268207.536    23268214.1134
  20968260.955   -20794053.504 9 -16185178.71447  20968260.375    20968263.8034
  24150538.918    -2775428.973 7  -2150302.59545  24150538.761    24150545.3754
  21886483.043     5489079.315 8   4283521.48246  21886482.483    21886487.0204
  20910660.825    -4774277.723 9  -3699416.57847  20910660.321    20910662.2844
 01  7 12 19 18 30.0000000  0  9 31 23 15 03 29 21 09 17 18
  22853888.796   -10876396.789 8  -8457360.28346  22853888.072    22853892.6584
  22298471.262     6512825.396 8   5202528.45846  22298470.550    22298474.6384
  20843889.723    -2359106.428 9  -1828293.27347  20843888.916    20843892.3854
  21214838.877   -20028635.075 9 -15594101.90847  21214838.473    21214842.0794
  23248217.913    -4712700.846 7  -3363632.47345  23248217.914    23248224.5354
  20964317.309   -20814777.420 9 -16201327.20647  20964316.716    20964320.2484
  24141031.110    -2825392.006 7  -2189234.79445  24141030.962    24141037.4684
  21899068.986     5555217.717 8   4335057.80946  21899068.321    21899072.8364
  20920028.533    -4725050.351 9  -3661057.61347  20920028.046    20920030.0104
 01  7 12 19 19  0.0000000  0  9 31 23 15 03 29 21 09 17 18
  22840905.070   -10944626.966 8  -8510526.61046  22840904.311    22840908.6314
  22311002.088     6578673.593 8   5253838.67346  22311001.254    22311005.1684
  20852615.362    -2313252.797 9  -1792563.20147  20852614.585    20852618.0464
  21213773.505   -20034234.002 9 -15598464.71847  21213773.151    21213776.7254
  23228260.768    -4817576.497 7  -3445353.68945  23228260.850    23228267.3334
  20960423.436   -20835239.022 9 -16217271.32547  20960422.951    20960426.4994
  24131601.076    -2874948.964 7  -2227850.54745  24131600.770    24131607.0364
  21911709.339     5621644.110 8   4386818.55546  21911708.780    21911713.3684
  20929446.519    -4675558.648 9  -3622492.68147  20929446.026    20929448.0124
 01  7 12 19 19 30.0000000  0  9 31 23 15 03 29 21 09 17 18
  22828008.303   -11012399.206 8  -8563336.10946  22828007.749    22828011.8844
  22323554.023     6644634.368 8   5305236.64146  22323553.166    22323557.1804
  20861406.102    -2267057.312 9  -1756566.73747  20861405.280    20861408.8204
  21212819.717   -20039245.593 9 -15602369.87347  21212819.391    21212822.9044
  23208337.092    -4922277.984 7  -3526939.14045  23208336.613    23208343.1124
  20956580.024   -20855437.223 9 -16233010.18847  20956579.452    20956582.9024
  24122248.162    -2924095.916 7  -2266146.80545  24122247.966    24122254.8024
  21924404.775     5688359.755 8   4438804.70746  21924404.241    21924408.7574
  20938914.638    -4625802.900 9  -3583722.00247  20938914.231    20938916.2324
 01  7 12 19 20  0.0000000  0 10 14 31 23 15 03 29 21 09 17 18
  22356339.939                                    22356338.939    22356497.3794
  22815199.340   -11079710.966 8  -8615786.77746  22815198.716    22815202.7554
  22336126.907     6710706.654 8   5356721.49846  22336126.232    22336130.4184
  20870261.701    -2220519.880 9  -1720303.83547  20870260.959    20870264.7174
  21211978.031   -20043669.686 9 -15605817.22047  21211977.604    21211981.0834
  23188446.504    -5026802.944 7  -3608387.07045  23188446.083    23188452.3374
  20952786.446   -20875372.156 9 -16248543.89747  20952785.928    20952789.4124
  24112974.118    -2972830.038 7  -2304121.45945  24112974.085    24112980.8534
  21937155.320     5755364.562 8   4491016.19846  21937154.903    21937159.2324
  20948432.961    -4575784.372 9  -3544746.54747  20948432.492    20948434.4554
 01  7 12 19 20 30.0000000  0  9 31 23 15 03 29 21 09 17 18
  22802478.132   -11146559.378 8  -8667876.42446  22802477.723    22802481.7844
  22348721.222     6776889.921 8   5408292.81246  22348720.542    22348724.7024
  20879182.748    -2173639.771 9  -1683773.89647  20879181.993    20879185.7794
  21211247.921   -20047505.409 9 -15608806.11447  21211247.559    21211251.0614
  23168589.568    -5131148.327 7  -3689695.12045  23168589.459    23168596.0794
  20949043.143   -20895043.788 9 -16263872.45147  20949042.589    20949046.0184
  24103780.002    -3021148.043 7  -2341771.78645  24103779.601    24103786.0504
  21949961.316     5822658.926 8   4543453.28546  21949960.778    21949964.9194
  20958001.042    -4525503.939 9  -3505567.00447  20958000.588    20958002.5914
 01  7 12 19 21  0.0000000  0  9 31 23 15 03 29 21 09 17 18
  22789845.814   -11212943.285 8  -8719604.11446  22789845.488    22789849.3674
  22361336.418     6843182.003 8   5459948.90446  22361335.629    22361339.7274
  20888168.782    -2126418.066 9  -1646977.79447  20888168.042    20888171.7694
  21210629.895   -20050753.651 9 -15611337.21647  21210629.527    21210633.0834
  23148768.346    -5235312.600 7  -3770861.96745  23148767.822    23148774.0494
  20945349.603   -20914453.906 9 -16278997.22147  20945349.047    20945352.3574
  24094664.756    -3069048.251 7  -2379096.54745  24094664.530    24094670.7634
  21962822.045     5890241.625 8   4596115.05046  21962821.415    21962825.6814
  20967618.534    -4474963.834 9  -3466185.13547  20967618.060    20967620.1684
 01  7 12 19 21 30.0000000  0  9 31 23 15 03 29 21 09 17 18
  22777302.149   -11278861.871 8  -8770969.19946  22777301.573    22777305.5154
  22373971.734     6909580.380 8   5511687.84846  22373970.942    22373974.9894
  20897219.574    -2078856.325 9  -1609916.72347  20897218.747    20897222.4874
  21210123.314   -20053415.413 9 -15613411.34247  21210122.987    21210126.7164
  23128981.396    -5339295.079 7  -3851887.14545  23128980.560    23128986.6744
  20941705.273   -20933604.084 9 -16293919.43247  20941704.740    20941708.2044
  24085629.614    -3116529.182 7  -2416094.68745  24085629.165    24085635.3254
  21975737.198     5958110.974 8   4649000.16846  21975736.604    21975741.1174
  20977284.817    -4424166.820 9  -3426603.07647  20977284.398    20977286.5474
 01  7 12 19 22  0.0000000  0  9 31 23 15 03 29 21 09 17 18
  22764847.621   -11344310.532 8  -8821968.13746  22764847.194    22764851.1514
  22386627.497     6976086.472 8   5563510.72046  22386626.641    22386630.8694
  20906335.329    -2030951.905 9  -1572588.63147  20906334.626    20906338.3684
  21209728.954   -20055488.410 9 -15615026.65047  21209728.531    21209732.1864
  23109229.030    -5443090.712 7  -3932766.72945  23109228.904    23109234.9644
  20938110.907   -20952492.161 9 -16308637.41647  20938110.458    20938113.9754
  24076674.841    -3163585.766 7  -2452762.16245  24076674.595    24076681.0994
  21988707.237     6026269.179 8   4702110.37446  21988706.704    21988711.4584
  20987000.281    -4373112.052 9  -3386820.16747  20986999.822    20987001.9054
 01  7 12 19 22 30.0000000  0  9 31 23 15 03 29 21 09 17 18
  22752483.136   -11409287.409 8  -8872599.44646  22752482.574    22752486.5544
  22399303.459     7042698.660 8   5615416.27046  22399302.586    22399306.7294
  20915516.492    -1982705.438 9  -1534994.00247  20915515.710    20915519.4094
  21209446.337   -20056972.808 9 -15616183.36947  21209446.006    21209449.6824
  23089513.019    -5546697.476 8  -4013499.16745  23089513.283    23089519.2134
  20934566.399   -20971119.479 9 -16323152.21547  20934565.872    20934569.3424
  24067801.270    -3210216.291 7  -2489097.61845  24067801.038    24067807.7784
  22001732.351     6094715.528 8   4755445.15046  22001731.759    22001736.4934
  20996764.352    -4321801.481 9  -3346837.93347  20996763.883    20996766.0354
 01  7 12 19 23  0.0000000  0  9 31 23 15 03 29 21 09 17 18
  22740208.514   -11473791.174 8  -8922862.07746  22740207.922    22740211.8804
  22411999.189     7109415.092 8   5667403.04546  22411998.356    22412002.4524
  20924762.460    -1934117.863 9  -1497133.58947  20924761.629    20924765.4244
  21209275.829   -20057869.215 9 -15616881.86047  21209275.444    21209278.8934
  23069833.996    -5650113.906 8  -4094083.31045  23069833.777    23069839.6094
  20931071.117   -20989487.141 9 -16337464.67347  20931070.572    20931074.1114
  24059009.365    -3256418.808 7  -2525099.54645  24059008.915    24059015.5634
  22014811.839     6163448.981 8   4809003.58846  22014811.134    22014816.0904
  21006576.754    -4270237.236 9  -3306658.01847  21006576.260    21006578.4464
 01  7 12 19 23 30.0000000  0 10 14 31 23 15 03 29 21 09 17 18
  22226257.612                                    22226261.359    22226331.9414
  22728024.180   -11537819.439 8  -8972754.20046  22728023.687    22728027.8004
  22424714.456     7176235.247 8   5719470.65246  22424713.694    22424717.8554
  20934073.235    -1885188.777 9  -1459007.06347  20934072.503    20934076.3324
  21209217.034   -20058177.497 9 -15617122.10147  21209216.725    21209220.3484
  23050190.954    -5753337.104 7  -4174516.90845  23050190.775    23050196.8494
  20927625.220   -21007595.128 9 -16351574.79547  20927624.736    20927628.2274
  24050299.209    -3302190.428 7  -2560765.66745  24050298.894    24050305.2294
  22027945.840     6232469.465 8   4862785.69046  22027945.230    22027950.2704
  21016437.229    -4218420.566 9  -3266281.42147  21016436.674    21016438.8194
 01  7 12 19 24  0.0000000  0 10 14 31 23 15 03 29 21 09 17 18
  22207908.006                                    22207911.932    22207910.6464
  22715931.362   -11601368.542 8  -9022272.95446  22715930.698    22715934.8644
  22437449.640     7243159.335 8   5771619.24946  22437449.037    22437453.1704
  20943449.490    -1835916.792 9  -1420613.33847  20943448.752    20943452.5324
  21209270.821   -20057896.036 9 -15616902.79147  21209270.438    21209274.0394
  23030585.127    -5856363.533 8  -4254797.18646  23030585.507    23030591.5554
  20924229.135   -21025442.300 9 -16365481.68247  20924228.548    20924232.0114
  24041672.106    -3347527.115 8  -2596092.85945  24041671.727    24041677.9424
  22041135.013     6301778.349 8   4916792.53146  22041134.400    22041139.3914
  21026345.563    -4166351.337 9  -3225708.02847  21026345.094    21026347.2854
 01  7 12 19 24 30.0000000  0  9 31 23 15 03 29 21 09 17 18
  22703929.328   -11664439.095 8  -9071418.80746  22703928.668    22703932.9504
  22450204.067     7310183.542 8   5823845.85646  22450203.417    22450207.6034
  20952890.415    -1786304.487 9  -1381954.43147  20952889.636    20952893.4624
  21209436.049   -20057027.570 9 -15616226.08847  21209435.633    21209439.2594
  23011017.717    -5959193.493 8  -4334924.29846  23011017.674    23011023.6204
  20920881.810   -21043031.900 9 -16379187.85247  20920881.335    20920884.8144
  24033127.858    -3392428.713 7  -2631081.05845  24033127.352    24033133.7104
  22054378.528     6371372.504 8   4971021.67946  22054377.881    22054382.6954
  21036301.329    -4114033.580 9  -3184940.97847  21036300.872    21036303.0594
 01  7 12 19 25  0.0000000  0  9 31 23 15 03 29 21 09 17 18
  22692019.205   -11727027.081 8  -9120188.63646  22692018.542    22692022.9364
  22462977.508     7377308.755 8   5876151.17146  22462976.855    22462981.0724
  20962396.286    -1736350.310 9  -1343029.12447  20962395.556    20962399.4174
  21209713.496   -20055570.368 9 -15615090.61347  21209713.002    21209716.5644
  22991488.121    -6061822.614 8  -4414894.92946  22991487.964    22991493.9074
  20917583.972   -21060362.208 9 -16392691.98547  20917583.438    20917586.9584
  24024665.704    -3436891.098 7  -2665726.97945  24024665.691    24024672.5774
  22067676.682     6441253.472 8   5025474.33246  22067676.075    22067680.6544
  21046304.513    -4061466.952 9  -3143979.99647  21046304.007    21046306.2214
 01  7 12 19 25 30.0000000  0 10 14 31 23 15 03 29 21 09 17 18
  22153219.949                                    22153224.212    22153382.7404
  22680201.467   -11789129.812 8  -9168580.33746  22680200.764    22680205.0944
  22475770.072     7444534.162 8   5928534.54846  22475769.508    22475773.6594
  20971967.353    -1686054.433 9  -1303837.55747  20971966.610    20971970.3894
  21210102.661   -20053523.990 9 -15613496.06447  21210102.252    21210105.8184
  22971997.015    -6164248.427 8  -4494707.14346  22971996.858    22972002.9564
  20914335.445   -21077433.784 9 -16405994.50547  20914334.967    20914338.3604
  24016289.450    -3480911.244 8  -2700028.34845  24016289.138    24016295.8134
  22081029.303     6511421.328 8   5080150.50546  22081028.603    22081033.3054
  21056354.768    -4008652.488 9  -3102825.88847  21056354.269    21056356.4134
 01  7 12 19 26  0.0000000  0  9 31 23 15 03 29 21 09 17 18
  22668476.005   -11850746.802 8  -9216593.54246  22668475.451    22668479.7584
  22488581.578     7511857.230 8   5980994.03046  22488580.839    22488584.8504
  20981603.076    -1635418.037 9  -1264380.66547  20981602.399    20981606.1554
  21210603.937   -20050889.995 9 -15611443.59847  21210603.625    21210607.0544
  22952544.737    -6266469.611 8  -4574359.91045  22952544.674    22952550.7964
  20911135.565   -21094249.051 9 -16419097.30847  20911135.043    20911138.5834
  24007997.573    -3524488.604 8  -2733984.65545  24007997.150    24008003.0214
  22094435.844     6581874.177 8   5135048.73045  22094435.231    22094440.1554
  21066451.735    -3955593.235 9  -3061481.04047  21066451.159    21066453.1924
 01  7 12 19 26 30.0000000  0  9 31 23 15 03 29 21 09 17 18
  22656843.832   -11911875.484 8  -9264226.23646  22656843.164    22656847.4074
  22501411.350     7579277.486 8   6033529.23446  22501410.548    22501414.6914
  20991303.833    -1584440.841 9  -1224658.22047  20991303.103    20991306.8904
  21211216.868   -20047667.837 9 -15608932.86647  21211216.680    21211220.4114
  22933132.195    -6368483.621 8  -4653851.22445  22933131.814    22933138.0364
  20907984.401   -21110808.182 9 -16432000.51747  20907983.894    20907987.4584
  23999789.433    -3567619.615 8  -2767593.19745  23999789.292    23999795.4084
  22107896.780     6652612.473 8   5190169.38445  22107896.083    22107901.3664
  21076594.954    -3902289.895 9  -3019945.99747  21076594.397    21076596.5254
 01  7 12 19 27  0.0000000  0 10 14 31 23 15 03 29 21 09 17 18
  22099084.084    -1224835.70354                  22099084.032    22099087.3834
  22645304.861   -11972513.546 8  -9311476.64846  22645304.032    22645308.2454
  22514258.861     7646794.081 8   6086139.51546  22514258.334    22514262.7574
  21001069.400    -1533122.748 9  -1184670.12847  21001068.643    21001072.4284
  21211942.219   -20043857.560 9 -15605963.81547  21211941.928    21211945.4734
  22913759.198    -6470287.805 8  -4733179.05345  22913758.945    22913765.0904
  20904882.169   -21127110.966 9 -16444703.99647  20904881.661    20904885.1104
  23991667.539    -3610301.642 7  -2800851.92745  23991667.303    23991673.4164
  22121411.572     6723636.030 8   5245512.33245  22121411.126    22121416.6614
  21086784.427    -3848743.661 9  -2978221.67847  21086783.973    21086786.1524
 01  7 12 19 27 30.0000000  0 10 14 31 23 15 03 29 21 09 17 18
  22081163.189    -1685998.15417  -1298217.74044  22081163.279    22081165.7164
  22633859.435   -12032658.887 8  -9358343.11046  22633858.606    22633862.9854
  22527125.170     7714406.045 8   6138824.11646  22527124.625    22527128.7854
  21010899.591    -1481463.877 9  -1144416.50147  21010898.888    21010902.8324
  21212779.035   -20039459.376 9 -15602536.69847  21212778.749    21212782.4824
  22894426.851    -6571879.755 8  -4812341.47346  22894426.648    22894432.7574
  20901828.712   -21143157.518 9 -16457207.79847  20901828.086    20901831.5744
  23983631.232    -3652532.387 7  -2833758.95145  23983631.179    23983637.3064
  22134981.045     6794944.477 8   5301077.26245  22134980.821    22134986.0674
  21097020.007    -3794955.922 9  -2936309.17247  21097019.477    21097021.6634
 01  7 12 19 28  0.0000000  0 10 14 31 23 15 03 29 21 09 17 18
  22063305.760    -1779840.907 6  -1371341.88744  22063305.372    22063307.5414
  22622507.782   -12092310.485 8  -9404824.82846  22622507.124    22622511.5844
  22540009.328     7782111.418 8   6191581.50446  22540008.696    22540012.5794
  21020794.581    -1429465.242 9  -1103898.13447  21020793.937    21020797.9084
  21213727.845   -20034474.481 9 -15598652.37347  21213727.492    21213731.0044
  22875135.215    -6673258.329 8  -4891337.60546  22875134.964    22875141.0244
  20898823.392   -21158949.570 9 -16469513.28647  20898822.916    20898826.4694
  23975680.817    -3694310.468 7  -2866313.19445  23975680.622    23975687.0524
  22148605.072     6866536.317 8   5356863.02945  22148604.599    22148609.5064
  21107300.851    -3740929.146 9  -2894210.42447  21107300.410    21107302.6934
 01  7 12 19 28 30.0000000  0 10 14 31 23 15 03 29 21 09 17 18
  22045510.417    -1873348.89217                  22045504.796    22045513.4644
  22611250.489   -12151464.904 8  -9450919.16146  22611250.287    22611254.7924
  22552911.128     7849910.661 8   6244412.04646  22552910.495    22552914.4254
  21030754.621    -1377125.652 9  -1063114.06147  21030753.912    21030757.7404
  21214788.214   -20028901.474 9 -15594309.79247  21214787.888    21214791.4124
  22855884.863    -6774419.545 8  -4970164.38346  22855884.561    22855890.5184
  20895867.058   -21174486.049 9 -16481619.64147  20895866.483    20895869.9524
  23967817.097    -3735631.897 8  -2898511.58745  23967817.265    23967823.5514
  22162283.434     6938412.948 8   5412870.72246  22162282.779    22162287.1524
  21117627.391    -3686663.167 9  -2851925.27147  21117626.981    21117629.1874
 01  7 12 19 29  0.0000000  0 10 14 31 23 15 03 29 21 09 17 18
  22027781.203    -1966519.393 7  -1516805.35254  22027778.194    22027783.7584
  22600088.803   -12210120.573 8  -9496624.82946  22600088.464    22600092.9184
  22565830.342     7917802.361 8   6297314.61646  22565829.761    22565833.9464
  21040779.249    -1324445.531 9  -1022064.64547  21040778.502    21040782.3524
  21215960.677   -20022740.910 9 -15589509.37247  21215960.376    21215963.9384
  22836676.076    -6875361.639 8  -5048820.43246  22836675.898    22836681.7284
  20892958.856   -21189768.223 9 -16493527.83047  20892958.336    20892961.7624
  23960041.558    -3776494.834 8  -2930352.73145  23960041.378    23960047.6424
  22176015.767     7010573.400 8   5469099.58246  22176015.013    22176018.8724
  21127999.070    -3632159.871 9  -2809455.19347  21127998.601    21128000.8604
 01  7 12 19 29 30.0000000  0 10 14 31 23 15 03 29 21 09 17 18
  22010115.884    -2059351.726 7  -1589142.28544  22010113.624    22010118.8574
  22589021.789   -12268276.644 8  -9541941.21246  22589021.516    22589026.0724
  22578766.925     7985784.074 8   6350287.32146  22578766.275    22578770.6464
  21050868.274    -1271426.610 9   -980751.24647  21050867.618    21050871.5614
  21217244.456   -20015994.495 9 -15584252.45647  21217244.138    21217247.7574
  22817509.217    -6976083.555 8  -5127304.92946  22817509.088    22817514.9594
  20890098.764   -21204797.901 9 -16505239.26247  20890098.256    20890101.7664
  23952353.112    -3816898.240 8  -2961835.85745  23952352.801    23952359.0104
  22189801.256     7083015.914 8   5525548.20946  22189800.352    22189804.5984
  21138415.302    -3577422.100 9  -2766802.40647  21138414.850    21138417.0774
 01  7 12 19 30  0.0000000  0 10 14 31 23 15 03 29 21 09 17 18
  21992516.179    -2151842.19016                  21992513.853    21992518.3934
  22578050.907   -12325929.667 8  -9586865.60246  22578050.501    22578055.0094
  22591720.916     8053856.540 8   6403330.73646  22591720.168    22591724.4904
  21061022.342    -1218067.316 9   -939172.61347  21061021.658    21061025.5334
  21218640.073   -20008660.804 9 -15578537.89947  21218639.751    21218643.2914
  22798385.018    -7076581.340 8  -5205614.81546  22798384.886    22798390.6154
  20887287.029   -21219573.771 9 -16516752.92947  20887286.562    20887290.0474
  23944752.756    -3856837.898 7  -2992957.61745  23944752.393    23944758.6314
  22203639.641     7155741.839 8   5582217.65446  22203639.062    22203644.4644
  21148876.204    -3522449.344 9  -2723966.51847  21148875.798    21148878.1004
 01  7 12 19 30 30.0000000  0 10 14 31 23 15 03 29 21 09 17 18
  21974981.771                                    21974978.107    21974980.8364
  22567175.842   -12383077.800 8  -9631396.60646  22567175.530    22567179.9854
  22604691.690     8122018.802 8   6456444.13046  22604691.018    22604695.3714
  21071241.084    -1164367.725 9   -897328.80447  21071240.414    21071244.2244
  21220147.161   -20000740.304 9 -15572366.11447  21220146.878    21220150.6484
  22779304.097    -7176852.577 8  -5283748.11846  22779303.976    22779309.5124
  20884523.466   -21234096.497 9 -16528069.34447  20884522.976    20884526.3894
  23937240.795    -3896311.408 7  -3023716.10445  23937240.773    23937247.3494
  22217532.203     7228750.775 8   5639107.63446  22217531.833    22217537.8094
  21159381.665    -3467243.053 9  -2680948.65747  21159381.255    21159383.5924
 01  7 12 19 31  0.0000000  0 10 14 31 23 15 03 29 21 09 17 18
  21957513.495    -2335787.20717  -1804546.18854  21957510.469    21957513.3014
  22556397.437   -12439720.195 8  -9675533.50646  22556396.921    22556401.1794
  22617679.239     8190268.883 8   6509625.95246  22617678.567    22617682.9694
  21081524.362    -1110328.991 9   -855220.73847  21081523.665    21081527.5314
  21221766.017   -19992234.090 9 -15565737.91247  21221765.707    21221769.2994
  22760266.495    -7276895.893 8  -5361703.78846  22760266.196    22760271.7274
  20881807.771   -21248367.370 9 -16539189.50847  20881807.306    20881810.6604
  23929818.378    -3935317.323 7  -3054110.28845  23929818.141    23929824.5894
  22231478.867     7302041.505 8   5696217.20646  22231478.677    22231484.2994
  21169931.130    -3411805.774 9  -2637750.80247  21169930.682    21169932.9154
 01  7 12 19 31 30.0000000  0 10 14 31 23 15 03 29 21 09 17 18
  21940110.428    -2427238.303 7  -1875806.81545  21940108.129    21940110.9834
  22545715.633   -12495855.168 8  -9719275.01946  22545714.657    22545718.9744
  22630683.301     8258605.233 8   6562874.99346  22630682.694    22630687.0154
  21091872.135    -1055951.844 9   -812848.98047  21091871.431    21091875.2364
  21223496.065   -19983142.885 9 -15558653.88947  21223495.690    21223499.3534
  22741272.087    -7376709.589 8  -5439480.58746  22741272.035    22741277.7214
  20879139.885   -21262387.358 9 -16550114.17947  20879139.383    20879142.8214
  23922485.023    -3973854.144 7  -3084138.86345  23922484.749    23922491.0894
  22245479.615     7375612.948 8   5753545.51246  22245479.144    22245484.2724
  21180524.174    -3356139.337 9  -2594374.39147  21180523.669    21180525.8834
 01  7 12 19 32  0.0000000  0 10 14 31 23 15 03 29 21 09 17 18
  21922775.073    -2518337.589 7  -1946793.15345  21922772.820    21922775.3634
  22535130.453   -12551479.424 8  -9762618.57846  22535129.694    22535133.9284
  22643704.029     8327028.230 8   6616191.55546  22643703.260    22643707.6124
  21102284.446    -1001235.046 9   -770212.54747  21102283.713    21102287.5264
  21225337.438   -19973466.053 9 -15551113.52047  21225337.095    21225340.7974
  22722322.472    -7476289.991 8  -5517075.57546  22722322.453    22722327.9704
  20876519.889   -21276155.624 9 -16560842.69647  20876519.396    20876522.8544
  23915241.714    -4011918.123 8  -3113799.01045  23915241.462    23915247.8844
  22259533.729     7449466.263 8   5811093.45246  22259533.215    22259537.9654
  21191160.664    -3300243.542 9  -2550819.27447  21191160.225    21191162.5624
 01  7 12 19 32 30.0000000  0 10 14 31 23 15 03 29 21 09 17 18
  21905506.120    -2609083.599 7  -2017504.19545  21905504.135    21905507.3464
  22524642.476   -12606592.195 8  -9805563.57846  22524642.015    22524646.3954
  22656740.602     8395535.768 8   6669574.00346  22656739.806    22656744.1744
  21112761.095     -946180.071 9   -727312.60847  21112760.350    21112764.1144
  21227290.044   -19963204.863 9 -15543117.81447  21227289.703    21227293.3944
  22703417.578    -7575636.062 8  -5594487.98246  22703417.561    22703422.9924
  20873947.448   -21289673.532 9 -16571376.13747  20873946.957    20873950.4394
  23908088.987    -4049508.055 7  -3143089.76845  23908088.505    23908094.9424
  22273641.149     7523599.680 8   5868859.65546  22273640.579    22273645.1254
  21201840.517    -3244121.033 9  -2507087.47347  21201840.042    21201842.2784
 01  7 12 19 33  0.0000000  0 10 14 31 23 15 03 29 21 09 17 18
  21888305.760    -2699471.481 7  -2087936.30045  21888304.222    21888307.3274
  22514252.723   -12661189.203 8  -9848106.68246  22514252.657    22514256.9144
  22669793.458     8464129.654 8   6723023.72246  22669792.759    22669797.1434
  21123302.421     -890784.494 9   -684147.27747  21123301.762    21123305.5764
  21229354.446   -19952357.160 9 -15534665.08947  21229354.104    21229357.8164
  22684558.023    -7674742.789 8  -5671713.88046  22684557.958    22684563.5914
  20871423.150   -21302938.911 9 -16581712.79447  20871422.655    20871426.0394
  23901026.106    -4086619.348 8  -3172007.59845  23901026.055    23901032.5944
  22287802.154     7598015.495 8   5926845.93446  22287801.536    22287806.2114
  21212563.614    -3187770.655 9  -2463178.10247  21212563.138    21212565.4184
 01  7 12 19 33 30.0000000  0 10 14 31 23 15 03 29 21 09 17 18
  21871172.963    -2789500.966 7  -2158089.12645  21871171.744    21871175.2144
  22503961.840   -12715270.269 8  -9890247.74546  22503961.432    22503965.7824
  22682862.290     8532807.012 8   6776538.50246  22682861.692    22682866.0054
  21133908.397     -835050.637 9   -640718.33647  21133907.700    21133911.5424
  21231529.694   -19940925.372 9 -15525757.22847  21231529.428    21231533.2274
  22665743.859    -7773609.961 8  -5748753.10446  22665744.002    22665749.5714
  20868946.320   -21315954.898 9 -16591855.12747  20868945.809    20868949.2304
  23894055.640    -4123251.473 8  -3200552.07345  23894055.389    23894061.3304
  22302016.191     7672711.209 8   5985050.29746  22302015.626    22302020.5464
  21223329.519    -3131195.567 9  -2419093.64447  21223329.055    21223331.3964
 01  7 12 19 34  0.0000000  0 10 14 31 23 15 03 29 21 09 17 18
  21854108.836    -2879170.710 8  -2227961.57345  21854107.816    21854111.2934
  22493768.851   -12768834.608 8  -9931986.18046  22493768.458    22493772.8594
  22695946.640     8601565.636 8   6830116.59746  22695946.033    22695950.4044
  21144578.297     -778979.812 8   -597026.81747  21144577.574    21144581.5504
  21233815.859   -19928911.078 9 -15516395.46247  21233815.635    21233819.3684
  22646975.645    -7872236.335 8  -5825604.71446  22646975.875    22646981.3224
  20866516.603   -21328723.348 9 -16601804.56747  20866516.042    20866519.5004
  23887176.745    -4159403.523 7  -3228722.44645  23887176.113    23887181.9164
  22316283.398     7747685.207 8   6043471.49146  22316282.809    22316287.8884
  21234137.694    -3074398.364 9  -2374836.11247  21234137.203    21234139.5964
 01  7 12 19 34 30.0000000  0 10 14 31 23 15 03 29 21 09 17 18
  21837114.206    -2968477.441 8  -2297551.18645  21837113.371    21837116.8654
  22483674.879   -12821879.820 8  -9973320.08046  22483674.336    22483678.5844
  22709046.392     8670405.523 8   6883758.00746  22709045.854    22709050.3044
  21155312.451     -722571.409 9   -553072.25747  21155311.722    21155315.7654
  21236213.240   -19916314.003 9 -15506579.59547  21236212.886    21236216.5004
  22628254.285    -7970618.991 8  -5902266.38346  22628254.286    22628259.6324
  20864134.105   -21341243.135 9 -16611560.24447  20864133.601    20864137.0554
  23880388.377    -4195072.331 8  -3256516.19545  23880388.042    23880394.3124
  22330603.565     7822937.985 8   6102109.89446  22330602.935    22330608.3424
  21244988.108    -3017379.441 9  -2330405.82247  21244987.581    21244989.9124
 01  7 12 19 35  0.0000000  0 10 14 31 23 15 03 29 21 09 17 18
  21820189.308    -3057418.405 8  -2366855.77446  21820188.498    21820191.8814
  22473679.833   -12874403.603 8 -10014247.69346  22473679.476    22473683.6654
  22722161.650     8739326.166 8   6937462.35846  22722161.145    22722165.5814
  21166110.996     -665825.030 9   -508854.35247  21166110.296    21166114.2384
  21238721.418   -19903134.240 9 -15496309.67747  21238720.969    21238724.5544
  22609579.667    -8068754.923 8  -5978735.81046  22609579.554    22609584.9404
  20861798.994   -21353514.424 9 -16621122.29247  20861798.457    20861801.8764
  23873693.898    -4230255.073 8  -3283931.28845  23873693.315    23873698.9774
  22344976.804     7898469.667 8   6160965.64546  22344976.185    22344981.5974
  21255880.400    -2960139.712 9  -2285803.47047  21255879.901    21255882.3074
 01  7 12 19 35 30.0000000  0 10 14 31 23 15 03 29 21 09 17 18
  21803334.315    -3145991.768 8  -2435873.90046  21803333.476    21803336.7624
  22463784.451   -12926404.759 8 -10054768.04646  22463783.916    22463788.1774
  22735291.846     8808326.022 8   6991228.43446  22735291.326    22735295.8454
  21176973.842     -608741.856 9   -464373.99747  21176973.046    21176976.7764
  21241339.918   -19889373.148 9 -15485586.76847  21241339.576    21241343.2774
  22590952.069    -8166642.661 8  -6055011.84046  22590952.069    22590957.3284
  20859511.011   -21365538.451 9 -16630491.65347  20859510.451    20859513.8434
  23867091.729    -4264950.446 7  -3310966.61345  23867091.188    23867096.5504
  22359402.875     7974279.020 8   6220037.77246  22359402.248    22359407.5184
  21266814.288    -2902681.265 9  -2241030.66747  21266813.831    21266816.2964
 01  7 12 19 36  0.0000000  0 10 14 31 23 15 03 29 21 09 17 18
  21786549.977    -3234194.229 8  -2504602.98246  21786548.937    21786552.3994
  22453989.233   -12977880.488 8 -10094878.97146  22453988.507    22453992.7324
  22748437.101     8877405.198 8   7045056.29146  22748436.555    22748441.1764
  21187900.629     -551321.017 9   -419630.53947  21187899.832    21187903.6384
  21244069.312   -19875030.027 9 -15474410.35247  21244069.007    21244072.6814
  22572372.548    -8264278.900 8  -6131091.89146  22572372.412    22572377.6964
  20857270.100   -21377314.312 9 -16639667.64847  20857269.513    20857272.9754
  23860581.980    -4299155.254 7  -3337619.65245  23860581.684    23860587.7784
  22373881.748     8050366.734 8   6279326.80646  22373881.085    22373886.3864
  21277790.125    -2845004.367 9  -2196087.66947  21277789.572    21277791.8464
 01  7 12 19 36 30.0000000  0 10 14 31 23 15 03 29 21 09 17 18
  21769836.044    -3322023.584 8  -2573041.37946  21769835.546    21769838.8844
  22444293.895   -13028829.132 8 -10134579.19746  22444293.189    22444297.4154
  22761597.273     8946562.404 8   7098944.95446  22761596.724    22761601.3234
  21198891.463     -493562.909 9   -374624.27147  21198890.763    21198894.6514
  21246909.296   -19860105.797 9 -15462781.10147  21246909.001    21246912.6204
  22553841.159    -8361661.531 8  -6206974.32146  22553840.941    22553846.2354
  20855076.248   -21388843.018 9 -16648651.04947  20855075.662    20855079.1284
  23854166.676    -4332867.814 7  -3363889.14145  23854166.264    23854172.4784
  22388413.336     8126731.929 8   6338832.02046  22388412.734    22388418.0704
  21288807.094    -2787110.494 9  -2150975.57547  21288806.476    21288808.6274
 01  7 12 19 37  0.0000000  0 10 14 31 23 15 03 29 21 09 17 18
  21753194.246    -3409477.777 8  -2641187.42246  21753193.508    21753196.8624
  22434699.208   -13079249.155 8 -10173867.51046  22434698.612    22434702.8564
  22774772.168     9015796.944 8   7152893.90046  22774771.643    22774776.1934
  21209946.751     -435467.907 9   -329355.47147  21209945.960    21209949.7104
  21249859.725   -19844601.133 9 -15450699.58047  21249859.388    21249863.1334
  22535358.439    -8458788.561 8  -6282657.59246  22535358.246    22535363.4184
  20852929.260   -21400125.317 9 -16657442.45247  20852928.688    20852932.1294
  23847845.542    -4366085.844 8  -3389773.27745  23847845.310    23847851.0114
  22402998.201     8203374.105 8   6398553.07546  22402997.507    22403002.7154
  21299864.794    -2729001.061 9  -2105695.51347  21299864.281    21299866.5574
 01  7 12 19 37 30.0000000  0 10 14 31 23 15 03 29 21 09 17 18
  21736623.756    -3496554.962 8  -2709039.70746  21736623.159    21736626.4884
  22425205.387   -13129139.524 8 -10212743.09146  22425204.744    22425208.8134
  22787961.384     9085107.197 8   7206901.83746  22787960.893    22787965.4474
  21221065.773     -377037.249 9   -283825.12347  21221064.972    21221068.6604
  21252920.709   -19828517.435 9 -15438166.84847  21252920.209    21252923.7664
  22516924.746    -8555658.658 8  -6358140.66446  22516924.398    22516929.5344
  20850828.983   -21411162.290 9 -16666042.68847  20850828.462    20850831.8764
  23841618.894    -4398808.063 7  -3415271.07645  23841618.612    23841623.9534
  22417635.729     8280292.062 8   6458489.05546  22417635.003    22417640.3424
  21310963.300    -2670678.067 9  -2060249.05347  21310962.817    21310965.0564
 01  7 12 19 38  0.0000000  0 10 14 31 23 15 03 29 21 09 17 18
  21720125.712    -3583252.904 8  -2776596.48746  21720125.160    21720128.4144
  22415812.690   -13178498.192 8 -10251204.36546  22415812.056    22415816.1794
  22801165.252     9154492.543 8   7260968.28946  22801164.662    22801169.1034
  21232248.718     -318270.681 9   -238033.03847  21232247.911    21232251.6974
  21256091.403   -19811854.863 9 -15425183.06147  21256090.905    21256094.5164
  22498539.922    -8652268.865 8  -6433421.23846  22498539.945    22498545.1154
  20848775.369   -21421954.102 9 -16674451.88647  20848774.834    20848778.2814
  23835486.477    -4431032.034 8  -3440380.60045  23835486.177    23835492.0294
  22432325.690     8357485.577 8   6518639.75246  22432324.755    22432330.1244
  21322102.271    -2612142.836 9  -2014637.21847  21322101.746    21322104.0084
 01  7 12 19 38 30.0000000  0 10 14 31 23 15 03 29 21 09 17 18
  21703700.424    -3669568.958 8  -2843855.68646  21703699.772    21703702.9184
  22406521.749   -13227323.413 8 -10289249.95846  22406520.919    22406525.0284
  22814383.303     9223952.408 8   7315092.80346  22814382.631    22814387.0494
  21243495.484     -259168.342 9   -191979.30947  21243494.705    21243498.6974
  21259372.175   -19794613.871 9 -15411748.54447  21259371.813    21259375.4094
  22480205.570    -8748616.879 8  -6508497.46746  22480205.478    22480210.6744
  20846768.378   -21432500.834 9 -16682670.11447  20846767.843    20846771.3464
  23829449.916    -4462755.298 8  -3465100.01645  23829449.525    23829455.3524
  22447067.365     8434954.570 8   6579005.10246  22447066.430    22447071.8644
  21333281.399    -2553396.051 9  -1968860.54547  21333280.887    21333283.1734
 01  7 12 19 39  0.0000000  0 10 14 31 23 15 03 29 21 09 17 18
  21687347.825    -3755501.302 8  -2910815.89146  21687347.192    21687350.4654
  22397332.278   -13275613.824 8 -10326878.83746  22397331.519    22397335.5744
  22827615.061     9293485.314 8   7369274.22446  22827614.342    22827618.9384
  21254806.139     -199731.131 9   -145664.65847  21254805.334    21254809.3194
  21262763.012   -19776795.611 9 -15397864.23047  21262762.526    21262766.1584
  22461921.506    -8844700.945 8  -6583368.04646  22461921.246    22461926.5134
  20844807.801   -21442803.713 9 -16690698.33847  20844807.300    20844810.7624
  23823509.002    -4493976.524 8  -3489428.21845  23823508.418    23823514.1974
  22461861.012     8512697.793 8   6639584.13446  22461860.438    22461865.7584
  21344500.339    -2494439.616 9  -1922920.50147  21344499.900    21344502.2284
 01  7 12 19 39 30.0000000  0 10 14 31 23 15 03 29 21 09 17 18
  21671068.952    -3841046.831 8  -2977474.69046  21671068.332    21671071.5704
  22388245.345   -13323367.251 8 -10364089.28646  22388244.401    22388248.4824
  22840860.337     9363091.104 8   7423512.43146  22840859.802    22840864.5194
  21266180.495     -139958.405 8    -99088.58247  21266179.680    21266183.6634
  21266263.593   -19758400.521 9 -15383530.41047  21266263.132    21266266.6884
  22443688.078    -8940518.221 8  -6658030.74646  22443687.639    22443693.0684
  20842893.659   -21452862.875 9 -16698536.64347  20842893.096    20842896.5614
  23817663.383    -4524693.126 8  -3513363.20845  23817663.105    23817669.0754
  22476707.513     8590715.545 8   6700377.07046  22476706.770    22476711.9044
  21355759.225    -2435274.257 9  -1876817.64847  21355758.736    21355761.0754
 01  7 12 19 40  0.0000000  0 10 14 31 23 15 03 29 21 09 17 18
  21654863.949    -3926203.533 8  -3043830.52746  21654863.539    21654866.8404
  22379260.754   -13370581.844 8 -10400879.85846  22379259.841    22379263.9334
  22854119.321     9432768.878 8   7477806.75446  22854118.963    22854123.6534
  21277618.508      -79850.785 8    -52251.50547  21277617.732    21277621.7694
  21269873.557   -19739429.464 9 -15368747.80247  21269873.064    21269876.8284
  22425505.398    -9036066.544 8  -6732483.88046  22425505.236    22425510.6174
  20841025.651   -21462678.694 9 -16706185.33147  20841025.119    20841028.6594
  23811915.037    -4554903.095 7  -3536903.45245  23811914.553    23811920.1384
  22491605.884     8669007.217 8   6761383.45246  22491605.136    22491610.4064
  21367057.500    -2375901.419 9  -1830553.13047  21367057.054    21367059.3824
 01  7 12 19 40 30.0000000  0 10 14 31 23 15 03 29 21 09 17 18
  21638733.650    -4010969.602 8  -3109881.93547  21638733.097    21638736.2844
  22370378.778   -13417256.479 8 -10437249.69746  22370377.920    22370382.1144
  22867392.219     9502517.298 8   7532156.11946  22867391.763    22867396.2574
  21289120.187      -19409.176 9     -5154.18547  21289119.469    21289123.4434
  21273592.947   -19719883.402 9 -15353517.13247  21273592.598    21273596.2484
  22407374.312    -9131344.266 8  -6806726.15546  22407374.368    22407379.7114
  20839203.900   -21472251.740 9 -16713644.84647  20839203.400    20839206.9464
  23806262.939    -4584605.115 7  -3560047.84245  23806262.268    23806267.8664
  22506555.872     8747571.693 8   6822602.45346  22506555.426    22506561.0124
  21378394.910    -2316322.902 9  -1784128.34247  21378394.406    21378396.8994
 01  7 12 19 41  0.0000000  0 10 14 31 23 15 03 29 21 09 17 18
  21622677.936    -4095341.549 8  -3175626.24647  21622677.542    21622680.8334
  22361600.048   -13463388.623 8 -10473196.78746  22361599.237    22361603.2884
  22880678.794     9572336.824 8   7586560.88846  22880678.206    22880682.4394
  21300685.907       41367.541 9     42204.23847  21300685.102    21300688.9784
  21277421.899   -19699762.152 9 -15337838.25647  21277421.538    21277425.3574
  22389295.600    -9226347.996 8  -6880754.93346  22389295.753    22389301.0094
  20837428.602   -21481581.223 9 -16720914.57147  20837428.089    20837431.5884
  23800707.547    -4613795.730 7  -3582793.73345  23800707.353    23800713.0574
  22521558.491     8826409.711 8   6884034.59146  22521558.069    22521563.5964
  21389771.518    -2256538.421 9  -1737543.08347  21389771.039    21389773.4574
 01  7 12 19 41 30.0000000  0 10 14 31 23 15 03 29 21 09 17 18
  21606697.628    -4179318.260 8  -3241062.57547  21606697.255    21606700.5644
  22352924.642   -13508977.678 8 -10508720.71146  22352923.863    22352927.9284
  22893978.450     9642225.602 8   7641019.63046  22893977.699    22893981.9724
  21312314.813      102477.760 8     89822.54547  21312314.002    21312317.9274
  21281359.916   -19679067.369 9 -15321712.49947  21281359.581    21281363.5314
  22371269.343    -9321076.549 8  -6954569.27946  22371269.502    22371274.6034
  20835699.145   -21490669.290 9 -16727996.18547  20835698.636    20835702.1564
  23795250.247    -4642474.216 7  -3605140.58245  23795250.041    23795255.5394
  22536613.268     8905519.766 8   6945678.69146  22536612.687    22536617.8554
  21401186.905    -2196550.347 9  -1690799.18047  21401186.457    21401188.7554
 01  7 12 19 42  0.0000000  0 10 14 31 23 15 03 29 21 09 17 18
  21590792.862    -4262898.419 8  -3306189.91147  21590792.475    21590795.7504
  22344352.654   -13554023.072 8 -10543820.99946  22344352.026    22344355.9944
  22907290.243     9712181.827 8   7695530.93946  22907289.734    22907294.4934
  21324006.689      163920.478 8    137699.95647  21324005.948    21324010.1104
  21285407.045   -19657800.885 9 -15305141.23247  21285406.610    21285410.3574
  22353295.807    -9415528.667 8  -7028168.18546  22353295.726    22353300.8644
  20834015.451   -21499517.082 9 -16734890.56747  20834014.981    20834018.4494
  23789890.851    -4670639.364 7  -3627087.45345  23789890.472    23789895.7974
  22551719.246     8984900.293 8   7007533.56846  22551718.371    22551723.5434
  21412640.605    -2136360.983 9  -1643898.41447  21412640.137    21412642.5484
 01  7 12 19 42 30.0000000  0 10 14 31 23 15 03 29 21 09 17 18
  21574964.408    -4346078.101 8  -3371005.20147  21574963.923    21574967.0574
  22335885.060   -13598521.455 8 -10578495.04546  22335884.369    22335888.3074
  22920615.109     9782206.544 8   7750095.58846  22920614.749    22920619.9384
  21335762.288      225696.853 8    185837.35047  21335761.569    21335765.7864
  21289562.600   -19635961.947 9 -15288123.91747  21289562.263    21289566.2064
  22335375.464    -9509700.398 8  -7101548.61746  22335375.342    22335380.3634
  20832377.832   -21508123.278 9 -16741596.69847  20832377.315    20832380.7264
  23784629.191    -4698287.768 7  -3648631.59645  23784629.005    23784634.6254
  22566876.041     9064552.455 8   7069600.08245  22566875.428    22566880.7764
  21424132.819    -2075969.967 9  -1596840.50647  21424132.332    21424134.5734
 01  7 12 19 43  0.0000000  0 10 14 31 23 15 03 29 21 09 17 18
  21559212.469    -4428855.190 8  -3435506.75847  21559211.938    21559215.1904
  22327521.769   -13642471.207 8 -10612741.58346  22327521.009    22327524.9834
  22933953.412     9852299.064 8   7804713.06846  22933952.974    22933958.2314
  21347581.478      287806.704 9    234234.58547  21347580.767    21347584.9214
  21293827.229   -19613551.769 9 -15270661.46347  21293826.900    21293830.7934
  22317508.710    -9603589.708 8  -7174709.04446  22317508.550    22317513.6314
  20830785.965   -21516488.593 9 -16748115.12547  20830785.477    20830788.8894
  23779466.361    -4725417.265 8  -3669771.44745  23779466.288    23779471.9744
  22582084.638     9144475.728 8   7131877.83446  22582084.278    22582089.8764
  21435662.898    -2015378.580 9  -1549626.45847  21435662.450    21435664.7814
 01  7 12 19 43 30.0000000  0 10 14 31 23 15 03 29 21 09 17 18
  21543536.927    -4511229.639 8  -3499694.59247  21543536.480    21543539.7054
  22319262.693   -13685873.273 8 -10646561.34446  22319261.807    22319265.7534
  22947304.526     9922456.179 8   7859380.87245  22947303.821    22947308.5594
  21359463.597      350247.162 8    282889.42747  21359462.861    21359466.9664
  21298200.148   -19590572.975 9 -15252755.94347  21298199.653    21298203.4294
  22299695.786    -9697196.480 8  -7247649.31446  22299695.812    22299700.7444
  20829239.427   -21524615.499 9 -16754447.77547  20829238.898    20829242.4434
  23774402.983    -4752028.705 8  -3690507.64345  23774402.493    23774407.8674
  22597344.814     9224667.155 8   7194364.55146  22597344.344    22597350.2134
  21447230.435    -1954590.333 9  -1502259.02347  21447229.992    21447232.4644
 01  7 12 19 44  0.0000000  0 10 14 31 23 15 03 29 21 09 17 18
  21527938.938    -4593198.436 8  -3563566.32047  21527938.388    21527941.5574
  22311108.023   -13728724.971 8 -10679952.26146  22311107.232    22311111.2324
  22960667.741     9992677.994 8   7914099.10745  22960666.931    22960671.1894
  21371408.652      413018.985 8    331802.49647  21371407.932    21371412.1414
  21302680.988   -19567025.681 9 -15234407.42147  21302680.591    21302684.4174
  22281937.396    -9790517.787 8  -7320367.09846  22281937.306    22281942.0914
  20827738.413   -21532503.227 9 -16760594.05747  20827737.917    20827741.4754
  23769437.731    -4778119.253 7  -3710837.83445  23769437.331    23769443.1504
  22612656.137     9305127.287 8   7257060.63946  22612655.633    22612661.3224
  21458835.574    -1893605.381 9  -1454738.31647  21458835.157    21458837.6404
 01  7 12 19 44 30.0000000  0 10 14 31 23 15 03 29 21 09 17 18
  21512418.670    -4674757.564 8  -3627118.82547  21512418.143    21512421.3874
  22303058.868   -13771023.379 8 -10712912.01746  22303058.105    22303062.1614
  22974042.785    10062965.473 7   7968868.49245  22974042.092    22974046.3584
  21383417.151      476123.549 9    380974.84747  21383416.428    21383420.6244
  21307270.224   -19542909.242 9 -15215615.42347  21307269.784    21307273.7714
  22264233.804    -9883549.759 8  -7392859.41746  22264233.682    22264238.6924
  20826283.210   -21540150.792 9 -16766553.20247  20826282.664    20826286.1204
  23764572.558    -4803685.130 8  -3730759.32545  23764572.319    23764578.2974
  22628018.850     9385857.226 8   7319966.94846  22628018.199    22628023.7534
  21470478.110    -1832423.301 9  -1407063.99847  21470477.678    21470480.1644
 01  7 12 19 45  0.0000000  0 10 14 31 23 15 03 29 21 09 17 18
  21496976.597    -4755905.510 9  -3690350.94447  21496976.143    21496979.3124
  22295114.897   -13812767.341 8 -10745439.77246  22295114.453    22295118.4874
  22987429.709    10133317.476 7   8023688.15645  22987429.375    22987433.9844
  21395488.942      539560.044 9    430405.83247  21395488.152    21395492.2204
  21311967.348   -19518225.275 9 -15196381.19347  21311966.942    21311970.8754
  22246585.875    -9976290.636 8  -7465124.94046  22246585.709    22246590.6634
  20824873.431   -21547559.237 9 -16772326.01147  20824872.881    20824876.3214
  23759808.008    -4828725.095 7  -3750271.00245  23759807.518    23759813.3174
  22643432.349     9466855.771 8   7383082.59346  22643431.629    22643437.4894
  21482157.901    -1771045.728 9  -1359237.35647  21482157.492    21482159.9994
 01  7 12 19 45 30.0000000  0 10 14 31 23 15 03 29 21 09 17 18
  21481613.173    -4836640.850 9  -3753261.55647  21481612.729    21481615.8084
  22287277.085   -13853956.238 8 -10777534.97546  22287276.540    22287280.4624
  23000829.460    10203732.426 8   8078556.88445  23000828.947    23000833.6244
  21407623.520      603327.176 8    480094.44147  21407622.761    21407626.7444
  21316772.365   -19492975.297 9 -15176705.90047  21316771.946    21316775.7124
  22228993.559   -10068739.010 8  -7537162.55246  22228993.338    22228998.1394
  20823508.695   -21554730.415 9 -16777913.94447  20823508.215    20823511.7644
  23755142.982    -4853238.236 7  -3769372.13245  23755142.687    23755148.7284
  22658896.650     9548121.661 8   7446406.53746  22658896.082    22658902.0154
  21493874.661    -1709474.721 9  -1311259.99547  21493874.190    21493876.6564
 01  7 12 19 46  0.0000000  0 10 14 31 23 15 03 29 21 09 17 18
  21466328.450    -4916961.949 9  -3815849.37547  21466328.040    21466331.1614
  22279544.906   -13894589.227 8 -10809197.02346  22279544.252    22279548.0604
  23014240.701    10274208.966 8   8133473.62146  23014240.253    23014245.0004
  21419820.755      667423.796 8    530039.84547  21419819.977    21419824.0564
  21321684.628   -19467161.184 9 -15156591.05747  21321684.205    21321688.1584
  22211457.219   -10160893.500 8  -7608971.16846  22211456.928    22211461.6984
  20822189.278   -21561664.898 9 -16783317.43347  20822188.719    20822192.1944
  23750578.564    -4877223.568 8  -3788061.99345  23750578.437    23750584.4224
  22674411.796     9629653.720 8   7509937.90446  22674411.201    22674417.1194
  21505627.805    -1647712.096 9  -1263133.30947  21505627.274    21505629.7584
 01  7 12 19 46 30.0000000  0 10 14 31 23 15 03 29 21 09 17 18
  21451123.157    -4996866.963 9  -3878112.95847  21451122.617    21451125.6944
  22271918.994   -13934665.409 8 -10840425.17946  22271917.953    22271921.7744
  23027663.805    10344746.200 8   8188437.63746  23027663.190    23027667.8454
  21432080.498      731849.601 8    580241.72447  21432079.710    21432084.0184
  21326703.969   -19440784.008 9 -15136037.43347  21326703.630    21326707.5214
  22193977.220   -10252752.138 8  -7680549.23046  22193976.750    22193981.5564
  20820914.626   -21568363.022 9 -16788536.75047  20820914.061    20820917.5354
  23746115.290    -4900679.451 8  -3806339.28245  23746114.927    23746120.7974
  22689977.634     9711451.149 8   7573676.05946  22689976.935    22689982.7664
  21517416.773    -1585759.472 9  -1214858.56347  21517416.393    21517418.8534
 01  7 12 19 47  0.0000000  0 10 14 31 23 15 03 29 21 09 17 18
  21435997.122    -5076353.670 9  -3940050.60047  21435996.679    21435999.8604
  22264398.813   -13974182.770 8 -10871217.93046  22264397.927    22264401.8724
  23041098.148    10415343.628 8   8243448.56046  23041097.450    23041102.1504
  21444402.798      796604.307 8    630699.87547  21444402.050    21444406.4514
  21331830.386   -19413844.514 9 -15115045.64847  21331830.041    21331833.8564
  22176553.654   -10344312.519 8  -7751894.88246  22176553.202    22176558.0654
  20819684.909   -21574824.745 9 -16793571.85547  20819684.382    20819687.8394
  23741752.829    -4923603.845 8  -3824202.42045  23741752.607    23741758.2034
  22705593.946     9793513.484 8   7637620.62246  22705593.194    22705598.8654
  21529241.980    -1523617.627 8  -1166436.38747  21529241.596    21529244.0374
 01  7 12 19 47 30.0000000  0 10 14 31 23 15 03 29 21 09 17 18
  21420951.427    -5155418.721 8  -4001659.67747  21420951.014    21420954.1974
  22256985.641   -14013139.172 8 -10901573.53346  22256984.831    22256988.8654
  23054543.966    10486001.545 8   8298506.61846  23054543.252    23054547.9724
  21456787.760      861688.510 8    681414.78547  21456787.065    21456791.4554
  21337063.979   -19386342.808 9 -15093615.79947  21337063.548    21337067.3544
  22159187.627   -10435571.499 8  -7823005.68546  22159187.194    22159191.9704
  20818500.350   -21581049.866 9 -16798422.60047  20818499.812    20818503.2414
  23737491.894    -4945993.933 8  -3841649.20145  23737491.796    23737497.4824
  22721260.831     9875841.193 8   7701771.98346  22721259.909    22721265.5244
  21541103.168    -1461286.542 8  -1117866.75847  21541102.755    21541105.3574
 01  7 12 19 48  0.0000000  0 10 14 31 23 15 03 29 21 09 17 18
  21405986.534    -5234059.752 8  -4062938.34247  21405986.084    21405989.2554
  22249679.061   -14051532.640 8 -10931490.53346  22249678.648    22249682.9304
  23068001.101    10556719.839 8   8353611.74246  23068000.536    23068005.3994
  21469235.848      927102.319 9    732386.53047  21469235.137    21469239.2334
  21342404.250   -19358279.487 9 -15071748.29647  21342403.792    21342407.6244
  22141879.387   -10526526.478 8  -7893879.60946  22141878.946    22141883.6734
  20817360.778   -21587038.483 9 -16803089.05847  20817360.261    20817363.7454
  23733333.598    -4967847.748 8  -3858678.17445  23733333.415    23733338.6804
  22736977.348     9958434.156 8   7766130.03745  22736976.589    22736982.4924
  21553000.229    -1398766.956 8  -1069150.23747  21552999.848    21553002.5094
 01  7 12 19 48 30.0000000  0 10 14 31 23 15 03 29 21 09 17 18
  21391102.728    -5312274.761 9  -4123885.04147  21391102.228    21391105.4184
  22242480.607   -14089362.224 8 -10960968.07946  22242479.952    22242484.2054
  23081469.520    10627497.490 8   8408763.10946  23081469.092    23081474.1124
  21481746.454      992844.952 8    783614.51447  21481745.657    21481749.5944
  21347850.953   -19329656.165 9 -15049444.45147  21347850.600    21347854.4974
  22124629.185   -10617175.739 8  -7964515.30746  22124628.918    22124633.5334
  20816266.021   -21592791.235 9 -16807571.71747  20816265.479    20816268.9884
  23729277.379    -4989163.927 7  -3875288.19445  23729277.044    23729282.3174
  22752744.025    10041291.562 8   7830694.12145  22752743.554    22752749.5334
  21564933.087    -1336060.320 8  -1020287.97147  21564932.618    21564935.1684
 01  7 12 19 49  0.0000000  0 10 14 31 23 15 03 29 21 09 17 18
  21376300.244    -5390062.401 8  -4184498.72947  21376299.656    21376302.8374
  22235388.924   -14126627.325 8 -10990005.80946  22235388.441    22235392.9114
  23094949.093    10698332.986 8   8463959.53646  23094948.560    23094953.6884
  21494319.039     1058915.321 8    835097.88547  21494318.353    21494322.4454
  21353404.182   -19300474.883 9 -15026705.81947  21353403.746    21353407.6274
  22107437.575   -10707517.769 8  -8034911.59946  22107437.290    22107442.0024
  20815216.029   -21598309.339 9 -16811871.54547  20815215.516    20815218.8814
  23725323.180    -5009941.493 7  -3891478.52945  23725322.862    23725328.7434
  22768561.406    10124411.772 8   7895463.04345  22768560.774    22768566.7274
  21576900.987    -1273168.744 8   -971281.59047  21576900.443    21576903.0454
 01  7 12 19 49 30.0000000  0 10 14 31 23 15 03 29 21 09 17 18
  21361579.286    -5467421.160 8  -4244778.22647  21361578.727    21361581.8934
  22228405.490   -14163327.078 8 -11018602.97946  22228404.766    22228409.1224
  23108439.497    10769225.445 8   8519200.33046  23108438.970    23108443.9484
  21506954.026     1125312.350 8    886835.76447  21506953.296    21506957.5724
  21359062.946   -19270736.815 9 -15003533.33747  21359062.599    21359066.5524
  22090304.649   -10797551.015 8  -8105067.29446  22090304.460    22090309.1374
  20814210.479   -21603593.953 9 -16815989.43447  20814209.912    20814213.2624
  23721472.112    -5030179.072 8  -3907248.09645  23721471.876    23721477.7744
  22784428.698    10207794.091 8   7960436.15345  22784428.068    22784433.9524
  21588903.729    -1210093.644 9   -922132.19947  21588903.253    21588905.9414
